[[{"header":{"parameterUnit":"m.s-1","parameterCategory":1,"la1":31.0,"la2":29.5877,"lo1":-88.7671,"lo2":-86.6584,"dx":0.0162,"dy":0.0185,"nx":115,"ny":88,"refTime":"2023-01-11T06:00:00:Z","depth":0,"parameterNumber":2,"parameterNumberName":"U-component_of_WINDS"},"data":[0.0,0.0,0.0,0.0,0.0,0.0,0.0,0.0,0.0,0.0,0.0,0.0,0.0,0.0,0.0,0.0,0.0,0.0,0.0,0.0,0.0,0.0,0.0,0.0,0.0,0.0,0.0,0.0,0.0,0.0,0.0,0.0,0.0,0.0,0.0,0.0,0.0,0.0,0.0,0.0,0.0,0.0,0.0,0.0,0.0,0.0,0.0,0.0,0.0,0.0,0.0,0.0,0.0,0.0,0.0,0.0,0.0,0.0,0.0,0.0,0.0,0.0,0.0,0.0,0.0,0.0,0.0,0.0,0.0,0.0,0.0,0.0,0.0,0.0,0.0,0.0,0.0,0.0,0.0,0.0,0.0,0.0,0.0,0.0,0.0,0.0,0.0,0.0,0.0,0.0,0.0,0.0,0.0,0.0,0.0,0.0,0.0,0.0,0.0,0.0,0.0,0.0,0.0,0.0,0.0,0.0,0.0,0.0,0.0,0.0,0.0,0.0,0.0,0.0,0.0,0.0,0.0,0.0,0.0,0.0,0.0,0.0,0.0,0.0,0.0,0.0,0.0,0.0,0.0,0.0,0.0,0.0,0.0,0.0,0.0,0.0,0.0,0.0,0.0,0.0,0.0,0.0,0.0,0.0,0.0,0.0,0.0,0.0,0.0,0.0,0.0,0.0,0.0,0.0,0.0,0.0,0.0,0.0,0.0,0.0,0.0,0.0,0.0,0.0,0.0,0.0,0.0,0.0,0.0,0.0,0.0,0.0,0.0,0.0,0.0,0.0,0.0,0.0,0.0,0.0,0.0,0.0,0.0,0.0,0.0,0.0,0.0,0.0,0.0,0.0,0.0,0.0,0.0,0.0,0.0,0.0,0.0,0.0,0.0,0.0,0.0,0.0,0.0,0.0,0.0,0.0,0.0,0.0,0.0,0.0,0.0,0.0,0.0,0.0,0.0,0.0,0.0,0.0,0.0,0.0,0.0,0.0,0.0,0.0,0.0,0.0,0.0,0.0,0.0,0.0,0.0,0.0,0.0,0.0,0.0,0.0,0.0,0.0,0.0,0.0,0.0,0.0,0.0,0.0,0.0,0.0,0.0,0.0,0.0,0.0,0.0,0.0,0.0,0.0,0.0,0.0,0.0,0.0,0.0,0.0,0.0,0.0,0.0,0.0,0.0,0.0,0.0,0.0,0.0,0.0,0.0,0.0,0.0,0.0,0.0,0.0,0.0,0.0,0.0,0.0,0.0,0.0,0.0,0.0,0.0,0.0,0.0,0.0,0.0,0.0,0.0,0.0,0.0,0.0,0.0,0.0,0.0,0.0,0.0,0.0,0.0,0.0,0.0,0.0,0.0,0.0,0.0,0.0,0.0,0.0,0.0,0.0,0.0,0.0,0.0,0.0,0.0,0.0,0.0,0.0,0.0,0.0,0.0,0.0,0.0,0.0,0.0,0.0,0.0,0.0,0.0,0.0,0.0,0.0,0.0,0.0,0.0,0.0,0.0,0.0,0.0,0.0,0.0,0.0,0.0,0.0,0.0,0.0,0.0,0.0,0.0,0.0,0.0,0.0,0.0,0.0,0.0,0.0,0.0,0.0,0.0,0.0,0.0,0.0,0.0,0.0,0.0,0.0,0.0,0.0,0.0,0.0,0.0,0.0,0.0,0.0,0.0,0.0,0.0,0.0,0.0,0.0,0.0,0.0,0.0,0.0,0.0,0.0,0.0,0.0,0.0,0.0,0.0,0.0,0.0,0.0,0.0,0.0,0.0,0.0,0.0,0.0,0.0,0.0,0.0,0.0,0.0,0.0,0.0,0.0,0.0,0.0,0.0,0.0,0.0,0.0,0.0,0.0,0.0,0.0,0.0,0.0,0.0,0.0,0.0,0.0,0.0,0.0,0.0,0.0,0.0,0.0,0.0,0.0,0.0,0.0,0.0,0.0,0.0,0.0,0.0,0.0,0.0,0.0,0.0,0.0,0.0,0.0,0.0,0.0,0.0,0.0,0.0,0.0,0.0,0.0,0.0,0.0,0.0,0.0,0.0,0.0,0.0,0.0,0.0,0.0,0.0,0.0,0.0,0.0,0.0,0.0,0.0,0.0,0.0,0.0,0.0,0.0,0.0,0.0,0.0,0.0,0.0,0.0,0.0,0.0,0.0,0.0,0.0,0.0,0.0,0.0,0.0,0.0,0.0,0.0,0.0,0.0,0.0,0.0,0.0,0.0,0.0,0.0,0.0,0.0,0.0,0.0,0.0,0.0,0.0,0.0,0.0,0.0,0.0,0.0,0.0,0.0,0.0,0.0,0.0,0.0,0.0,0.0,0.0,0.0,0.0,0.0,0.0,0.0,0.0,0.0,0.0,0.0,0.0,0.0,0.0,0.0,0.0,0.0,0.0,0.0,0.0,0.0,0.0,0.0,0.0,0.0,0.0,0.0,0.0,0.0,0.0,0.0,0.0,0.0,0.0,0.0,0.0,0.0,0.0,0.0,0.0,0.0,0.0,0.0,0.0,0.0,0.0,0.0,0.0,0.0,0.0,0.0,0.0,0.0,0.0,0.0,0.0,0.0,0.0,0.0,0.0,0.0,0.0,0.0,0.0,0.0,0.0,0.0,0.0,0.0,0.0,0.0,0.0,0.0,0.0,0.0,0.0,0.0,0.0,0.0,0.0,0.0,0.0,0.0,0.0,0.0,0.0,0.0,0.0,0.0,0.0,0.0,0.0,0.0,0.0,0.0,0.0,0.0,0.0,0.0,0.0,0.0,0.0,0.0,0.0,0.0,0.0,0.0,0.0,0.0,0.0,0.0,0.0,0.0,0.0,0.0,0.0,0.0,0.0,0.0,0.0,0.0,0.0,0.0,0.0,0.0,0.0,0.0,0.0,0.0,0.0,0.0,0.0,0.0,0.0,0.0,0.0,0.0,0.0,0.0,0.0,0.0,0.0,0.0,0.0,0.0,0.0,0.0,0.0,0.0,0.0,0.0,0.0,0.0,0.0,0.0,0.0,0.0,0.0,0.0,0.0,0.0,0.0,0.0,0.0,0.0,0.0,0.0,0.0,0.0,0.0,0.0,0.0,0.0,0.0,0.0,0.0,0.0,0.0,0.0,0.0,0.0,0.0,0.0,0.0,0.0,0.0,0.0,0.0,0.0,0.0,0.0,0.0,0.0,0.0,0.0,0.0,0.0,0.0,0.0,0.0,0.0,0.0,0.0,0.0,0.0,0.0,0.0,0.0,0.0,0.0,0.0,0.0,0.0,0.0,0.0,0.0,0.0,0.0,0.0,0.0,0.0,0.0,0.0,0.0,0.0,0.0,0.0,0.0,0.0,0.0,0.0,0.0,0.0,0.0,0.0,0.0,0.0,0.0,0.0,0.0,0.0,0.0,0.0,0.0,0.0,0.0,0.0,0.0,0.0,0.0,0.0,0.0,0.0,0.0,0.0,0.0,0.0,0.0,0.0,0.0,0.0,0.0,0.0,0.0,0.0,0.0,0.0,0.0,0.0,0.0,0.0,0.0,0.0,0.0,0.0,0.0,0.0,0.0,0.0,0.0,0.0,0.0,0.0,0.0,0.0,0.0,0.0,0.0,0.0,0.0,0.0,0.0,0.0,0.0,0.0,0.0,0.0,0.0,0.0,0.0,0.0,0.0,0.0,0.0,0.0,0.0,0.0,0.0,0.0,0.0,0.0,0.0,0.0,0.0,0.0,0.0,0.0,0.0,0.0,0.0,0.0,0.0,0.0,0.0,0.0,0.0,0.0,0.0,0.0,0.0,0.0,0.0,0.0,0.0,0.0,0.0,0.0,0.0,0.0,0.0,0.0,0.0,0.0,0.0,0.0,0.0,0.0,0.0,0.0,0.0,0.0,0.0,0.0,0.0,0.0,0.0,0.0,0.0,0.0,0.0,0.0,0.0,0.0,0.0,0.0,0.0,0.0,0.0,0.0,0.0,0.0,0.0,0.0,0.0,0.0,0.0,0.0,0.0,0.0,0.0,0.0,0.0,0.0,0.0,0.0,0.0,0.0,0.0,0.0,0.0,0.0,0.0,0.0,0.0,0.0,0.0,0.0,0.0,0.0,0.0,0.0,0.0,0.0,0.0,0.0,0.0,0.0,0.0,0.0,0.0,0.0,0.0,0.0,0.0,0.0,0.0,0.0,0.0,0.0,0.0,0.0,0.0,0.0,0.0,0.0,0.0,0.0,0.0,0.0,0.0,0.0,0.0,0.0,0.0,0.0,0.0,0.0,0.0,0.0,-3.4117,0.0,0.0,0.0,-3.4416,0.0,0.0,0.0,0.0,0.0,0.0,0.0,0.0,0.0,0.0,0.0,0.0,0.0,0.0,0.0,0.0,0.0,0.0,0.0,0.0,0.0,0.0,0.0,0.0,0.0,0.0,0.0,0.0,0.0,0.0,0.0,0.0,0.0,0.0,0.0,0.0,0.0,0.0,0.0,0.0,0.0,0.0,0.0,0.0,0.0,0.0,0.0,0.0,0.0,0.0,0.0,0.0,0.0,0.0,0.0,0.0,0.0,0.0,0.0,0.0,0.0,0.0,0.0,0.0,0.0,0.0,0.0,0.0,0.0,0.0,0.0,0.0,0.0,0.0,0.0,0.0,0.0,0.0,0.0,0.0,0.0,0.0,0.0,0.0,0.0,0.0,0.0,0.0,0.0,0.0,0.0,0.0,0.0,0.0,0.0,0.0,0.0,0.0,0.0,0.0,0.0,0.0,0.0,0.0,0.0,0.0,0.0,0.0,0.0,0.0,-3.4303,-3.4982,-3.4994,-3.4994,-3.503,0.0,0.0,0.0,0.0,0.0,0.0,0.0,0.0,0.0,0.0,0.0,0.0,0.0,0.0,0.0,0.0,0.0,0.0,0.0,0.0,0.0,0.0,0.0,0.0,0.0,0.0,0.0,0.0,0.0,0.0,0.0,0.0,0.0,0.0,0.0,0.0,0.0,0.0,0.0,0.0,0.0,0.0,0.0,0.0,0.0,0.0,0.0,0.0,0.0,0.0,0.0,0.0,0.0,0.0,0.0,0.0,0.0,0.0,0.0,0.0,0.0,0.0,0.0,0.0,0.0,0.0,0.0,0.0,0.0,0.0,0.0,0.0,0.0,0.0,0.0,0.0,0.0,0.0,0.0,0.0,0.0,0.0,0.0,0.0,0.0,0.0,0.0,0.0,0.0,0.0,0.0,0.0,0.0,0.0,0.0,0.0,0.0,0.0,0.0,0.0,0.0,0.0,0.0,0.0,0.0,0.0,0.0,0.0,0.0,0.0,0.0,0.0,-3.574,-3.574,-3.5541,0.0,0.0,0.0,0.0,0.0,0.0,0.0,0.0,0.0,0.0,0.0,0.0,0.0,0.0,0.0,0.0,0.0,0.0,0.0,0.0,0.0,0.0,0.0,0.0,0.0,0.0,0.0,0.0,0.0,0.0,0.0,0.0,0.0,0.0,0.0,0.0,0.0,0.0,0.0,0.0,0.0,0.0,0.0,0.0,0.0,0.0,0.0,0.0,0.0,0.0,0.0,0.0,0.0,0.0,0.0,0.0,0.0,0.0,0.0,0.0,0.0,0.0,0.0,0.0,0.0,0.0,0.0,0.0,0.0,0.0,0.0,0.0,0.0,0.0,0.0,0.0,0.0,0.0,0.0,0.0,0.0,0.0,0.0,0.0,0.0,0.0,0.0,0.0,0.0,0.0,0.0,0.0,0.0,0.0,0.0,0.0,0.0,0.0,0.0,0.0,0.0,0.0,0.0,0.0,0.0,0.0,0.0,0.0,0.0,0.0,-3.5251,-3.5403,-3.6172,0.0,-3.544,0.0,0.0,0.0,0.0,0.0,0.0,0.0,0.0,0.0,0.0,0.0,0.0,0.0,0.0,0.0,0.0,0.0,0.0,0.0,0.0,0.0,0.0,0.0,0.0,0.0,0.0,0.0,0.0,0.0,0.0,0.0,0.0,0.0,0.0,0.0,0.0,0.0,0.0,0.0,0.0,0.0,0.0,0.0,0.0,0.0,0.0,0.0,0.0,0.0,0.0,0.0,0.0,0.0,0.0,0.0,0.0,0.0,0.0,0.0,0.0,0.0,0.0,0.0,0.0,0.0,0.0,0.0,0.0,0.0,0.0,0.0,0.0,0.0,0.0,0.0,0.0,0.0,0.0,0.0,0.0,0.0,0.0,0.0,0.0,0.0,0.0,0.0,0.0,0.0,0.0,0.0,0.0,0.0,0.0,0.0,0.0,0.0,0.0,0.0,0.0,0.0,0.0,0.0,0.0,0.0,0.0,0.0,0.0,0.0,0.0,-3.5504,-3.6051,-3.6411,-3.6384,0.0,0.0,0.0,0.0,0.0,0.0,0.0,0.0,0.0,0.0,0.0,0.0,0.0,0.0,0.0,0.0,0.0,0.0,0.0,0.0,0.0,0.0,0.0,0.0,0.0,0.0,0.0,0.0,0.0,0.0,0.0,0.0,0.0,0.0,0.0,0.0,0.0,0.0,0.0,0.0,0.0,0.0,0.0,0.0,0.0,0.0,0.0,0.0,0.0,0.0,0.0,0.0,0.0,0.0,0.0,0.0,0.0,0.0,0.0,0.0,0.0,0.0,0.0,0.0,0.0,0.0,0.0,0.0,0.0,0.0,0.0,0.0,0.0,0.0,0.0,0.0,0.0,0.0,0.0,0.0,0.0,0.0,0.0,0.0,0.0,0.0,0.0,0.0,0.0,0.0,0.0,0.0,0.0,0.0,0.0,0.0,0.0,0.0,0.0,0.0,0.0,0.0,0.0,0.0,0.0,0.0,0.0,0.0,0.0,0.0,-3.5078,-3.6076,-3.7068,-3.6722,-3.6394,-3.6281,0.0,0.0,0.0,0.0,0.0,0.0,0.0,0.0,0.0,0.0,0.0,0.0,0.0,0.0,0.0,0.0,0.0,0.0,0.0,0.0,0.0,0.0,0.0,0.0,0.0,0.0,0.0,0.0,0.0,0.0,0.0,0.0,0.0,0.0,0.0,0.0,0.0,0.0,0.0,0.0,0.0,0.0,0.0,0.0,0.0,0.0,0.0,0.0,0.0,0.0,0.0,0.0,0.0,0.0,0.0,0.0,0.0,0.0,0.0,0.0,0.0,0.0,0.0,0.0,0.0,0.0,0.0,0.0,0.0,0.0,0.0,0.0,0.0,0.0,0.0,0.0,0.0,0.0,0.0,0.0,0.0,0.0,0.0,0.0,0.0,0.0,0.0,0.0,0.0,0.0,0.0,0.0,0.0,0.0,0.0,0.0,0.0,0.0,0.0,0.0,0.0,0.0,0.0,0.0,0.0,0.0,0.0,0.0,-3.4931,-3.586,-3.7122,-3.8656,-3.7233,-3.6389,0.0,0.0,0.0,0.0,0.0,0.0,0.0,0.0,0.0,0.0,0.0,0.0,0.0,0.0,0.0,0.0,0.0,0.0,0.0,0.0,0.0,0.0,0.0,0.0,0.0,0.0,0.0,0.0,0.0,0.0,0.0,0.0,0.0,0.0,0.0,0.0,0.0,0.0,0.0,0.0,0.0,0.0,0.0,0.0,0.0,0.0,0.0,0.0,0.0,0.0,0.0,0.0,0.0,0.0,0.0,0.0,0.0,0.0,0.0,0.0,0.0,0.0,0.0,0.0,0.0,0.0,0.0,0.0,0.0,0.0,0.0,0.0,0.0,0.0,0.0,0.0,0.0,0.0,0.0,0.0,0.0,0.0,0.0,0.0,0.0,0.0,0.0,0.0,0.0,0.0,0.0,0.0,0.0,0.0,0.0,0.0,0.0,0.0,0.0,0.0,0.0,0.0,0.0,0.0,0.0,0.0,0.0,0.0,0.0,-3.5004,-3.6368,-3.7647,-3.8655,-3.7125,-3.6194,0.0,0.0,0.0,0.0,0.0,0.0,0.0,0.0,0.0,0.0,0.0,0.0,0.0,0.0,0.0,0.0,0.0,0.0,0.0,0.0,0.0,0.0,0.0,0.0,0.0,0.0,0.0,0.0,0.0,0.0,0.0,0.0,0.0,0.0,0.0,0.0,0.0,0.0,0.0,0.0,0.0,0.0,0.0,0.0,0.0,0.0,0.0,0.0,0.0,0.0,0.0,0.0,0.0,0.0,0.0,0.0,0.0,0.0,0.0,0.0,0.0,0.0,0.0,0.0,0.0,0.0,0.0,0.0,0.0,0.0,0.0,0.0,0.0,0.0,0.0,0.0,0.0,0.0,0.0,0.0,0.0,0.0,0.0,0.0,0.0,0.0,0.0,0.0,0.0,0.0,0.0,0.0,0.0,0.0,0.0,0.0,0.0,0.0,0.0,0.0,0.0,0.0,0.0,0.0,0.0,0.0,0.0,0.0,0.0,-3.6178,-3.7551,-3.8557,-3.9019,-3.7659,-3.6595,0.0,0.0,0.0,0.0,0.0,0.0,0.0,0.0,0.0,0.0,0.0,0.0,0.0,0.0,0.0,0.0,0.0,0.0,0.0,0.0,0.0,0.0,0.0,0.0,0.0,0.0,0.0,0.0,0.0,0.0,0.0,0.0,0.0,0.0,0.0,0.0,0.0,0.0,0.0,0.0,0.0,0.0,0.0,0.0,0.0,0.0,0.0,0.0,0.0,0.0,0.0,0.0,0.0,0.0,0.0,0.0,0.0,0.0,0.0,0.0,0.0,0.0,0.0,0.0,0.0,0.0,0.0,0.0,0.0,0.0,0.0,0.0,0.0,0.0,0.0,0.0,0.0,0.0,0.0,0.0,0.0,0.0,0.0,0.0,0.0,0.0,0.0,0.0,0.0,0.0,0.0,0.0,0.0,0.0,0.0,0.0,0.0,0.0,0.0,0.0,0.0,0.0,0.0,0.0,0.0,0.0,0.0,0.0,-3.6215,-3.8579,-3.946,-3.9879,-3.99,-3.8941,-3.7677,0.0,0.0,0.0,0.0,0.0,0.0,0.0,0.0,0.0,0.0,0.0,0.0,0.0,0.0,0.0,0.0,0.0,0.0,0.0,0.0,0.0,0.0,0.0,0.0,0.0,0.0,0.0,0.0,0.0,0.0,0.0,0.0,0.0,0.0,0.0,0.0,0.0,0.0,0.0,0.0,0.0,0.0,0.0,0.0,0.0,0.0,0.0,0.0,0.0,0.0,0.0,0.0,0.0,0.0,0.0,0.0,0.0,0.0,0.0,0.0,0.0,0.0,0.0,0.0,0.0,0.0,0.0,0.0,0.0,0.0,0.0,0.0,0.0,0.0,0.0,0.0,0.0,0.0,0.0,0.0,0.0,0.0,0.0,0.0,0.0,0.0,0.0,0.0,0.0,0.0,0.0,0.0,0.0,0.0,0.0,0.0,0.0,0.0,0.0,0.0,0.0,0.0,0.0,0.0,0.0,0.0,0.0,0.0,0.0,-3.8689,-4.0031,-4.0744,-4.0691,-3.9223,-3.8177,0.0,0.0,0.0,0.0,0.0,0.0,0.0,0.0,0.0,0.0,0.0,0.0,0.0,0.0,0.0,0.0,0.0,0.0,0.0,0.0,0.0,0.0,0.0,0.0,0.0,0.0,0.0,0.0,0.0,0.0,0.0,0.0,0.0,0.0,0.0,0.0,0.0,0.0,0.0,0.0,0.0,0.0,0.0,0.0,0.0,0.0,0.0,0.0,0.0,0.0,0.0,0.0,0.0,0.0,0.0,0.0,0.0,0.0,0.0,0.0,0.0,0.0,0.0,0.0,0.0,0.0,0.0,0.0,0.0,0.0,0.0,0.0,0.0,0.0,0.0,0.0,0.0,0.0,0.0,0.0,0.0,0.0,0.0,0.0,0.0,0.0,0.0,0.0,0.0,0.0,0.0,0.0,0.0,0.0,0.0,0.0,0.0,0.0,0.0,0.0,0.0,0.0,0.0,0.0,0.0,0.0,0.0,0.0,0.0,-4.0912,-4.1625,-4.2139,-4.2433,-4.0982,-3.975,-3.8806,0.0,0.0,0.0,0.0,0.0,0.0,0.0,0.0,0.0,0.0,0.0,0.0,0.0,0.0,0.0,0.0,0.0,0.0,0.0,0.0,0.0,0.0,0.0,0.0,0.0,0.0,0.0,0.0,0.0,0.0,0.0,0.0,0.0,0.0,0.0,0.0,0.0,0.0,0.0,0.0,0.0,0.0,0.0,0.0,0.0,0.0,0.0,0.0,0.0,0.0,0.0,0.0,0.0,0.0,0.0,0.0,0.0,0.0,0.0,0.0,0.0,0.0,0.0,0.0,0.0,0.0,0.0,0.0,0.0,0.0,0.0,0.0,0.0,0.0,0.0,0.0,0.0,0.0,0.0,0.0,0.0,0.0,0.0,0.0,0.0,0.0,0.0,0.0,0.0,0.0,0.0,0.0,0.0,0.0,0.0,0.0,0.0,0.0,0.0,0.0,0.0,0.0,0.0,0.0,0.0,0.0,0.0,0.0,-4.4838,-4.4195,-4.4158,-4.4801,-4.3797,-4.2139,0.0,0.0,0.0,0.0,0.0,0.0,0.0,0.0,0.0,0.0,0.0,0.0,0.0,0.0,0.0,0.0,0.0,0.0,0.0,0.0,0.0,0.0,0.0,0.0,0.0,0.0,0.0,0.0,0.0,0.0,0.0,0.0,0.0,0.0,0.0,0.0,0.0,0.0,0.0,0.0,0.0,0.0,0.0,0.0,0.0,0.0,0.0,0.0,0.0,0.0,0.0,0.0,0.0,0.0,0.0,0.0,0.0,0.0,0.0,0.0,0.0,0.0,0.0,0.0,0.0,0.0,0.0,0.0,0.0,0.0,0.0,0.0,0.0,0.0,0.0,0.0,0.0,0.0,0.0,0.0,0.0,0.0,0.0,0.0,0.0,0.0,0.0,0.0,0.0,0.0,0.0,0.0,0.0,0.0,0.0,0.0,0.0,0.0,0.0,0.0,0.0,0.0,0.0,0.0,0.0,0.0,0.0,0.0,0.0,-4.7186,-4.7774,-4.7498,-4.6489,-4.4931,-4.3196,0.0,0.0,0.0,0.0,0.0,0.0,0.0,0.0,0.0,0.0,0.0,0.0,0.0,0.0,0.0,0.0,0.0,0.0,0.0,0.0,0.0,0.0,0.0,0.0,0.0,0.0,0.0,0.0,0.0,0.0,0.0,0.0,0.0,0.0,0.0,0.0,0.0,0.0,0.0,0.0,0.0,0.0,0.0,0.0,0.0,0.0,0.0,0.0,0.0,0.0,0.0,0.0,0.0,0.0,0.0,0.0,0.0,0.0,0.0,0.0,0.0,0.0,0.0,0.0,0.0,0.0,0.0,0.0,0.0,0.0,0.0,0.0,0.0,0.0,0.0,0.0,0.0,0.0,0.0,0.0,0.0,0.0,0.0,0.0,0.0,0.0,0.0,0.0,0.0,0.0,0.0,0.0,0.0,0.0,0.0,0.0,0.0,0.0,0.0,0.0,0.0,0.0,0.0,0.0,0.0,0.0,0.0,0.0,-4.5828,-4.8783,-5.0014,-5.0141,-4.9187,-4.7051,-4.5109,0.0,0.0,0.0,0.0,0.0,0.0,0.0,0.0,0.0,0.0,0.0,0.0,0.0,0.0,0.0,0.0,0.0,0.0,0.0,0.0,0.0,0.0,0.0,0.0,0.0,0.0,0.0,0.0,0.0,0.0,0.0,0.0,0.0,0.0,0.0,0.0,0.0,0.0,0.0,0.0,0.0,0.0,0.0,0.0,0.0,0.0,0.0,0.0,0.0,0.0,0.0,0.0,0.0,0.0,0.0,0.0,0.0,0.0,0.0,0.0,0.0,0.0,0.0,0.0,0.0,0.0,0.0,0.0,0.0,0.0,0.0,0.0,0.0,0.0,0.0,0.0,0.0,0.0,0.0,0.0,0.0,0.0,0.0,0.0,0.0,0.0,0.0,0.0,0.0,0.0,0.0,0.0,0.0,0.0,0.0,0.0,0.0,0.0,0.0,0.0,0.0,0.0,0.0,0.0,0.0,0.0,0.0,0.0,-4.7124,-4.9774,-5.1426,-5.2234,-5.216,-4.9574,-4.7276,0.0,0.0,0.0,0.0,0.0,0.0,0.0,0.0,0.0,0.0,0.0,0.0,0.0,0.0,0.0,0.0,0.0,0.0,0.0,0.0,0.0,0.0,0.0,0.0,0.0,0.0,0.0,0.0,0.0,0.0,0.0,0.0,0.0,0.0,0.0,0.0,0.0,0.0,0.0,0.0,0.0,0.0,0.0,0.0,0.0,0.0,0.0,0.0,0.0,0.0,0.0,0.0,0.0,0.0,0.0,0.0,0.0,0.0,0.0,0.0,0.0,0.0,0.0,0.0,0.0,0.0,0.0,0.0,0.0,0.0,0.0,0.0,0.0,0.0,0.0,0.0,0.0,0.0,0.0,0.0,0.0,0.0,0.0,0.0,0.0,0.0,0.0,0.0,0.0,0.0,0.0,0.0,0.0,0.0,0.0,0.0,0.0,0.0,0.0,0.0,0.0,0.0,0.0,0.0,0.0,0.0,0.0,0.0,-4.8048,-5.1287,-5.2999,-5.3885,-5.3885,-5.0691,-4.7842,0.0,0.0,0.0,0.0,0.0,0.0,0.0,0.0,0.0,0.0,0.0,0.0,0.0,0.0,0.0,0.0,0.0,0.0,0.0,0.0,0.0,0.0,0.0,0.0,0.0,0.0,0.0,0.0,0.0,0.0,0.0,0.0,0.0,0.0,0.0,0.0,0.0,0.0,0.0,0.0,0.0,0.0,0.0,0.0,0.0,0.0,0.0,0.0,-2.723,0.0,0.0,0.0,0.0,0.0,0.0,0.0,0.0,0.0,0.0,0.0,0.0,0.0,0.0,0.0,0.0,0.0,0.0,0.0,0.0,0.0,0.0,0.0,0.0,0.0,0.0,0.0,0.0,0.0,0.0,0.0,0.0,0.0,0.0,0.0,0.0,0.0,0.0,0.0,0.0,0.0,0.0,0.0,0.0,0.0,0.0,0.0,0.0,0.0,0.0,0.0,0.0,0.0,0.0,0.0,0.0,0.0,0.0,0.0,-4.9159,-5.2199,-5.3588,-5.4517,-5.484,-5.2337,-4.9497,0.0,0.0,0.0,0.0,0.0,0.0,0.0,0.0,0.0,0.0,0.0,0.0,0.0,0.0,0.0,0.0,0.0,0.0,0.0,0.0,0.0,0.0,0.0,0.0,0.0,0.0,0.0,0.0,0.0,0.0,0.0,0.0,0.0,0.0,0.0,0.0,0.0,0.0,0.0,0.0,0.0,0.0,0.0,0.0,0.0,0.0,0.0,0.0,0.0,0.0,0.0,0.0,0.0,0.0,0.0,0.0,0.0,0.0,0.0,0.0,0.0,0.0,0.0,0.0,0.0,0.0,0.0,0.0,0.0,0.0,0.0,0.0,0.0,0.0,0.0,0.0,0.0,0.0,0.0,0.0,0.0,0.0,0.0,0.0,0.0,0.0,0.0,0.0,0.0,0.0,0.0,0.0,0.0,0.0,0.0,0.0,0.0,0.0,0.0,0.0,0.0,0.0,0.0,0.0,0.0,0.0,0.0,-4.709,-5.0073,-5.2744,-5.3945,-5.4897,-5.5632,-5.4026,-5.1508,-4.8134,0.0,0.0,0.0,0.0,0.0,0.0,0.0,0.0,0.0,0.0,0.0,0.0,0.0,0.0,0.0,0.0,0.0,0.0,0.0,0.0,0.0,0.0,0.0,0.0,0.0,0.0,0.0,0.0,0.0,0.0,0.0,0.0,0.0,0.0,0.0,0.0,0.0,0.0,-2.7295,-2.8549,0.0,0.0,0.0,0.0,0.0,0.0,0.0,0.0,-2.9674,0.0,0.0,0.0,0.0,0.0,0.0,0.0,0.0,0.0,0.0,0.0,0.0,0.0,0.0,0.0,0.0,0.0,0.0,0.0,0.0,0.0,0.0,0.0,0.0,0.0,0.0,0.0,0.0,0.0,0.0,0.0,0.0,0.0,0.0,0.0,0.0,0.0,0.0,0.0,0.0,0.0,0.0,0.0,0.0,0.0,0.0,0.0,0.0,0.0,0.0,0.0,0.0,0.0,0.0,0.0,0.0,-4.4152,-4.7497,-5.0486,-5.3087,-5.4943,-5.5946,-5.6079,-5.5087,-5.2927,-4.9483,0.0,0.0,0.0,0.0,0.0,0.0,0.0,0.0,0.0,0.0,0.0,0.0,0.0,0.0,0.0,0.0,0.0,0.0,0.0,0.0,0.0,0.0,0.0,0.0,0.0,0.0,0.0,0.0,0.0,0.0,0.0,0.0,0.0,0.0,0.0,0.0,0.0,0.0,0.0,-3.078,-3.1998,0.0,0.0,0.0,0.0,0.0,0.0,0.0,0.0,-3.1338,0.0,0.0,0.0,0.0,0.0,0.0,0.0,0.0,0.0,0.0,0.0,0.0,0.0,0.0,0.0,0.0,0.0,0.0,0.0,0.0,0.0,0.0,0.0,0.0,0.0,0.0,0.0,0.0,0.0,0.0,0.0,0.0,0.0,0.0,0.0,0.0,0.0,0.0,0.0,0.0,0.0,0.0,0.0,0.0,0.0,0.0,0.0,0.0,0.0,0.0,0.0,0.0,0.0,0.0,0.0,-4.4959,-4.8287,-5.1228,-5.3727,-5.5004,-5.5872,-5.6284,-5.5177,-5.3109,0.0,0.0,0.0,0.0,0.0,0.0,0.0,0.0,0.0,0.0,0.0,0.0,0.0,0.0,0.0,0.0,0.0,0.0,0.0,0.0,0.0,0.0,0.0,0.0,0.0,0.0,0.0,0.0,0.0,0.0,0.0,0.0,0.0,0.0,0.0,0.0,0.0,0.0,0.0,0.0,-3.1772,-3.3157,-3.3429,0.0,0.0,0.0,0.0,0.0,0.0,-3.2659,-3.2253,0.0,0.0,0.0,0.0,0.0,0.0,0.0,0.0,0.0,0.0,0.0,0.0,0.0,0.0,0.0,0.0,0.0,0.0,0.0,0.0,0.0,0.0,0.0,0.0,0.0,0.0,0.0,0.0,0.0,0.0,0.0,0.0,0.0,0.0,0.0,0.0,0.0,0.0,0.0,0.0,0.0,0.0,0.0,0.0,0.0,0.0,0.0,0.0,0.0,0.0,0.0,0.0,0.0,0.0,0.0,-4.5978,-4.909,-5.192,-5.4343,-5.5023,-5.5692,-5.6462,-5.5027,-5.2986,0.0,0.0,0.0,0.0,0.0,0.0,0.0,0.0,0.0,0.0,0.0,0.0,0.0,0.0,0.0,0.0,0.0,0.0,0.0,0.0,0.0,0.0,0.0,0.0,0.0,0.0,0.0,0.0,0.0,0.0,0.0,0.0,0.0,0.0,0.0,0.0,0.0,0.0,0.0,0.0,0.0,-3.4138,-3.4853,-3.5047,0.0,0.0,0.0,0.0,-3.4707,-3.4175,0.0,0.0,0.0,0.0,0.0,0.0,0.0,0.0,0.0,0.0,0.0,0.0,0.0,0.0,0.0,0.0,0.0,0.0,0.0,0.0,0.0,0.0,0.0,0.0,0.0,0.0,0.0,0.0,0.0,0.0,0.0,0.0,0.0,0.0,0.0,0.0,0.0,0.0,0.0,0.0,0.0,0.0,0.0,0.0,0.0,0.0,0.0,0.0,0.0,0.0,0.0,0.0,0.0,0.0,0.0,0.0,-4.7127,-4.9735,-5.2226,-5.4564,-5.5628,-5.6255,-5.6475,-5.4998,-5.3127,0.0,0.0,0.0,0.0,0.0,0.0,0.0,0.0,0.0,0.0,0.0,0.0,0.0,0.0,0.0,0.0,0.0,0.0,0.0,0.0,0.0,0.0,0.0,0.0,0.0,0.0,0.0,0.0,0.0,0.0,0.0,0.0,0.0,0.0,0.0,0.0,0.0,0.0,0.0,0.0,0.0,-3.5644,-3.6941,-3.7487,-3.7492,0.0,0.0,-3.7342,-3.6687,-3.647,0.0,0.0,0.0,0.0,0.0,0.0,0.0,0.0,0.0,0.0,0.0,0.0,0.0,0.0,0.0,0.0,0.0,0.0,0.0,0.0,0.0,0.0,0.0,0.0,0.0,0.0,0.0,0.0,0.0,0.0,0.0,0.0,0.0,0.0,0.0,0.0,0.0,0.0,0.0,0.0,0.0,0.0,0.0,0.0,0.0,0.0,0.0,0.0,0.0,0.0,0.0,0.0,0.0,0.0,0.0,-4.3946,-4.7622,-5.053,-5.2846,-5.4691,-5.5839,-5.6448,-5.6478,-5.5081,-5.3028,0.0,0.0,0.0,0.0,0.0,0.0,0.0,0.0,0.0,0.0,0.0,0.0,0.0,0.0,0.0,0.0,0.0,0.0,0.0,0.0,0.0,0.0,0.0,0.0,0.0,0.0,0.0,0.0,0.0,0.0,0.0,0.0,0.0,0.0,0.0,0.0,0.0,0.0,0.0,0.0,0.0,0.0,-3.809,-3.8842,0.0,0.0,0.0,-3.929,-3.8849,0.0,0.0,0.0,0.0,0.0,0.0,0.0,0.0,0.0,0.0,0.0,0.0,0.0,0.0,0.0,0.0,0.0,0.0,0.0,0.0,0.0,0.0,0.0,0.0,0.0,0.0,0.0,0.0,0.0,0.0,0.0,0.0,0.0,0.0,0.0,0.0,0.0,0.0,0.0,0.0,0.0,0.0,0.0,0.0,0.0,0.0,0.0,0.0,0.0,0.0,0.0,0.0,0.0,0.0,0.0,0.0,0.0,-4.8409,-5.1346,-5.3651,-5.5247,-5.6133,-5.6611,-5.6645,-5.5236,0.0,0.0,0.0,0.0,0.0,0.0,0.0,0.0,0.0,0.0,0.0,0.0,0.0,0.0,0.0,0.0,0.0,0.0,0.0,0.0,0.0,0.0,0.0,0.0,0.0,0.0,0.0,-2.4605,0.0,0.0,0.0,0.0,0.0,0.0,0.0,0.0,0.0,0.0,0.0,0.0,0.0,0.0,-3.7033,-3.9083,-4.0075,-4.0687,0.0,0.0,-4.0786,-4.0644,-3.9378,-3.7974,0.0,0.0,0.0,0.0,0.0,0.0,0.0,0.0,0.0,0.0,0.0,0.0,0.0,0.0,0.0,0.0,0.0,0.0,0.0,0.0,0.0,0.0,0.0,0.0,0.0,0.0,0.0,0.0,0.0,0.0,0.0,0.0,0.0,0.0,0.0,0.0,0.0,0.0,0.0,0.0,0.0,0.0,0.0,0.0,0.0,0.0,0.0,0.0,0.0,0.0,0.0,0.0,0.0,0.0,-4.5534,-4.983,-5.2266,-5.4465,-5.6562,-5.6733,-5.6874,-5.705,-5.5587,-5.3782,0.0,0.0,0.0,0.0,0.0,0.0,0.0,0.0,0.0,0.0,0.0,0.0,0.0,0.0,0.0,0.0,0.0,0.0,0.0,0.0,0.0,0.0,0.0,0.0,0.0,0.0,0.0,0.0,0.0,0.0,0.0,0.0,0.0,0.0,0.0,0.0,0.0,0.0,0.0,0.0,0.0,-3.8075,-4.0108,-4.1347,-4.2065,0.0,-4.1943,-4.1802,-4.1765,-4.0643,-3.9338,-3.8004,0.0,0.0,0.0,0.0,0.0,0.0,0.0,0.0,0.0,0.0,0.0,0.0,0.0,0.0,0.0,0.0,0.0,0.0,0.0,0.0,0.0,0.0,0.0,0.0,0.0,0.0,0.0,0.0,0.0,0.0,0.0,0.0,0.0,0.0,0.0,0.0,0.0,0.0,0.0,0.0,0.0,0.0,0.0,0.0,0.0,0.0,0.0,0.0,0.0,0.0,0.0,0.0,0.0,-4.6109,-5.0033,-5.2773,-5.504,-5.6731,-5.7239,-5.7512,-5.7584,-5.6601,-5.5042,0.0,0.0,0.0,0.0,0.0,0.0,0.0,0.0,0.0,0.0,0.0,0.0,0.0,0.0,0.0,0.0,0.0,0.0,0.0,0.0,0.0,0.0,0.0,0.0,0.0,0.0,0.0,0.0,-3.1052,-3.2166,-3.1868,0.0,0.0,0.0,0.0,0.0,0.0,0.0,0.0,0.0,0.0,-3.938,-4.1492,-4.2879,0.0,0.0,-4.3892,-4.3533,-4.3416,-4.2303,-4.1009,-3.9649,-3.7214,0.0,0.0,0.0,0.0,0.0,0.0,0.0,0.0,0.0,0.0,0.0,0.0,0.0,0.0,0.0,0.0,0.0,0.0,0.0,0.0,0.0,0.0,0.0,0.0,0.0,0.0,0.0,0.0,0.0,0.0,0.0,0.0,0.0,0.0,0.0,0.0,0.0,0.0,0.0,0.0,0.0,0.0,0.0,0.0,0.0,0.0,0.0,0.0,0.0,0.0,0.0,0.0,-4.6853,-5.0744,-5.3518,-5.5649,-5.707,-5.7611,-5.7881,-5.7848,-5.7205,-5.5886,0.0,0.0,0.0,0.0,0.0,0.0,0.0,0.0,0.0,0.0,0.0,0.0,0.0,0.0,0.0,0.0,0.0,0.0,0.0,0.0,0.0,0.0,0.0,0.0,0.0,0.0,0.0,0.0,-3.1931,-3.2587,-3.2312,0.0,0.0,0.0,0.0,0.0,0.0,0.0,0.0,0.0,0.0,-4.071,-4.2632,-4.3938,-4.4918,-4.5421,-4.509,-4.4689,-4.4347,-4.3389,-4.2261,-4.0905,0.0,0.0,0.0,0.0,0.0,0.0,0.0,0.0,0.0,0.0,0.0,0.0,0.0,0.0,0.0,0.0,0.0,0.0,0.0,0.0,0.0,0.0,0.0,0.0,0.0,0.0,0.0,-4.2446,0.0,0.0,-4.0348,0.0,0.0,0.0,0.0,0.0,0.0,0.0,0.0,0.0,0.0,0.0,0.0,0.0,0.0,0.0,0.0,0.0,0.0,0.0,0.0,0.0,0.0,-4.7834,-5.2198,-5.4499,-5.6393,-5.778,-5.7881,-5.7881,-5.7881,-5.7205,-5.6089,-5.4566,0.0,0.0,0.0,0.0,0.0,0.0,0.0,0.0,0.0,0.0,0.0,0.0,0.0,0.0,0.0,0.0,0.0,0.0,0.0,0.0,0.0,0.0,0.0,0.0,0.0,0.0,-3.1997,-3.2698,-3.2732,0.0,0.0,0.0,0.0,0.0,0.0,0.0,0.0,0.0,-3.7464,-4.0073,-4.2088,-4.3425,-4.4401,-4.5126,-4.5334,-4.5304,-4.5065,-4.4466,-4.3808,-4.294,0.0,0.0,0.0,0.0,0.0,0.0,0.0,0.0,0.0,0.0,0.0,0.0,0.0,0.0,0.0,0.0,0.0,0.0,0.0,0.0,0.0,0.0,0.0,0.0,0.0,0.0,0.0,-4.6979,-4.5879,0.0,0.0,0.0,0.0,0.0,0.0,0.0,0.0,0.0,0.0,0.0,-5.1032,-5.0974,0.0,0.0,0.0,0.0,0.0,0.0,0.0,0.0,0.0,0.0,0.0,0.0,-4.8883,-5.2232,-5.4566,-5.6427,-5.7814,-5.7881,-5.7881,-5.7881,-5.7645,-5.6596,-5.4634,0.0,0.0,0.0,0.0,0.0,0.0,0.0,0.0,0.0,0.0,0.0,0.0,0.0,0.0,0.0,0.0,0.0,0.0,0.0,0.0,0.0,0.0,0.0,0.0,0.0,-3.2434,0.0,0.0,0.0,0.0,0.0,0.0,0.0,0.0,0.0,0.0,0.0,-3.7367,-3.9475,-4.1759,-4.365,-4.4768,-4.5605,-4.6191,0.0,0.0,0.0,0.0,0.0,0.0,0.0,0.0,0.0,0.0,0.0,0.0,0.0,0.0,-3.6763,-3.4211,-3.3759,-3.3759,-3.3759,0.0,0.0,0.0,0.0,0.0,0.0,0.0,0.0,0.0,0.0,0.0,0.0,0.0,0.0,-5.114,0.0,-4.8935,0.0,0.0,0.0,0.0,0.0,0.0,0.0,0.0,-5.1936,-5.3267,-5.3883,-5.3818,-5.3378,0.0,-5.1959,-5.0062,0.0,0.0,0.0,0.0,0.0,0.0,0.0,0.0,-5.0135,-5.3044,-5.5074,-5.6664,-5.7814,-5.7881,-5.7881,-5.7881,-5.7645,-5.6833,-5.5412,-5.3213,-5.061,0.0,0.0,0.0,0.0,0.0,0.0,0.0,0.0,0.0,0.0,0.0,0.0,0.0,0.0,0.0,0.0,0.0,0.0,0.0,0.0,0.0,0.0,0.0,-3.4122,0.0,0.0,0.0,0.0,0.0,0.0,0.0,0.0,0.0,-3.5061,-3.7439,-3.9876,-4.1833,-4.35,-4.4922,-4.5799,0.0,0.0,0.0,0.0,0.0,0.0,0.0,-4.5424,-4.4766,-4.4287,-4.3808,-4.315,-4.288,-4.2761,-4.277,0.0,0.0,-3.8382,-3.7661,-3.7661,-3.7558,-3.7322,-3.7084,-3.684,-3.6836,-3.6887,0.0,0.0,0.0,0.0,0.0,0.0,0.0,0.0,-5.4927,-5.5088,0.0,-5.2742,0.0,0.0,0.0,0.0,-4.7723,-4.971,0.0,0.0,-5.4393,-5.5485,-5.6029,-5.6028,-5.5586,-5.4702,-5.46,-5.4228,-5.3281,-4.9866,0.0,0.0,0.0,0.0,0.0,0.0,-5.1623,-5.4532,-5.6021,-5.7137,-5.7848,-5.7881,-5.7881,-5.7848,-5.7239,-5.6867,-5.6765,-5.4769,-5.2909,-5.132,-4.7497,0.0,0.0,0.0,0.0,0.0,0.0,0.0,0.0,0.0,0.0,0.0,0.0,0.0,0.0,0.0,0.0,0.0,0.0,0.0,0.0,-3.5582,0.0,0.0,0.0,0.0,0.0,0.0,0.0,0.0,0.0,0.0,-3.8808,-4.0344,-4.2198,-4.4322,0.0,0.0,0.0,0.0,-4.7005,-4.7296,-4.7309,-4.707,-4.6471,-4.6352,-4.61,-4.5484,0.0,0.0,-4.4586,-4.5005,-4.5424,-4.5424,-4.6411,-4.6142,-4.2372,-4.1624,-4.1488,-4.1267,-4.1151,-4.089,-4.0313,-4.0087,-4.0129,-6.0309,0.0,0.0,0.0,0.0,-5.7437,-5.8097,-5.866,-5.9176,-5.9001,-5.8319,-5.7316,0.0,0.0,0.0,0.0,0.0,0.0,-5.3482,-5.4907,-5.5856,-5.6704,-5.7347,-5.7345,-5.6972,-5.619,-5.6156,-5.5784,-5.5074,-5.3991,-5.2131,-4.9661,0.0,0.0,0.0,0.0,-5.2909,-5.5277,-5.6325,-5.7137,-5.7881,-5.7881,-5.7881,-5.7881,-5.7679,-5.7577,-5.7577,-5.6461,-5.5175,-5.3653,-5.079,0.0,0.0,0.0,0.0,0.0,0.0,0.0,0.0,0.0,0.0,0.0,0.0,0.0,0.0,0.0,0.0,0.0,0.0,0.0,-3.8299,-3.8525,-3.8151,0.0,0.0,0.0,0.0,0.0,0.0,0.0,0.0,0.0,-4.3169,-4.3688,-4.4359,0.0,0.0,-4.714,-4.7496,-4.757,-4.7703,-4.7997,-4.7608,0.0,-4.707,-4.701,-4.695,-4.677,-4.71,-4.7519,-4.7818,-4.8027,-4.8161,-4.8117,-4.8446,-4.8252,-4.7062,-4.5947,-4.531,-4.5196,-4.4814,-4.4239,-4.3617,-4.3085,-4.2608,-6.3686,-6.1496,-6.0382,-5.9905,-5.9979,-6.0786,-6.141,-6.19,-6.2391,-6.2308,-6.1693,-6.078,-5.9395,-5.7732,-5.6676,0.0,0.0,0.0,-5.6227,-5.7036,-5.778,-5.8355,-5.8761,-5.8761,-5.8558,-5.8118,-5.8118,-5.7712,-5.7036,-5.7036,-5.5818,-5.3484,0.0,-5.2097,-5.257,-5.3281,-5.4465,-5.6089,-5.6867,-5.7442,-5.7881,-5.7881,-5.7881,-5.7881,-5.7881,-5.7881,-5.7881,-5.7476,-5.6697,-5.5513,-5.3313,-5.0159,0.0,0.0,0.0,0.0,0.0,0.0,0.0,0.0,0.0,0.0,0.0,-3.0633,-3.1953,0.0,0.0,0.0,-3.6719,-3.881,-4.1323,-4.0847,0.0,0.0,0.0,0.0,0.0,0.0,0.0,-4.0414,-4.2054,-4.3718,-4.5454,-4.5836,-4.6049,-4.6466,-4.7302,-4.7911,-4.8045,0.0,-4.8432,-4.8327,-4.7967,-4.7608,-4.7339,-4.7519,-4.7758,-4.8057,-4.8416,-4.882,-4.9209,-4.9464,-4.9643,-4.9673,-4.9853,-4.994,-4.971,-4.8827,-4.7906,-4.7344,-4.6894,-4.6384,-4.5688,-4.5217,-4.4779,-6.6145,-6.5375,-6.3833,-6.311,-6.3099,-6.387,-6.42,-6.4321,-6.4692,-6.4913,-6.4785,-6.3387,-6.2594,-6.2215,-6.0369,0.0,-5.7913,-5.8929,-5.9251,-5.9133,-5.9776,-6.008,-6.008,-6.008,-6.008,-6.008,-6.008,-5.9742,-5.9099,-5.9066,-5.8423,-5.707,-5.5716,-5.4972,-5.4871,-5.5581,-5.6325,-5.707,-5.7679,-5.7949,-5.7881,-5.7881,-5.7881,-5.7881,-5.7881,-5.7881,-5.7881,-5.7881,-5.7577,-5.6867,-5.5127,-5.2732,-4.9593,0.0,0.0,0.0,0.0,0.0,0.0,0.0,0.0,0.0,0.0,0.0,0.0,0.0,0.0,-3.759,-3.99,0.0,-4.3256,-4.2794,0.0,0.0,0.0,-3.9929,-4.0152,-4.0637,-4.1641,-4.3536,0.0,0.0,-4.6322,-4.692,-4.7339,-4.7369,-4.7908,-4.8297,-4.8356,-4.8895,-4.912,-4.8596,-4.8416,-4.8147,-4.7698,-4.8027,-4.8566,-4.9164,-4.9389,-4.9419,-4.9539,-4.9912,-5.0255,-5.0255,-5.0764,-5.1028,-5.0822,-5.0246,-4.961,-4.8072,-4.7728,-4.7538,-4.6832,-4.6563,-4.6409,-6.7283,-6.71,-6.6696,-6.5852,-6.4751,-6.4934,-6.5375,-6.5899,-6.5788,-6.5715,-6.5651,-6.4997,-6.3974,-6.2722,-6.1733,-6.0878,-6.0213,-6.0191,-6.0065,-5.9844,-6.0013,-6.008,-6.008,-6.008,-6.008,-6.008,-6.008,-6.0013,-5.9844,-5.9844,-5.9674,-5.9302,-5.8964,-5.822,-5.7171,-5.7848,-5.8592,-5.9302,-5.893,-5.8457,-5.7915,-5.7881,-5.7881,-5.7881,-5.7881,-5.7881,-5.7881,-5.7881,-5.7814,-5.7611,-5.6404,-5.4434,-5.175,-4.8754,0.0,0.0,0.0,0.0,0.0,0.0,0.0,0.0,0.0,-3.6366,-3.7778,0.0,-4.1052,0.0,-4.3671,-4.521,-4.5712,-4.5179,0.0,0.0,-4.3366,-4.2796,-4.2719,-4.3274,-4.3978,-4.4788,-4.5574,-4.6322,-4.698,-4.7219,-4.7489,-4.7967,-4.8177,-4.8476,-4.8955,-4.9209,-4.9404,-4.9643,-4.9344,-4.903,-4.888,-4.897,-4.9254,-4.9912,-5.0002,-5.0182,-5.0661,-5.087,-5.0943,-5.0943,-5.0892,-5.0822,-5.0614,-5.0135,-4.9533,-4.8804,-4.8473,-4.8133,-4.751,-4.72,-4.6919,-6.8017,-6.7687,-6.7687,-6.7173,-6.6366,-6.6366,-6.6623,-6.7026,-6.6747,-6.6609,-6.649,-6.601,-6.5223,-6.4166,-6.3541,-6.2962,-6.2361,-6.2032,-6.1698,-6.1397,-6.1321,-6.1244,-6.1244,-6.1168,-6.1129,-6.1129,-6.1129,-6.096,-6.0655,-6.0622,-6.0452,-6.0114,-6.0452,-6.0216,-5.9438,-5.9471,-5.9708,-6.008,-5.9404,-5.8795,-5.8389,-5.8051,-5.7881,-5.7881,-5.7881,-5.7845,-5.7772,-5.7772,-5.7735,-5.7625,-5.685,-5.5314,-5.2901,-5.0671,-4.7696,0.0,0.0,0.0,0.0,0.0,0.0,0.0,0.0,0.0,0.0,0.0,-4.3544,-4.4878,-4.6385,-4.7459,-4.7937,-4.7282,-4.6773,-4.672,-4.602,-4.5585,-4.565,-4.601,-4.6479,-4.7023,-4.7399,-4.7788,-4.8117,-4.8177,-4.8297,-4.8686,-4.8716,-4.8955,-4.9583,-4.9942,-5.0182,-5.0166,-4.9942,-4.9703,-4.9703,-4.9703,-4.9942,-5.0511,-5.0644,-5.0764,-5.1122,-5.1105,-5.1011,-5.1011,-5.0822,-5.0567,-5.0231,-4.9844,-4.9355,-4.8859,-4.8509,-4.8217,-4.7935,-4.77,-4.7488,-6.8605,-6.7834,-6.7834,-6.7797,-6.7714,-6.7824,-6.7797,-6.7687,-6.7552,-6.7387,-6.7182,-6.6632,-6.6177,-6.58,-6.528,-6.474,-6.4111,-6.3785,-6.3452,-6.3042,-6.2847,-6.277,-6.277,-6.2576,-6.2459,-6.2459,-6.2459,-6.2115,-6.1506,-6.1434,-6.1095,-6.0452,-6.1095,-6.1434,-6.14,-6.0757,-6.0351,-6.025,-5.9641,-5.9201,-5.8998,-5.8355,-5.7983,-5.7881,-5.7881,-5.7772,-5.7625,-5.7551,-5.7439,-5.7252,-5.6872,-5.5671,-5.3535,-5.1907,-4.9512,0.0,-4.4138,0.0,0.0,0.0,0.0,0.0,0.0,0.0,0.0,-4.4098,-4.5681,-4.7548,-4.8418,-4.9127,-4.9701,-4.9028,-4.8651,-4.8997,-4.8313,-4.8006,-4.8371,-4.8416,-4.8626,-4.9269,-4.9299,-4.9299,-4.9269,-4.9299,-4.9329,-4.9374,-4.9404,-4.9643,-5.0196,-5.072,-5.0734,-5.0345,-5.0315,-5.0361,-5.0315,-5.0315,-5.0495,-5.1079,-5.1169,-5.1182,-5.1105,-5.0964,-5.0775,-5.0728,-5.0519,-5.0231,-4.9717,-4.9404,-4.9058,-4.8581,-4.8308,-4.8106,-4.8106,-4.8078,-4.8083,-6.9412,-6.8678,-6.8678,-6.8311,-6.776,-6.8385,-6.8311,-6.7687,-6.7552,-6.7387,-6.7182,-6.6954,-6.6602,-6.611,-6.5604,-6.5011,-6.4323,-6.4002,-6.3675,-6.3489,-6.3265,-6.3189,-6.3186,-6.3,-6.2885,-6.2885,-6.2693,-6.2547,-6.2411,-6.2256,-6.211,-6.1975,-6.211,-6.2178,-6.2178,0.0,0.0,0.0,-6.096,-6.025,-5.9066,-5.8863,-5.8524,-5.7915,-5.7735,0.0,-5.7588,-5.7289,-5.7101,-5.7063,-5.668,0.0,0.0,0.0,0.0,0.0,0.0,0.0,0.0,0.0,0.0,0.0,-4.539,-4.5256,-4.5103,-4.6717,-4.8398,-4.9916,-5.0236,-5.0273,-5.0192,-4.9913,-4.962,-4.9491,-4.9178,-4.9,-4.912,-4.912,-4.9179,-4.9269,-4.9299,-4.9329,-4.9359,-4.9299,-4.9494,-4.9972,-5.0016,-5.0285,-5.0883,-5.0674,-5.0554,-5.0853,-5.099,-5.102,-5.1003,-5.0973,-5.0973,-5.1199,-5.1229,-5.1135,-5.0917,-5.0793,-5.0632,-5.0327,-5.0038,-4.9746,-4.9404,-4.9009,-4.8631,-4.8559,-4.8308,-4.8083,-4.8083,-4.8083,-4.8083,-7.022,-6.9522,-6.9486,-6.9265,0.0,-6.9302,-6.9265,-6.8898,-6.8779,-6.8449,-6.7943,-6.7773,-6.7259,-6.6482,-6.6048,-6.5504,-6.4944,-6.4602,-6.4287,-6.4002,-6.3785,-6.3602,-6.3452,-6.3227,-6.3038,-6.2847,-6.2731,-6.2688,-6.2537,-6.242,-6.2415,-6.2415,-6.2415,-6.2415,-6.2415,-6.2415,-6.2212,-6.1839,-6.1501,-6.0926,-6.0182,-5.9742,-5.9201,-5.849,-5.8272,0.0,0.0,0.0,0.0,0.0,0.0,0.0,0.0,0.0,0.0,-5.0466,-4.9145,-4.8225,-4.7808,-4.7309,-4.7439,-4.8326,-4.8845,-4.8655,-4.7528,-4.9086,-5.042,-5.1141,-5.1598,-5.1814,-5.1652,-5.1283,-5.0925,-5.0789,-5.0471,-5.0242,-5.0242,-5.0242,-5.0212,-5.0242,-5.0242,-5.0242,-5.0242,-5.0242,-5.0361,-5.0661,-5.0674,-5.0794,-5.1063,-5.0883,-5.087,-5.1169,-5.1229,-5.1229,-5.1229,-5.1229,-5.1135,-5.1058,-5.1011,-5.0917,-5.071,-5.0442,-5.0154,-4.9941,-4.96,-4.9227,-4.8959,-4.8681,-4.8431,-4.8308,-4.8207,-4.8083,-4.8083,-4.8083,-4.8083,-7.1064,-7.0293,-7.0293,-7.022,-7.011,-7.0257,-7.0403,-7.0513,-7.022,0.0,0.0,-6.8556,-6.789,-6.6852,-6.6416,-6.5981,-6.5575,-6.518,-6.4877,-6.4533,-6.4288,-6.4038,-6.3712,-6.3526,-6.3189,-6.2842,-6.2804,-6.2688,-6.2459,-6.242,-6.2415,-6.2415,-6.2415,-6.2415,-6.2415,-6.2415,-6.2415,-6.2381,-6.1806,-6.1434,-6.1298,-6.0655,-5.9945,-5.9235,-5.8875,-5.8203,-5.7258,-5.6785,-5.6369,-5.6006,-5.5572,-5.5101,-5.4471,-5.3821,-5.2886,-5.1773,-5.1349,-5.0911,-5.0342,-5.0119,-5.0313,-5.0995,-5.1351,-5.1107,-4.9965,-5.1079,-5.1889,-5.1982,-5.267,-5.3086,-5.3086,-5.2458,-5.2002,-5.2002,-5.1509,-5.1199,-5.1199,-5.1229,-5.1169,-5.1229,-5.1169,-5.1229,-5.1169,-5.1169,-5.1229,-5.1199,-5.1169,-5.1289,-5.1349,-5.1289,-5.1229,-5.1409,-5.1498,-5.1468,-5.1558,-5.1553,-5.1416,-5.1316,-5.119,-5.0988,-5.0728,-5.034,-5.0017,-4.9936,-4.9452,-4.9123,-4.8708,-4.8607,-4.8471,-4.8134,-4.8083,-4.8083,-4.8083,-4.8083,-4.8083,-7.1872,-7.1109,-7.1138,-7.0734,-7.0146,-7.0844,-7.1541,-7.2055,-7.0697,-6.9669,-6.8871,-6.8844,-6.8117,-6.6961,-6.6595,-6.6238,-6.5772,-6.5415,-6.5216,-6.5182,-6.4775,-6.4498,-6.4252,-6.3965,-6.36,-6.3227,-6.3038,-6.2847,-6.2688,-6.2493,-6.2415,-6.2415,-6.2415,-6.2415,-6.2415,-6.2415,-6.2415,-6.2381,-6.2279,-6.1941,-6.1332,-6.1197,-6.0757,-5.9979,-5.8959,-5.8284,-5.7919,-5.681,-5.5966,-5.5531,-5.5278,-5.504,-5.4736,-5.3911,-5.3331,-5.3108,-5.2331,-5.1828,-5.1733,-5.1692,-5.1893,-5.2345,-5.2332,-5.2161,-5.2013,-5.2168,-5.2542,-5.3072,-5.3126,-5.3086,-5.3042,-5.2458,-5.2002,-5.1956,-5.1509,-5.1229,-5.1229,-5.1229,-5.1229,-5.1229,-5.1229,-5.1229,-5.1229,-5.1229,-5.1229,-5.1229,-5.1289,-5.1439,-5.1858,-5.1588,-5.1498,-5.1917,-5.2067,-5.2306,-5.2636,-5.2711,-5.2445,-5.2515,-5.2181,-5.1826,-5.1329,-5.1178,-5.0875,-5.0378,-5.0138,-4.9761,-4.9136,-4.8893,-4.8775,-4.8387,-4.8274,-4.8139,-4.8139,-4.8111,-4.8083,-7.2275,-7.1982,-7.1945,-7.1725,-7.1431,-7.1798,-7.2165,-7.2422,-7.1725,-7.0954,-7.0229,-7.0192,-6.9575,-6.856,-6.8232,-6.768,-6.6947,-6.6539,-6.6067,-6.5545,-6.5216,-6.4809,-6.4393,-6.4145,-6.3747,-6.3152,-6.3038,-6.2847,-6.2537,-6.242,-6.2415,-6.2415,-6.2415,-6.2415,-6.2415,-6.2415,-6.2415,-6.2415,-6.2415,-6.2212,-6.1907,-6.1907,-6.1535,-6.0757,-6.0001,-5.9042,-5.7963,-5.712,-5.6238,-5.5278,-5.5031,-5.4822,-5.4581,-5.4084,-5.3798,-5.3756,-5.3387,-5.3123,-5.3155,-5.3155,-5.3239,-5.3438,-5.3373,-5.333,-5.3298,-5.3201,-5.3314,-5.3596,-5.3409,-5.3233,-5.3055,-5.2427,-5.1926,-5.1787,-5.1416,-5.1229,-5.1229,-5.1229,-5.1229,-5.1229,-5.1229,-5.1229,-5.1229,-5.1229,-5.1229,-5.1259,-5.1498,-5.1977,-5.2636,-5.2486,-5.2366,-5.2665,-5.2725,-5.2845,-5.3144,-5.3009,-5.2684,-5.2437,-5.2168,-5.1765,-5.1257,-5.1052,-5.0795,-5.0484,-5.0303,-5.0005,-4.9567,-4.9539,-4.9398,-4.923,-4.8808,-4.8668,-4.856,-4.8336,-4.8083,-7.2532,-7.2532,-7.2532,-7.2532,-7.2532,-7.2532,-7.2532,-7.2532,-7.2496,-7.2165,-7.1586,-7.1394,-7.0796,-6.9921,-6.9588,-6.9025,-6.8277,-6.7739,-6.71,-6.6407,-6.5977,-6.5508,-6.5023,-6.481,-6.4302,-6.3589,-6.3478,-6.3217,-6.2691,-6.2651,-6.255,-6.2415,-6.2415,-6.2415,-6.2415,-6.2415,-6.2415,-6.2415,-6.2415,-6.2415,-6.2415,-6.2415,-6.211,-6.1564,-6.0942,-5.9837,-5.8376,-5.7573,-5.658,-5.5361,-5.496,-5.4655,-5.4327,-5.4189,-5.4103,-5.4103,-5.4103,-5.4103,-5.4103,-5.4103,-5.4103,-5.4103,-5.4103,-5.4103,-5.4103,-5.3919,-5.3789,-5.3789,-5.354,-5.329,-5.2922,-5.2535,-5.2122,-5.189,-5.173,-5.1738,-5.1678,-5.1528,-5.1439,-5.1439,-5.1319,-5.1229,-5.1229,-5.1349,-5.1558,-5.1768,-5.2127,-5.2665,-5.3264,-5.3414,-5.3443,-5.3563,-5.3503,-5.3484,-5.3544,-5.3387,-5.3018,-5.2427,-5.218,-5.1857,-5.139,-5.1019,-5.0833,-5.0784,-5.0597,-5.0435,-5.0294,-5.0238,-5.0125,-4.9928,-4.9511,-4.9258,-4.923,-4.8729,-4.8252,-7.2532,-7.2532,-7.2532,-7.2532,-7.2532,-7.2532,-7.2532,-7.2532,-7.2532,-7.2496,-7.2312,-7.1651,-7.0832,-6.9958,-6.9712,-6.9441,-6.9062,-6.8656,-6.8331,-6.807,-6.7643,-6.7164,-6.6636,-6.638,-6.5821,-6.5026,-6.4908,-6.4336,-6.3429,-6.3396,-6.3057,-6.2482,-6.2415,-6.2415,-6.2415,-6.2415,-6.2415,-6.2415,-6.2415,-6.2415,-6.2415,-6.2415,-6.2347,-6.2313,-6.1211,-6.0338,-5.9669,-5.81,-5.6767,-5.5804,-5.5133,-5.4603,-5.4189,-5.4103,-5.4103,-5.4103,-5.4103,-5.4103,-5.4103,-5.4103,-5.4103,-5.4103,-5.4103,-5.4103,-5.4103,-5.3919,-5.3789,-5.3734,-5.3571,-5.3219,-5.2774,-5.2795,-5.2742,-5.2567,-5.272,-5.2995,-5.2845,-5.2486,-5.2097,-5.2097,-5.1678,-5.1229,-5.1409,-5.1798,-5.2336,-5.2845,-5.2995,-5.3354,-5.3982,-5.4132,-5.4281,-5.467,-5.4521,-5.4301,-5.4428,-5.4331,-5.3825,-5.3367,-5.3087,-5.2579,-5.2014,-5.1881,-5.1915,-5.1415,-5.1504,-5.1253,-5.0944,-5.0829,-5.066,-5.0379,-5.0125,-4.9928,-4.9844,-4.937,-4.8836,-7.2532,-7.2532,-7.2532,-7.2532,-7.2532,-7.2532,-7.2532,-7.2532,-7.2532,-7.2532,-7.2496,-7.2165,-7.1806,-7.1427,-7.1246,-7.0814,-7.0138,-6.9673,-6.9074,-6.8389,-6.7822,-6.7341,-6.6809,-6.6442,-6.588,-6.5221,-6.5102,-6.4727,-6.418,-6.3734,-6.3125,-6.2482,-6.2415,-6.2415,-6.2415,-6.2415,-6.2415,-6.2415,-6.2415,-6.2415,-6.2415,-6.2415,-6.2415,-6.2341,-6.1682,-6.0839,-5.9967,-5.8593,-5.7214,-5.589,-5.5165,-5.4571,-5.4146,-5.4103,-5.4103,-5.4103,-5.4103,-5.4103,-5.4103,-5.4103,-5.4103,-5.4103,-5.4103,-5.406,-5.3931,-5.3833,-5.3772,-5.3748,-5.3675,-5.3419,-5.3086,-5.3202,-5.3248,-5.3008,-5.3073,-5.3174,-5.3174,-5.2935,-5.2785,-5.2755,-5.2546,-5.2366,-5.2396,-5.2606,-5.3054,-5.3623,-5.3803,-5.4042,-5.464,-5.479,-5.491,-5.5089,-5.4839,-5.4658,-5.4743,-5.4363,-5.3919,-5.3343,-5.2865,-5.2411,-5.2113,-5.195,-5.1896,-5.1787,-5.1787,-5.1731,-5.1478,-5.1421,-5.1309,-5.0944,-5.0688,-5.0463,-5.0069,-4.9764,-4.9454,-7.2532,-7.2532,-7.2532,-7.2532,-7.2532,-7.2532,-7.2532,-7.2532,-7.2532,-7.2532,-7.2532,-7.2532,-7.2532,-7.2467,-7.2416,-7.1904,-7.1155,-7.0692,-6.9993,-6.9033,-6.8462,-6.7905,-6.733,-6.6922,-6.6428,-6.5875,-6.567,-6.5291,-6.4857,-6.3937,-6.3226,-6.2753,-6.2482,-6.2415,-6.2415,-6.2415,-6.2415,-6.2415,-6.2415,-6.2415,-6.2415,-6.2415,-6.2415,-6.2341,-6.1911,-6.128,-6.0414,-5.9194,-5.7809,-5.6253,-5.5495,-5.4794,-5.4146,-5.4103,-5.4103,-5.4103,-5.4103,-5.4103,-5.4103,-5.4103,-5.4103,-5.4103,-5.4103,-5.4017,-5.3833,-5.3659,-5.3663,-5.3713,-5.3684,-5.3574,-5.3418,-5.3663,-5.3736,-5.3522,-5.3593,-5.3713,-5.3743,-5.3593,-5.3473,-5.3443,-5.3234,-5.3294,-5.3414,-5.3473,-5.3713,-5.4311,-5.4491,-5.4581,-5.5059,-5.5179,-5.5179,-5.5179,-5.4976,-5.4773,-5.4619,-5.4178,-5.3605,-5.3078,-5.2544,-5.2195,-5.1841,-5.1841,-5.1787,-5.1787,-5.1787,-5.1759,-5.1674,-5.1731,-5.1759,-5.1674,-5.1393,-5.0972,-5.0744,-5.0435,-5.0294,-7.2532,-7.2532,-7.2532,-7.2532,-7.2532,-7.2532,-7.2532,-7.2532,-7.2532,-7.2532,-7.2532,-7.2532,-7.2532,-7.2496,-7.2467,-7.2285,-7.1915,-7.1511,-7.1031,-7.0396,-6.9954,-6.942,-6.8903,-6.8486,-6.7945,-6.7202,-6.6957,-6.6445,-6.5527,-6.4241,-6.3497,-6.3429,-6.2753,-6.2415,-6.2415,-6.2415,-6.2415,-6.2415,-6.2415,-6.2415,-6.2415,-6.2415,-6.2381,-6.2341,-6.1911,-6.1554,-6.1135,-5.996,-5.8577,-5.7174,-5.6178,-5.524,-5.4241,-5.4103,-5.4103,-5.4103,-5.4103,-5.4103,-5.4103,-5.4103,-5.4103,-5.4103,-5.4103,-5.4017,-5.3746,-5.3383,-5.3369,-5.3637,-5.3705,-5.3658,-5.373,-5.4194,-5.4409,-5.4241,-5.47,-5.494,-5.5029,-5.4461,-5.4192,-5.4072,-5.3713,-5.3653,-5.4102,-5.4162,-5.4431,-5.488,-5.5119,-5.5119,-5.5149,-5.5209,-5.5209,-5.5158,-5.4976,-5.4671,-5.4385,-5.3867,-5.3343,-5.2865,-5.2437,-5.2141,-5.195,-5.1787,-5.1787,-5.1787,-5.1787,-5.1787,-5.1787,-5.1787,-5.1787,-5.1759,-5.1731,-5.1478,-5.1253,-5.1084,-5.0916,-7.2532,-7.2532,-7.2532,-7.2532,-7.2532,-7.2532,-7.2532,-7.2532,-7.2532,-7.2532,-7.2532,-7.2532,-7.2532,-7.2496,-7.238,-7.2174,-7.1842,-7.1531,-7.0979,-7.041,-7.0062,-6.9525,-6.8819,-6.8397,-6.7999,-6.7475,-6.7139,-6.6524,-6.5703,-6.4681,-6.3971,-6.3429,-6.2753,-6.2415,-6.2415,-6.2415,-6.2415,-6.2415,-6.2415,-6.2415,-6.2381,-6.2415,-6.2341,-6.215,-6.187,-6.1465,-6.0969,-5.99,-5.859,-5.7066,-5.6231,-5.5272,-5.4283,-5.4103,-5.4103,-5.4103,-5.4103,-5.4103,-5.4103,-5.4103,-5.4103,-5.4103,-5.3974,-5.3833,-5.3603,-5.3472,-5.3576,-5.3802,-5.4122,-5.4326,-5.463,-5.485,-5.495,-5.493,-5.5059,-5.5209,-5.5149,-5.497,-5.485,-5.482,-5.4581,-5.461,-5.467,-5.482,-5.494,-5.5119,-5.5209,-5.5209,-5.5209,-5.5209,-5.5239,-5.5158,-5.5006,-5.4819,-5.5004,-5.3914,-5.3078,-5.2705,-5.2358,-5.2061,-5.1843,-5.1927,-5.1983,-5.2068,-5.1983,-5.2012,-5.2096,-5.2068,-5.2012,-5.1983,-5.1955,-5.2068,-5.1759,-5.1646,-5.1534,-7.2532,-7.2532,-7.2532,-7.2532,-7.2532,-7.2532,-7.2532,-7.2532,-7.2532,-7.2532,-7.2532,-7.2532,-7.2467,-7.2446,-7.2263,-7.1994,-7.1625,-7.1372,-7.0916,-7.0237,-6.9991,-6.9489,-6.8743,-6.828,-6.7879,-6.7475,-6.7022,-6.6542,-6.6034,-6.529,-6.458,-6.3869,-6.3125,-6.2618,-6.2448,-6.2415,-6.2415,-6.2415,-6.2415,-6.2381,-6.2268,-6.2302,-6.207,-6.175,-6.1547,-6.1301,-6.0802,-6.0004,-5.8775,-5.7216,-5.6456,-5.5527,-5.4272,-5.4103,-5.4103,-5.4103,-5.4103,-5.4103,-5.4103,-5.4103,-5.406,-5.4017,-5.3876,-5.369,-5.3512,-5.3528,-5.3759,-5.4079,-5.4285,-5.466,-5.505,-5.5179,-5.5209,-5.5209,-5.5209,-5.5209,-5.5209,-5.5179,-5.5179,-5.5149,-5.5119,-5.5149,-5.5209,-5.5179,-5.5179,-5.5209,-5.5209,-5.5239,-5.5448,-5.5508,-5.5628,-5.5777,-5.5692,-5.556,-5.5512,-5.4783,-5.3996,-5.3534,-5.2984,-5.2514,-5.2264,-5.2293,-5.2293,-5.2349,-5.2377,-5.2377,-5.2377,-5.2377,-5.2377,-5.2349,-5.2545,-5.277,-5.2489,-5.2264,-5.2152,-7.2532,-7.2532,-7.2532,-7.2532,-7.2532,-7.2532,-7.2532,-7.2532,-7.2532,-7.2532,-7.2532,-7.2532,-7.2446,-7.2299,-7.2114,-7.178,-7.1372,-7.1243,-7.085,-7.0202,-6.9991,-6.9452,-6.867,-6.828,-6.7879,-6.7394,-6.7022,-6.6812,-6.6677,-6.5974,-6.5263,-6.4586,-6.3808,-6.3063,-6.2454,-6.2454,-6.2381,-6.2381,-6.2341,-6.2229,-6.2037,-6.1997,-6.175,-6.121,-6.1127,-6.1044,-6.0961,-6.0378,-5.9101,-5.7399,-5.6915,-5.5973,-5.441,-5.4103,-5.4103,-5.4103,-5.4103,-5.4103,-5.4103,-5.4103,-5.4017,-5.3907,-5.3821,-5.3827,-5.368,-5.3592,-5.3783,-5.4371,-5.4419,-5.4521,-5.5059,-5.5209,-5.5209,-5.5209,-5.5209,-5.5209,-5.5209,-5.5209,-5.5209,-5.5209,-5.5209,-5.5209,-5.5209,-5.5299,-5.5329,-5.5329,-5.5418,-5.5628,-5.6047,-5.6166,-5.6487,-5.6795,-5.6639,-5.6347,-5.6102,-5.5796,-5.5198,-5.4619,-5.3949,-5.3416,-5.322,-5.322,-5.3163,-5.3163,-5.3135,-5.3163,-5.3135,-5.3135,-5.3248,-5.3276,-5.3473,-5.3445,-5.3164,-5.2911,-5.277,-7.2532,-7.2532,-7.2532,-7.2532,-7.2532,-7.2532,-7.2532,-7.2532,-7.2532,-7.2532,-7.2532,-7.2532,-7.2446,-7.227,-7.1994,-7.1656,-7.1276,-7.0916,-7.0478,-7.0062,-6.9778,-6.9342,-6.8708,-6.828,-6.7759,-6.7105,-6.6896,-6.6896,-6.692,-6.6275,-6.561,-6.4943,-6.4149,-6.3323,-6.2644,-6.2459,-6.2341,-6.215,-6.2116,-6.1997,-6.183,-6.179,-6.158,-6.1161,-6.0919,-6.0591,-6.0152,-5.9935,-5.8917,-5.7055,-5.6774,-5.5831,-5.4505,-5.4103,-5.4103,-5.4103,-5.4103,-5.4103,-5.4103,-5.4103,-5.4017,-5.3927,-5.4066,-5.4024,-5.3852,-5.4124,-5.4382,-5.4616,-5.473,-5.4999,-5.5149,-5.5209,-5.5209,-5.5209,-5.5209,-5.5209,-5.5209,-5.5209,-5.5209,-5.5209,-5.5209,-5.5209,-5.5299,-5.5508,-5.5807,-5.5897,-5.6166,-5.6555,-5.6735,-5.6825,-5.6825,-5.7064,-5.6967,-5.7107,-5.6917,-5.6661,-5.6171,-5.5503,-5.4799,-5.4233,-5.4035,-5.4007,-5.3951,-5.3923,-5.3895,-5.3895,-5.3867,-5.3867,-5.4036,-5.3867,-5.381,-5.3754,-5.3726,-5.3613,-5.3416,-7.2532,-7.2532,-7.2532,-7.2532,-7.2532,-7.2532,-7.2532,-7.2532,-7.2532,-7.2532,-7.2532,-7.2532,-7.238,-7.2174,-7.1939,-7.1562,-7.1146,-7.0615,-7.0202,-6.9885,-6.967,-6.9268,-6.8667,-6.8123,-6.7516,-6.6938,-6.6896,-6.7056,-6.7146,-6.6753,-6.6085,-6.521,-6.4506,-6.3679,-6.279,-6.242,-6.215,-6.1997,-6.1837,-6.1669,-6.1465,-6.1383,-6.1136,-6.075,-6.0463,-6.0076,-5.9552,-5.9375,-5.851,-5.6965,-5.6066,-5.5087,-5.4166,-5.4103,-5.4103,-5.4103,-5.4103,-5.4103,-5.4103,-5.4017,-5.4045,-5.4035,-5.4099,-5.4189,-5.4189,-5.463,-5.4733,-5.4909,-5.501,-5.5209,-5.5179,-5.5209,-5.5209,-5.5209,-5.5209,-5.5209,-5.5209,-5.5209,-5.5209,-5.5209,-5.5209,-5.5299,-5.5598,-5.5837,-5.6286,-5.6496,-5.6825,-5.7274,-5.7363,-5.7483,-5.7543,-5.7693,-5.7939,-5.7994,-5.7764,-5.7474,-5.712,-5.6389,-5.5595,-5.5082,-5.471,-5.471,-5.4625,-5.4653,-5.4653,-5.4681,-5.4653,-5.4769,-5.4883,-5.46,-5.4459,-5.4685,-5.4798,-5.426,-5.4007,-7.2532,-7.2532,-7.2532,-7.2532,-7.2532,-7.2532,-7.2532,-7.2532,-7.2532,-7.2532,-7.2532,-7.2532,-7.2321,-7.2018,-7.1842,-7.1499,-7.0979,-7.0444,-7.0097,-6.9884,-6.9634,-6.9231,-6.859,-6.7879,-6.7312,-6.6896,-6.7056,-6.718,-6.7304,-6.7407,-6.6764,-6.5573,-6.5147,-6.4228,-6.3101,-6.2336,-6.2037,-6.1917,-6.1588,-6.1334,-6.1086,-6.0844,-6.0506,-6.0152,-5.9892,-5.9596,-5.9241,-5.8659,-5.7828,-5.6499,-5.5087,-5.4304,-5.4103,-5.4103,-5.4103,-5.4103,-5.4103,-5.4103,-5.406,-5.4045,-5.4047,-5.4295,-5.4219,-5.4067,-5.4679,-5.4782,-5.4899,-5.51,-5.52,-5.5209,-5.5209,-5.5209,-5.5209,-5.5209,-5.5209,-5.5209,-5.5209,-5.5209,-5.5209,-5.5209,-5.5239,-5.5448,-5.6047,-5.6256,-5.6675,-5.7034,-5.7274,-5.7723,-5.7992,-5.8231,-5.8501,-5.862,-5.868,-5.8524,-5.8258,-5.793,-5.7547,-5.6903,-5.6165,-5.5707,-5.5247,-5.5189,-5.5159,-5.5215,-5.5301,-5.5414,-5.5472,-5.5506,-5.5593,-5.5594,-5.5679,-5.5991,-5.5677,-5.5052,-5.4682,-7.2532,-7.2532,-7.2532,-7.2532,-7.2532,-7.2532,-7.2532,-7.2532,-7.2532,-7.2532,-7.2532,-7.2532,-7.2321,-7.1988,-7.1682,-7.1336,-7.0913,-7.0271,-6.9991,-6.9849,-6.9597,-6.9005,-6.828,-6.7759,-6.7229,-6.6896,-6.7097,-6.7346,-6.7638,-6.7839,-6.7483,-6.6781,-6.5925,-6.4971,-6.3811,-6.2769,-6.211,-6.179,-6.1375,-6.1044,-6.0802,-6.0548,-6.0282,-5.9848,-5.9716,-5.9375,-5.8709,-5.7502,-5.6765,-5.6246,-5.4873,-5.4103,-5.4134,-5.4134,-5.4198,-5.4229,-5.4166,-5.4134,-5.4186,-5.4348,-5.4473,-5.4469,-5.4792,-5.5109,-5.4904,-5.5187,-5.524,-5.528,-5.5209,-5.5209,-5.5209,-5.5209,-5.5209,-5.5209,-5.5209,-5.5209,-5.5209,-5.5209,-5.5209,-5.5239,-5.5628,-5.5957,-5.6346,-5.6974,-5.7573,-5.7842,-5.8171,-5.8501,-5.865,-5.874,-5.886,-5.8949,-5.8979,-5.8877,-5.8689,-5.836,-5.7889,-5.7274,-5.6623,-5.6078,-5.5703,-5.5383,-5.5412,-5.544,-5.5616,-5.5731,-5.5875,-5.6021,-5.6193,-5.6423,-5.6365,-5.6365,-5.6077,-5.5649,-5.5447,-7.2532,-7.2532,-7.2532,-7.2532,-7.2532,-7.2532,-7.2532,-7.2532,-7.2532,-7.2532,-7.2532,-7.2532,-7.2321,-7.1988,-7.1651,-7.1304,-7.0913,-7.0236,-6.9885,-6.9813,-6.934,-6.874,-6.8157,-6.7678,-6.727,-6.7056,-6.7222,-6.7516,-6.7879,-6.8157,-6.7865,-6.7246,-6.6681,-6.5615,-6.4093,-6.3249,-6.2373,-6.1736,-6.1169,-6.075,-6.0548,-6.0163,-5.9816,-5.9508,-5.9331,-5.8972,-5.836,-5.7006,-5.6189,-5.5904,-5.4925,-5.4229,-5.4514,-5.4514,-5.4672,-5.4925,-5.49,-5.4857,-5.4801,-5.4912,-5.4954,-5.4946,-5.5329,-5.5249,-5.5194,-5.537,-5.533,-5.5229,-5.5209,-5.5209,-5.5209,-5.5209,-5.5209,-5.5209,-5.5209,-5.5209,-5.5209,-5.5209,-5.5359,-5.5598,-5.5927,-5.6436,-5.6855,-5.7693,-5.8141,-5.8501,-5.877,-5.8949,-5.9069,-5.9129,-5.9189,-5.9279,-5.9338,-5.9259,-5.9329,-5.9114,-5.8791,-5.8169,-5.7513,-5.6879,-5.6158,-5.581,-5.5812,-5.587,-5.5988,-5.6134,-5.645,-5.6738,-5.6851,-5.6964,-5.6851,-5.6766,-5.6595,-5.6219,-5.6045,-7.2532,-7.2532,-7.2532,-7.2532,-7.2532,-7.2532,-7.2532,-7.2532,-7.2532,-7.2532,-7.2532,-7.2532,-7.2285,-7.1988,-7.1651,-7.1304,-7.0946,-7.0236,-6.992,-6.9598,-6.912,-6.8513,-6.8162,-6.7759,-6.7428,-6.7263,-6.7428,-6.7759,-6.8083,-6.8319,-6.8123,-6.7565,-6.7204,-6.6028,-6.4537,-6.3577,-6.2697,-6.1728,-6.1011,-6.0581,-6.0335,-5.9859,-5.9464,-5.9241,-5.8882,-5.861,-5.8096,-5.7105,-5.6378,-5.6315,-5.4956,-5.4703,-5.507,-5.5241,-5.5449,-5.5784,-5.5713,-5.561,-5.5632,-5.5268,-5.5271,-5.5452,-5.5158,-5.5134,-5.542,-5.535,-5.5229,-5.5209,-5.5209,-5.5209,-5.5209,-5.5209,-5.5209,-5.5209,-5.5209,-5.5209,-5.5209,-5.5239,-5.5538,-5.6107,-5.6226,-5.7004,-5.7693,-5.8231,-5.8441,-5.877,-5.9069,-5.9189,-5.9338,-5.9458,-5.9578,-5.9697,-5.9697,-5.9697,-5.9827,-5.993,-5.9637,-5.9215,-5.861,-5.7884,-5.6844,-5.6439,-5.6328,-5.6416,-5.6992,-5.7311,-5.7398,-5.754,-5.7736,-5.7909,-5.8143,-5.7768,-5.7393,-5.6823,-5.6446,-7.2532,-7.2532,-7.2532,-7.2532,-7.2532,-7.2532,-7.2532,-7.2532,-7.2532,-7.2532,-7.2496,-7.2496,-7.2321,-7.1988,-7.1651,-7.1304,-7.0913,-7.0236,-6.9777,-6.9449,-6.897,-6.859,-6.828,-6.7919,-6.7557,-6.7428,-6.7759,-6.8083,-6.8319,-6.844,-6.8559,-6.8274,-6.7411,-6.6337,-6.5118,-6.4002,-6.2851,-6.1803,-6.121,-6.075,-6.0335,-5.9859,-5.9375,-5.9049,-5.8642,-5.8413,-5.8162,-5.7453,-5.701,-5.6663,-5.5765,-5.526,-5.5765,-5.5967,-5.6005,-5.5983,-5.5893,-5.5635,-5.5347,-5.5488,-5.5466,-5.5394,-5.5432,-5.548,-5.5521,-5.536,-5.5259,-5.5209,-5.5209,-5.5329,-5.5269,-5.5209,-5.5209,-5.5209,-5.5209,-5.5209,-5.5269,-5.5679,-5.6038,-5.6316,-5.7034,-5.7812,-5.8112,-5.862,-5.886,-5.9069,-5.9219,-5.9368,-5.9548,-5.9757,-5.9967,-6.0146,-6.0296,-6.0356,-6.0604,-6.076,-6.0605,-6.0323,-5.9801,-5.9421,-5.8344,-5.7735,-5.7911,-5.8057,-5.8376,-5.8523,-5.8435,-5.9011,-5.9323,-5.9383,-5.9297,-5.8806,-5.8288,-5.7571,-5.6962,-7.2532,-7.2532,-7.2532,-7.2532,-7.2532,-7.2532,-7.2532,-7.2532,-7.2532,-7.2532,-7.2467,-7.2409,-7.2263,-7.1957,-7.1589,-7.1276,-7.088,-7.0236,-6.9705,-6.934,-6.8895,-6.859,-6.8397,-6.8083,-6.7799,-6.7557,-6.7799,-6.8083,-6.8358,-6.8474,-6.8474,-6.8435,-6.7787,-6.6878,-6.5687,-6.4544,-6.3431,-6.2312,-6.1459,-6.0877,-6.0378,-5.9816,-5.9197,-5.8778,-5.8459,-5.8321,-5.8211,-5.7579,-5.7453,-5.7312,-5.6559,-5.6073,-5.6388,-5.6482,-5.6518,-5.6572,-5.6279,-5.614,-5.5966,-5.5818,-5.5725,-5.5432,-5.5549,-5.5521,-5.5551,-5.555,-5.5709,-5.5718,-5.5897,-5.6017,-5.5658,-5.5299,-5.5239,-5.5209,-5.5209,-5.5329,-5.5628,-5.6008,-5.6368,-5.6675,-5.7453,-5.8112,-5.859,-5.8919,-5.9009,-5.9099,-5.9159,-5.9338,-5.9787,-6.0027,-6.0386,-6.0625,-6.0894,-6.1078,-6.1437,-6.1595,-6.1549,-6.1408,-6.1146,-6.0882,-6.0383,-6.0003,-5.9769,-5.9654,-5.9364,-5.9509,-5.9563,-6.017,-6.0573,-6.0422,-6.0191,-5.9762,-5.9303,-5.8726,-5.8117,-7.2532,-7.2532,-7.2532,-7.2532,-7.2532,-7.2532,-7.2532,-7.2532,-7.2532,-7.2504,-7.2438,-7.2321,-7.2174,-7.1866,-7.1499,-7.1179,-7.068,-7.0201,-6.9669,-6.9376,-6.9005,-6.8705,-6.8474,-6.8241,-6.8039,-6.7879,-6.7959,-6.8123,-6.8319,-6.8358,-6.828,-6.8123,-6.7925,-6.709,-6.5997,-6.504,-6.3903,-6.2714,-6.1675,-6.0919,-6.0378,-5.9728,-5.9017,-5.8473,-5.8321,-5.8321,-5.818,-5.78,-5.7674,-5.818,-5.7445,-5.7009,-5.6854,-5.6885,-5.6949,-5.7307,-5.6755,-5.6436,-5.6164,-5.6054,-5.5739,-5.5581,-5.5531,-5.5521,-5.5499,-5.5858,-5.6158,-5.6406,-5.6615,-5.6735,-5.6398,-5.5987,-5.5658,-5.5568,-5.5508,-5.5799,-5.6269,-5.6509,-5.6959,-5.7214,-5.7932,-5.856,-5.883,-5.9069,-5.9099,-5.9129,-5.9189,-5.9458,-5.9937,-6.0475,-6.0954,-6.1433,-6.1762,-6.1912,-6.2154,-6.2244,-6.2227,-6.2084,-6.2027,-6.191,-6.1792,-6.1351,-6.0852,-6.0414,-6.018,-6.044,-6.0757,-6.1193,-6.1392,-6.132,-6.1151,-6.0873,-6.041,-5.9858,-5.919,-7.2532,-7.2532,-7.2532,-7.2532,-7.2532,-7.2532,-7.2532,-7.2532,-7.2496,-7.2446,-7.2358,-7.2263,-7.1994,-7.162,-7.1404,-7.0883,-7.0201,-6.9778,-6.9597,-6.9376,-6.908,-6.8892,-6.8628,-6.8397,-6.8201,-6.8123,-6.8123,-6.8241,-6.828,-6.8241,-6.8078,-6.7999,-6.7597,-6.6855,-6.6052,-6.5067,-6.4038,-6.2956,-6.1891,-6.1044,-6.0378,-5.9684,-5.8972,-5.8367,-5.8321,-5.8321,-5.8321,-5.818,-5.8148,-5.8243,-5.7917,-5.7496,-5.7104,-5.6979,-5.6881,-5.6783,-5.6506,-5.6213,-5.5899,-5.578,-5.5531,-5.533,-5.534,-5.561,-5.5888,-5.6248,-5.6615,-5.6915,-5.7064,-5.7064,-5.6974,-5.6705,-5.6735,-5.6735,-5.6697,-5.6839,-5.7316,-5.7729,-5.7956,-5.8121,-5.8554,-5.889,-5.9063,-5.9213,-5.9219,-5.9368,-5.9578,-6.0086,-6.0775,-6.1343,-6.1912,-6.2361,-6.278,-6.2839,-6.2929,-6.2869,-6.2786,-6.2466,-6.2409,-6.2321,-6.2233,-6.2057,-6.1704,-6.1409,-6.1438,-6.1789,-6.208,-6.2281,-6.2366,-6.2301,-6.2104,-6.1963,-6.1319,-6.0676,-5.9917,-7.2532,-7.2532,-7.2532,-7.2532,-7.2532,-7.2532,-7.2532,-7.2496,-7.2409,-7.2387,-7.2204,-7.2024,-7.1744,-7.1431,-7.1015,-7.0444,-6.9885,-6.9669,-6.9524,-6.9376,-6.919,-6.8967,-6.8705,-6.8513,-6.8201,-6.8044,-6.8044,-6.8083,-6.8044,-6.7879,-6.7759,-6.7557,-6.7304,-6.6935,-6.6268,-6.5196,-6.4267,-6.3299,-6.214,-6.1053,-6.0378,-5.9596,-5.8837,-5.8459,-5.8321,-5.8321,-5.8321,-5.8321,-5.8197,-5.8089,-5.7825,-5.7448,-5.6988,-5.6682,-5.6488,-5.6342,-5.6096,-5.5849,-5.5581,-5.5481,-5.533,-5.5289,-5.5448,-5.5807,-5.6286,-5.6765,-5.7393,-5.7842,-5.7723,-5.7633,-5.7603,-5.7363,-5.7124,-5.7146,-5.7311,-5.7677,-5.8105,-5.8572,-5.8844,-5.8957,-5.9205,-5.9332,-5.9255,-5.9351,-5.9363,-5.9578,-5.9907,-6.0625,-6.1463,-6.1972,-6.245,-6.2692,-6.2991,-6.2875,-6.2875,-6.2875,-6.2905,-6.2731,-6.2673,-6.2615,-6.2643,-6.2526,-6.2585,-6.2494,-6.2701,-6.2731,-6.2758,-6.2752,-6.2959,-6.3137,-6.2814,-6.2404,-6.2025,-6.1439,-6.0735,-7.2532,-7.2532,-7.2532,-7.2532,-7.2532,-7.2532,-7.2504,-7.2438,-7.2358,-7.224,-7.2084,-7.1718,-7.1431,-7.1143,-7.0613,-7.0026,-6.9525,-6.9524,-6.9377,-6.9192,-6.9043,-6.8854,-6.8628,-6.8435,-6.8162,-6.7879,-6.7678,-6.7719,-6.7719,-6.7557,-6.7387,-6.7263,-6.718,-6.7056,-6.6516,-6.5527,-6.4664,-6.3634,-6.2466,-6.1201,-6.0152,-5.9375,-5.8778,-5.8367,-5.8321,-5.8321,-5.8321,-5.8228,-5.8136,-5.7871,-5.7543,-5.7084,-5.6651,-5.6195,-5.5929,-5.583,-5.5631,-5.5531,-5.5431,-5.533,-5.5229,-5.5209,-5.5807,-5.6137,-5.6675,-5.7483,-5.8471,-5.889,-5.868,-5.8321,-5.8231,-5.7925,-5.7738,-5.7761,-5.803,-5.833,-5.8932,-5.9423,-5.9732,-5.9871,-5.9872,-5.9667,-5.956,-5.9729,-5.9831,-6.0057,-6.0416,-6.1044,-6.1822,-6.2211,-6.263,-6.2784,-6.2905,-6.2701,-6.2643,-6.2643,-6.2673,-6.2673,-6.2673,-6.2731,-6.2905,-6.3021,-6.3021,-6.2963,-6.3021,-6.3021,-6.3137,-6.3194,-6.3252,-6.3252,-6.3137,-6.2846,-6.2232,-6.191,-6.1439,-7.2532,-7.2532,-7.2532,-7.2532,-7.2496,-7.2496,-7.2409,-7.2292,-7.2299,-7.2024,-7.162,-7.1463,-7.111,-7.0581,-6.9991,-6.9598,-6.9377,-6.9192,-6.908,-6.8857,-6.8781,-6.8667,-6.8435,-6.8201,-6.8039,-6.7719,-6.7469,-6.7428,-6.7394,-6.7304,-6.7222,-6.7139,-6.6938,-6.6812,-6.6711,-6.5865,-6.505,-6.3994,-6.274,-6.1129,-5.9516,-5.9094,-5.8778,-5.8413,-5.8321,-5.8321,-5.8274,-5.8136,-5.7918,-5.7825,-5.718,-5.67,-5.6311,-5.5929,-5.5581,-5.5381,-5.5229,-5.5229,-5.5259,-5.5229,-5.5209,-5.5329,-5.5888,-5.6406,-5.7266,-5.8082,-5.8949,-5.9039,-5.8979,-5.8919,-5.8913,-5.9045,-5.9121,-5.9191,-5.9282,-5.974,-6.0298,-6.0187,-6.0527,-6.0484,-6.0429,-6.0069,-5.9811,-6.0072,-6.0385,-6.0586,-6.0984,-6.1613,-6.2121,-6.254,-6.2635,-6.2758,-6.2731,-6.2615,-6.2351,-6.2351,-6.241,-6.2498,-6.2673,-6.2789,-6.3021,-6.3137,-6.3137,-6.3079,-6.3194,-6.3252,-6.3309,-6.3367,-6.3424,-6.3367,-6.3194,-6.2759,-6.2204,-6.2057,-6.1909,-7.2532,-7.2532,-7.2532,-7.2532,-7.2496,-7.2409,-7.2292,-7.2114,-7.1933,-7.1687,-7.1372,-7.1048,-7.0581,-6.9991,-6.9561,-6.9342,-6.9155,-6.8967,-6.8854,-6.8705,-6.8628,-6.8513,-6.828,-6.8123,-6.7885,-6.7475,-6.7304,-6.7139,-6.7139,-6.7022,-6.6972,-6.6972,-6.6854,-6.6812,-6.6779,-6.6068,-6.5345,-6.4279,-6.2808,-6.0914,-5.9479,-5.8972,-5.8746,-5.8289,-5.8321,-5.8274,-5.8228,-5.8011,-5.7825,-5.7637,-5.7036,-5.6506,-5.6267,-5.6133,-5.6053,-5.5829,-5.6107,-5.5927,-5.5359,-5.5239,-5.5319,-5.561,-5.629,-5.7415,-5.8264,-5.8787,-5.9099,-5.9099,-5.9099,-5.9153,-5.9261,-5.9422,-5.969,-5.9955,-6.0272,-6.0586,-6.0949,-6.1155,-6.1226,-6.1155,-6.0928,-6.053,-6.0213,-6.0367,-6.0716,-6.1036,-6.1433,-6.2032,-6.248,-6.281,-6.2816,-6.2643,-6.2556,-6.2439,-6.2175,-6.2028,-6.2175,-6.2292,-6.2556,-6.2731,-6.3021,-6.3137,-6.3137,-6.3194,-6.3279,-6.3367,-6.3481,-6.3481,-6.3481,-6.3309,-6.3194,-6.2908,-6.2647,-6.2175,-6.1939,-7.2532,-7.2532,-7.2532,-7.2467,-7.2409,-7.2292,-7.2084,-7.1836,-7.1526,-7.124,-7.0982,-7.0478,-6.992,-6.9561,-6.9268,-6.9043,-6.8816,-6.8628,-6.8474,-6.8435,-6.8358,-6.8162,-6.7999,-6.7879,-6.7597,-6.718,-6.7097,-6.7014,-6.6896,-6.6812,-6.6812,-6.6812,-6.6812,-6.6812,-6.6677,-6.6297,-6.5682,-6.4533,-6.2583,-6.0869,-5.9582,-5.91,-5.8765,-5.8459,-5.8274,-5.8274,-5.8182,-5.7918,-5.7684,-5.7258,-5.6994,-5.6579,-5.6323,-5.6506,-5.6552,-5.6517,-5.6735,-5.6667,-5.6179,-5.599,-5.579,-5.6221,-5.6976,-5.8338,-5.9115,-5.9315,-5.9153,-5.9099,-5.9207,-5.9315,-5.9476,-5.969,-6.0114,-6.0481,-6.0794,-6.1052,-6.1308,-6.1461,-6.1461,-6.1308,-6.1145,-6.088,-6.07,-6.0748,-6.1017,-6.1369,-6.1882,-6.248,-6.278,-6.3049,-6.2789,-6.2498,-6.2234,-6.2116,-6.1821,-6.1702,-6.188,-6.2175,-6.2351,-6.2673,-6.2963,-6.3079,-6.3137,-6.3194,-6.3309,-6.3547,-6.3697,-6.3604,-6.3484,-6.3637,-6.3702,-6.3471,-6.3119,-6.2618,-6.1997,-7.2532,-7.2532,-7.2496,-7.2446,-7.2299,-7.2114,-7.1836,-7.1494,-7.1175,-7.085,-7.0444,-6.9778,-6.9416,-6.9231,-6.8895,-6.8551,-6.8197,-6.8162,-6.7965,-6.7759,-6.7591,-6.7638,-6.7557,-6.7469,-6.7263,-6.7139,-6.7014,-6.6854,-6.6812,-6.6812,-6.6812,-6.6812,-6.6812,-6.6812,-6.6736,-6.6525,-6.5664,-6.4494,-6.264,-6.1247,-6.0155,-5.9484,-5.8874,-5.8476,-5.8306,-5.8182,-5.7949,-5.7637,-5.7399,-5.6968,-5.6861,-5.6879,-5.6728,-5.6964,-5.7056,-5.7094,-5.7326,-5.7401,-5.7325,-5.7187,-5.7329,-5.7704,-5.8231,-5.9023,-5.9622,-5.9529,-5.9369,-5.9207,-5.9315,-5.9422,-5.9743,-6.0167,-6.0534,-6.0897,-6.1206,-6.1461,-6.1613,-6.1613,-6.1613,-6.1481,-6.132,-6.1063,-6.1163,-6.1182,-6.1353,-6.1729,-6.2271,-6.2839,-6.2842,-6.2963,-6.2585,-6.2234,-6.191,-6.1673,-6.1433,-6.1464,-6.1761,-6.2057,-6.2351,-6.2673,-6.3021,-6.3079,-6.3137,-6.3254,-6.3372,-6.3642,-6.3854,-6.394,-6.4028,-6.4178,-6.4182,-6.4009,-6.3714,-6.3237,-6.2406,-7.2438,-7.2351,-7.2387,-7.2263,-7.2114,-7.1805,-7.1431,-7.1045,-7.0783,-7.0305,-6.9742,-6.9305,-6.897,-6.8743,-6.8474,-6.8162,-6.7919,-6.7759,-6.7597,-6.7557,-6.751,-6.7428,-6.7346,-6.7222,-6.7139,-6.7014,-6.6812,-6.6812,-6.6812,-6.6812,-6.6812,-6.6812,-6.6812,-6.6812,-6.677,-6.6525,-6.5574,-6.453,-6.3286,-6.2158,-6.0803,-6.006,-5.9416,-5.8953,-5.8184,-5.8074,-5.7825,-5.7275,-5.7188,-5.7168,-5.6959,-5.699,-5.7157,-5.7498,-5.7693,-5.7835,-5.8151,-5.849,-5.8527,-5.8217,-5.798,-5.8868,-5.9194,-5.9518,-6.0075,-5.9849,-5.9529,-5.9422,-5.9422,-5.9583,-5.988,-6.0377,-6.0897,-6.1226,-6.1563,-6.1866,-6.1866,-6.1765,-6.1512,-6.1257,-6.1338,-6.1248,-6.1425,-6.1619,-6.1811,-6.2061,-6.2687,-6.3079,-6.3021,-6.2905,-6.2615,-6.2292,-6.1969,-6.1791,-6.1523,-6.1583,-6.1702,-6.2057,-6.2469,-6.2881,-6.332,-6.3079,-6.3166,-6.3226,-6.3496,-6.3885,-6.4155,-6.4333,-6.4483,-6.4752,-6.4724,-6.4606,-6.4218,-6.3855,-6.3051,-7.2409,-7.2299,-7.2233,-7.2084,-7.1836,-7.1494,-7.1078,-7.0647,-7.0271,-6.9742,-6.9045,-6.8819,-6.8551,-6.8241,-6.8004,-6.7799,-6.7597,-6.751,-6.7387,-6.7304,-6.7263,-6.7222,-6.7139,-6.7056,-6.6938,-6.6812,-6.6812,-6.6812,-6.6812,-6.6812,-6.6812,-6.6812,-6.6812,-6.6812,-6.6686,-6.6278,-6.5578,-6.4686,-6.3756,-6.2912,-6.148,-6.0671,-6.0102,-5.957,-5.8955,-5.8561,-5.8323,-5.7872,-5.7556,-5.7525,-5.7425,-5.742,-5.7693,-5.8068,-5.8404,-5.8751,-5.9068,-5.9553,-5.9577,-5.934,-5.9133,-6.0126,-6.0116,-6.0342,-6.0432,-6.0114,-5.972,-5.9476,-5.9583,-5.9773,-6.0092,-6.069,-6.1257,-6.1664,-6.1916,-6.2116,-6.1916,-6.1765,-6.1308,-6.098,-6.1094,-6.1139,-6.1709,-6.1954,-6.2382,-6.2538,-6.2807,-6.3079,-6.3079,-6.2905,-6.2673,-6.241,-6.2175,-6.1998,-6.1791,-6.2115,-6.2498,-6.2854,-6.3209,-6.3535,-6.377,-6.3529,-6.3617,-6.3977,-6.4246,-6.4366,-6.4665,-6.5083,-6.5233,-6.5293,-6.5383,-6.5472,-6.4963,-6.4539,-6.3911,-7.2409,-7.2299,-7.2078,-7.1805,-7.1494,-7.1143,-7.0817,-7.0341,-6.967,-6.9045,-6.8474,-6.8241,-6.8078,-6.7799,-6.7597,-6.7435,-6.727,-6.7222,-6.7097,-6.6938,-6.6938,-6.6854,-6.6854,-6.6854,-6.6854,-6.6812,-6.6812,-6.6812,-6.6812,-6.6812,-6.6812,-6.6812,-6.6812,-6.677,-6.677,-6.6311,-6.5713,-6.5024,-6.389,-6.302,-6.2154,-6.1248,-6.0646,-6.0186,-5.9709,-5.9263,-5.8714,-5.8369,-5.8023,-5.7768,-5.7984,-5.8106,-5.8195,-5.8674,-5.9027,-5.9332,-5.9416,-5.9902,-6.0607,-6.065,-6.0897,-6.1193,-6.1009,-6.0979,-6.0763,-6.0302,-5.9827,-5.9636,-5.9773,-6.0039,-6.0481,-6.1052,-6.1512,-6.1815,-6.2066,-6.2116,-6.1866,-6.1512,-6.1103,-6.0976,-6.0798,-6.0826,-6.1674,-6.2288,-6.2774,-6.3047,-6.3107,-6.3079,-6.3079,-6.2963,-6.2789,-6.2645,-6.2411,-6.2529,-6.2529,-6.2882,-6.3238,-6.3595,-6.3951,-6.4159,-6.4427,-6.4426,-6.4605,-6.4844,-6.4845,-6.4875,-6.5443,-6.5951,-6.5981,-6.6041,-6.643,-6.6459,-6.5887,-6.5316,-6.4744,-7.2409,-7.2299,-7.2084,-7.178,-7.134,-7.0946,-7.0477,-6.9813,-6.9083,-6.8513,-6.8201,-6.7965,-6.7678,-6.7435,-6.7312,-6.718,-6.698,-6.6896,-6.6812,-6.6812,-6.6812,-6.6812,-6.6812,-6.6812,-6.6812,-6.6812,-6.6812,-6.6812,-6.6812,-6.6812,-6.6812,-6.6812,-6.677,-6.672,-6.6516,-6.6129,-6.5603,-6.5033,-6.4243,-6.3462,-6.2828,-6.1934,-6.1185,-6.075,-6.016,-5.9563,-5.9035,-5.8664,-5.8337,-5.8143,-5.8407,-5.8428,-5.862,-5.9069,-5.9261,-5.9529,-5.969,-6.0324,-6.1103,-6.1399,-6.1633,-6.1765,-6.1613,-6.141,-6.1257,-6.046,-6.0039,-5.9971,-6.0092,-6.0221,-6.0197,-6.1083,-6.1594,-6.1714,-6.1866,-6.1916,-6.1714,-6.1206,-6.0865,-6.1004,-6.0983,-6.1589,-6.2322,-6.2882,-6.3367,-6.3492,-6.3522,-6.3284,-6.3166,-6.3079,-6.2905,-6.2881,-6.2824,-6.3031,-6.3239,-6.3743,-6.4099,-6.4457,-6.4606,-6.4696,-6.4905,-6.5263,-6.5144,-6.5174,-6.5322,-6.547,-6.586,-6.628,-6.658,-6.6789,-6.7061,-6.703,-6.6547,-6.6064,-6.5791,-7.2446,-7.2263,-7.2084,-7.1749,-7.1243,-7.0817,-7.0131,-6.9305,-6.8667,-6.8201,-6.7885,-6.7759,-6.7435,-6.718,-6.7056,-6.7014,-6.6812,-6.6812,-6.6812,-6.6812,-6.6812,-6.6812,-6.6812,-6.6812,-6.6812,-6.6812,-6.6812,-6.6812,-6.6812,-6.6812,-6.6812,-6.6812,-6.677,-6.6601,-6.6345,-6.5955,-6.5514,-6.493,-6.4142,-6.3563,-6.3036,-6.2443,-6.18,-6.1281,-6.0665,-5.9966,-5.9369,-5.8918,-5.8572,-5.8587,-5.8607,-5.865,-5.8979,-5.9153,-5.9315,-5.9667,-6.0324,-6.0897,-6.1531,-6.1966,-6.2016,-6.1966,-6.1765,-6.1789,-6.1659,-6.1015,-6.0753,-6.063,-6.0623,-6.0555,-6.0646,-6.1505,-6.199,-6.2093,-6.2007,-6.2039,-6.1981,-6.1523,-6.1102,-6.123,-6.1604,-6.2318,-6.2984,-6.3457,-6.3903,-6.3935,-6.3908,-6.367,-6.3374,-6.3258,-6.326,-6.3324,-6.3445,-6.3683,-6.41,-6.4696,-6.5054,-6.5293,-6.5413,-6.5503,-6.5772,-6.6101,-6.5801,-6.5501,-6.5768,-6.6004,-6.6186,-6.6518,-6.685,-6.7123,-6.7366,-6.7304,-6.706,-6.6757,-6.6453,-7.2409,-7.2299,-7.2114,-7.1713,-7.1243,-7.0682,-6.9778,-6.8743,-6.8513,-6.8044,-6.7516,-6.7516,-6.727,-6.6896,-6.6812,-6.6812,-6.6812,-6.6812,-6.6812,-6.6812,-6.6812,-6.6812,-6.6812,-6.6812,-6.6812,-6.6812,-6.6812,-6.6812,-6.6812,-6.6812,-6.6812,-6.677,-6.6728,-6.6473,-6.6172,-6.578,-6.5336,-6.4748,-6.4006,-6.3517,-6.3084,-6.2646,-6.2126,-6.1665,-6.12,-6.0609,-6.0093,-5.9546,-5.9265,-5.9087,-5.9039,-5.9069,-5.9099,-5.9099,-5.9506,-6.0061,-6.0949,-6.1481,-6.1916,-6.2166,-6.2292,-6.2205,-6.1871,-6.205,-6.2001,-6.1484,-6.1278,-6.1334,-6.1425,-6.1399,-6.1539,-6.2201,-6.2777,-6.2695,-6.2519,-6.2498,-6.247,-6.2158,-6.1636,-6.1654,-6.2104,-6.2687,-6.3314,-6.379,-6.4533,-6.4593,-6.4595,-6.4447,-6.412,-6.3736,-6.3797,-6.4096,-6.4188,-6.4456,-6.4934,-6.5472,-6.5771,-6.6041,-6.634,-6.649,-6.6729,-6.6729,-6.6459,-6.6247,-6.6391,-6.654,-6.6606,-6.6819,-6.7153,-6.7396,-6.7699,-6.7487,-6.7304,-6.7182,-6.6909,-7.2467,-7.2409,-7.2108,-7.1775,-7.1304,-7.0305,-6.9416,-6.8743,-6.8474,-6.8044,-6.7475,-6.7475,-6.7229,-6.6812,-6.6812,-6.6812,-6.6812,-6.6812,-6.6812,-6.6812,-6.6812,-6.6812,-6.6812,-6.6812,-6.6812,-6.6812,-6.6812,-6.6846,-6.688,-6.6846,-6.6914,-6.677,-6.6778,-6.6445,-6.5978,-6.5514,-6.5111,-6.4564,-6.377,-6.3421,-6.3083,-6.2692,-6.2216,-6.1765,-6.1359,-6.0794,-6.0197,-5.9743,-5.9369,-5.9153,-5.9099,-5.9099,-5.9099,-5.9153,-5.9422,-6.0272,-6.1021,-6.1683,-6.1966,-6.2247,-6.2518,-6.2574,-6.2311,-6.1981,-6.1976,-6.1928,-6.1698,-6.1891,-6.2042,-6.1965,-6.2032,-6.2533,-6.294,-6.2915,-6.2783,-6.2756,-6.2656,-6.233,-6.1861,-6.2363,-6.2774,-6.3256,-6.3795,-6.4599,-6.5226,-6.5256,-6.5287,-6.5256,-6.4898,-6.4512,-6.4366,-6.4665,-6.4934,-6.5203,-6.5652,-6.619,-6.652,-6.6759,-6.697,-6.706,-6.7,-6.697,-6.6908,-6.6814,-6.6629,-6.6691,-6.6846,-6.7152,-6.7457,-6.7819,-6.8059,-6.7759,-6.7548,-6.7426,-6.7243,-7.2532,-7.2467,-7.2137,-7.1713,-7.1078,-7.0166,-6.9416,-6.8932,-6.8551,-6.8083,-6.7638,-6.7516,-6.7229,-6.6854,-6.6812,-6.6812,-6.6812,-6.6812,-6.6812,-6.6812,-6.6812,-6.6812,-6.6812,-6.6812,-6.6812,-6.6812,-6.688,-6.6981,-6.7184,-6.7624,-6.776,-6.7751,-6.7266,-6.6685,-6.6224,-6.5579,-6.4885,-6.4286,-6.3723,-6.3325,-6.2986,-6.2692,-6.2166,-6.1633,-6.1257,-6.0669,-6.0039,-5.9636,-5.9261,-5.9099,-5.9099,-5.9099,-5.9297,-5.9525,-6.0136,-6.1077,-6.2012,-6.2641,-6.3091,-6.311,-6.3198,-6.3141,-6.2953,-6.2694,-6.2357,-6.2257,-6.2314,-6.2449,-6.2419,-6.2384,-6.2572,-6.2787,-6.2914,-6.3063,-6.3016,-6.2914,-6.2671,-6.2339,-6.263,-6.3096,-6.3524,-6.4005,-6.4603,-6.541,-6.595,-6.601,-6.6221,-6.6402,-6.5921,-6.5262,-6.5173,-6.5353,-6.5652,-6.5922,-6.637,-6.664,-6.685,-6.7001,-6.7183,-6.7243,-6.7182,-6.7182,-6.7121,-6.6876,-6.6629,-6.6814,-6.703,-6.7457,-6.7819,-6.8238,-6.8654,-6.8535,-6.8179,-6.7638,-6.7457,-7.2532,-7.2467,-7.2108,-7.1494,-7.0714,-7.0131,-6.967,-6.9305,-6.8705,-6.8162,-6.7799,-6.7557,-6.7229,-6.6854,-6.6812,-6.6812,-6.6812,-6.6812,-6.6812,-6.6812,-6.6812,-6.6812,-6.6812,-6.6812,-6.6948,-6.6914,-6.7049,-6.7421,-6.803,-6.8402,-6.8707,-6.9002,-6.8021,-6.7257,-6.6699,-6.5791,-6.5106,-6.4622,-6.3999,-6.3466,-6.3049,-6.2643,-6.2116,-6.1613,-6.1103,-6.0564,-5.9986,-5.956,-5.9099,-5.9099,-5.9099,-5.9099,-5.9591,-6.021,-6.1043,-6.1911,-6.2798,-6.3474,-6.3846,-6.3897,-6.3828,-6.3807,-6.3764,-6.3408,-6.303,-6.2763,-6.2841,-6.2852,-6.2765,-6.2819,-6.2954,-6.3152,-6.3346,-6.3335,-6.3249,-6.3229,-6.3096,-6.2905,-6.3126,-6.3644,-6.4245,-6.4725,-6.5173,-6.5892,-6.6373,-6.6583,-6.6794,-6.7095,-6.6854,-6.5982,-6.5892,-6.5981,-6.607,-6.6308,-6.6701,-6.694,-6.7031,-6.7152,-6.7365,-6.7487,-6.7548,-6.7426,-6.7304,-6.7182,-6.706,-6.703,-6.7274,-6.7759,-6.8327,-6.8917,-6.9298,-6.9356,-6.8948,-6.8238,-6.7699,-7.2532,-7.2438,-7.1866,-7.1336,-7.0847,-7.0166,-6.9849,-6.967,-6.897,-6.8319,-6.7839,-6.7557,-6.7229,-6.6854,-6.6812,-6.6812,-6.6812,-6.6812,-6.6812,-6.6812,-6.6812,-6.6812,-6.6846,-6.6914,-6.7117,-6.7489,-6.776,-6.8098,-6.8741,-6.9045,-6.9016,-6.8806,-6.8116,-6.7633,-6.7143,-6.6209,-6.5528,-6.5029,-6.4557,-6.3797,-6.3126,-6.2657,-6.2116,-6.1645,-6.1145,-6.0718,-6.0138,-5.9543,-5.9267,-5.9099,-5.9099,-5.9368,-5.9872,-6.0627,-6.15,-6.2487,-6.3357,-6.4121,-6.4464,-6.4527,-6.4372,-6.42,-6.4004,-6.3795,-6.3563,-6.3377,-6.3213,-6.3249,-6.3192,-6.3216,-6.3213,-6.3475,-6.3592,-6.3498,-6.3464,-6.3471,-6.3451,-6.3607,-6.3704,-6.4305,-6.4993,-6.5473,-6.5832,-6.6282,-6.6732,-6.6911,-6.6941,-6.7061,-6.7092,-6.6611,-6.6582,-6.658,-6.6425,-6.6634,-6.6999,-6.7243,-6.7365,-6.7517,-6.7789,-6.785,-6.791,-6.7819,-6.7699,-6.7669,-6.7608,-6.7638,-6.7879,-6.8417,-6.9006,-6.9588,-6.9761,-6.9818,-6.953,-6.8948,-6.8238,-7.2532,-7.2409,-7.1775,-7.1304,-7.088,-7.0201,-6.9885,-6.9742,-6.9045,-6.8397,-6.7959,-6.7597,-6.7229,-6.6854,-6.6812,-6.6812,-6.6812,-6.6812,-6.6812,-6.6812,-6.6812,-6.6812,-6.688,-6.7117,-6.7455,-6.7895,-6.8707,-6.9214,-6.9553,-6.986,-6.9861,-6.9435,-6.8815,-6.8042,-6.7542,-6.6711,-6.5917,-6.5475,-6.5172,-6.4443,-6.3581,-6.3249,-6.3009,-6.2467,-6.1865,-6.1317,-6.0866,-6.0325,-6.0052,-6.0027,-6.0086,-6.0176,-6.0761,-6.1503,-6.2323,-6.3256,-6.4071,-6.4841,-6.5073,-6.5104,-6.4883,-6.4737,-6.4162,-6.3888,-6.378,-6.3532,-6.3189,-6.3137,-6.3137,-6.3162,-6.3162,-6.3337,-6.3337,-6.3304,-6.3273,-6.3306,-6.3574,-6.3903,-6.4385,-6.5192,-6.5828,-6.6461,-6.6883,-6.7155,-6.7487,-6.7487,-6.7457,-6.7304,-6.7304,-6.7182,-6.7182,-6.7243,-6.703,-6.6969,-6.7243,-6.7548,-6.7759,-6.7939,-6.8179,-6.8298,-6.8417,-6.8298,-6.8179,-6.8119,-6.8119,-6.8238,-6.8595,-6.9065,-6.9472,-6.9933,-7.0104,-7.0161,-6.9818,-6.9414,-6.8772,-7.2467,-7.2351,-7.1744,-7.1304,-7.0913,-7.0201,-6.9885,-6.9706,-6.9045,-6.8435,-6.8004,-6.7638,-6.7229,-6.6938,-6.6812,-6.6812,-6.6812,-6.6812,-6.6812,-6.6812,-6.6812,-6.6981,-6.7252,-6.7557,-6.7996,-6.8741,-6.962,-7.0026,-7.0331,-7.0558,-7.0534,-7.0486,-6.9677,-6.8616,-6.7991,-6.7102,-6.6187,-6.5852,-6.553,-6.5116,-6.4721,-6.4306,-6.3891,-6.3422,-6.2932,-6.234,-6.1959,-6.1574,-6.1241,-6.1181,-6.1117,-6.1267,-6.1614,-6.2334,-6.3165,-6.4073,-6.487,-6.5656,-6.6132,-6.591,-6.5705,-6.5421,-6.4579,-6.4075,-6.3993,-6.3709,-6.3367,-6.3252,-6.3252,-6.3137,-6.3137,-6.3137,-6.3137,-6.3194,-6.3252,-6.3487,-6.3843,-6.4377,-6.5243,-6.6085,-6.6782,-6.7451,-6.7725,-6.8089,-6.815,-6.809,-6.803,-6.7819,-6.7699,-6.7578,-6.7517,-6.7699,-6.7759,-6.7699,-6.7638,-6.7939,-6.8238,-6.8535,-6.8772,-6.8948,-6.9006,-6.883,-6.8713,-6.8535,-6.8595,-6.8772,-6.9123,-6.953,-6.999,-7.0363,-7.0419,-7.0419,-6.9933,-6.953,-6.9123,-7.2351,-7.2048,-7.1651,-7.1304,-7.0913,-7.0201,-6.9813,-6.9561,-6.9008,-6.8397,-6.7919,-6.7597,-6.7229,-6.6812,-6.6812,-6.6812,-6.6812,-6.6846,-6.6812,-6.6812,-6.6948,-6.7252,-6.7658,-6.8166,-6.8741,-6.962,-7.05,-7.0939,-7.0782,-7.0793,-7.0687,-7.025,-6.9779,-6.8877,-6.8159,-6.7383,-6.6831,-6.6492,-6.6266,-6.6006,-6.5649,-6.5062,-6.4079,-6.3515,-6.3092,-6.2664,-6.2286,-6.2014,-6.1874,-6.1849,-6.1916,-6.2163,-6.2632,-6.3158,-6.3899,-6.4669,-6.5498,-6.5991,-6.6268,-6.6192,-6.6,-6.57,-6.4991,-6.4579,-6.4356,-6.4075,-6.3849,-6.3736,-6.3622,-6.3309,-6.3252,-6.3252,-6.3252,-6.3397,-6.3454,-6.4072,-6.4634,-6.5471,-6.6403,-6.7188,-6.7917,-6.8316,-6.8559,-6.8713,-6.8713,-6.8654,-6.8535,-6.8417,-6.8298,-6.8119,-6.7939,-6.8179,-6.8417,-6.8358,-6.8298,-6.8535,-6.883,-6.9123,-6.9414,-6.953,-6.953,-6.9356,-6.924,-6.9065,-6.9182,-6.9414,-6.9761,-6.999,-7.0306,-7.0532,-7.0645,-7.0589,-7.0104,-6.9729,-6.9414]},{"header":{"parameterUnit":"m.s-1","parameterCategory":1,"la1":31.0,"la2":29.5877,"lo1":-88.7671,"lo2":-86.6584,"dx":0.0162,"dy":0.0185,"nx":115,"ny":88,"refTime":"2023-01-11T06:00:00:Z","depth":0,"parameterNumber":3,"parameterNumberName":"V-component_of_WINDS"},"data":[0.0,0.0,0.0,0.0,0.0,0.0,0.0,0.0,0.0,0.0,0.0,0.0,0.0,0.0,0.0,0.0,0.0,0.0,0.0,0.0,0.0,0.0,0.0,0.0,0.0,0.0,0.0,0.0,0.0,0.0,0.0,0.0,0.0,0.0,0.0,0.0,0.0,0.0,0.0,0.0,0.0,0.0,0.0,0.0,0.0,0.0,0.0,0.0,0.0,0.0,0.0,0.0,0.0,0.0,0.0,0.0,0.0,0.0,0.0,0.0,0.0,0.0,0.0,0.0,0.0,0.0,0.0,0.0,0.0,0.0,0.0,0.0,0.0,0.0,0.0,0.0,0.0,0.0,0.0,0.0,0.0,0.0,0.0,0.0,0.0,0.0,0.0,0.0,0.0,0.0,0.0,0.0,0.0,0.0,0.0,0.0,0.0,0.0,0.0,0.0,0.0,0.0,0.0,0.0,0.0,0.0,0.0,0.0,0.0,0.0,0.0,0.0,0.0,0.0,0.0,0.0,0.0,0.0,0.0,0.0,0.0,0.0,0.0,0.0,0.0,0.0,0.0,0.0,0.0,0.0,0.0,0.0,0.0,0.0,0.0,0.0,0.0,0.0,0.0,0.0,0.0,0.0,0.0,0.0,0.0,0.0,0.0,0.0,0.0,0.0,0.0,0.0,0.0,0.0,0.0,0.0,0.0,0.0,0.0,0.0,0.0,0.0,0.0,0.0,0.0,0.0,0.0,0.0,0.0,0.0,0.0,0.0,0.0,0.0,0.0,0.0,0.0,0.0,0.0,0.0,0.0,0.0,0.0,0.0,0.0,0.0,0.0,0.0,0.0,0.0,0.0,0.0,0.0,0.0,0.0,0.0,0.0,0.0,0.0,0.0,0.0,0.0,0.0,0.0,0.0,0.0,0.0,0.0,0.0,0.0,0.0,0.0,0.0,0.0,0.0,0.0,0.0,0.0,0.0,0.0,0.0,0.0,0.0,0.0,0.0,0.0,0.0,0.0,0.0,0.0,0.0,0.0,0.0,0.0,0.0,0.0,0.0,0.0,0.0,0.0,0.0,0.0,0.0,0.0,0.0,0.0,0.0,0.0,0.0,0.0,0.0,0.0,0.0,0.0,0.0,0.0,0.0,0.0,0.0,0.0,0.0,0.0,0.0,0.0,0.0,0.0,0.0,0.0,0.0,0.0,0.0,0.0,0.0,0.0,0.0,0.0,0.0,0.0,0.0,0.0,0.0,0.0,0.0,0.0,0.0,0.0,0.0,0.0,0.0,0.0,0.0,0.0,0.0,0.0,0.0,0.0,0.0,0.0,0.0,0.0,0.0,0.0,0.0,0.0,0.0,0.0,0.0,0.0,0.0,0.0,0.0,0.0,0.0,0.0,0.0,0.0,0.0,0.0,0.0,0.0,0.0,0.0,0.0,0.0,0.0,0.0,0.0,0.0,0.0,0.0,0.0,0.0,0.0,0.0,0.0,0.0,0.0,0.0,0.0,0.0,0.0,0.0,0.0,0.0,0.0,0.0,0.0,0.0,0.0,0.0,0.0,0.0,0.0,0.0,0.0,0.0,0.0,0.0,0.0,0.0,0.0,0.0,0.0,0.0,0.0,0.0,0.0,0.0,0.0,0.0,0.0,0.0,0.0,0.0,0.0,0.0,0.0,0.0,0.0,0.0,0.0,0.0,0.0,0.0,0.0,0.0,0.0,0.0,0.0,0.0,0.0,0.0,0.0,0.0,0.0,0.0,0.0,0.0,0.0,0.0,0.0,0.0,0.0,0.0,0.0,0.0,0.0,0.0,0.0,0.0,0.0,0.0,0.0,0.0,0.0,0.0,0.0,0.0,0.0,0.0,0.0,0.0,0.0,0.0,0.0,0.0,0.0,0.0,0.0,0.0,0.0,0.0,0.0,0.0,0.0,0.0,0.0,0.0,0.0,0.0,0.0,0.0,0.0,0.0,0.0,0.0,0.0,0.0,0.0,0.0,0.0,0.0,0.0,0.0,0.0,0.0,0.0,0.0,0.0,0.0,0.0,0.0,0.0,0.0,0.0,0.0,0.0,0.0,0.0,0.0,0.0,0.0,0.0,0.0,0.0,0.0,0.0,0.0,0.0,0.0,0.0,0.0,0.0,0.0,0.0,0.0,0.0,0.0,0.0,0.0,0.0,0.0,0.0,0.0,0.0,0.0,0.0,0.0,0.0,0.0,0.0,0.0,0.0,0.0,0.0,0.0,0.0,0.0,0.0,0.0,0.0,0.0,0.0,0.0,0.0,0.0,0.0,0.0,0.0,0.0,0.0,0.0,0.0,0.0,0.0,0.0,0.0,0.0,0.0,0.0,0.0,0.0,0.0,0.0,0.0,0.0,0.0,0.0,0.0,0.0,0.0,0.0,0.0,0.0,0.0,0.0,0.0,0.0,0.0,0.0,0.0,0.0,0.0,0.0,0.0,0.0,0.0,0.0,0.0,0.0,0.0,0.0,0.0,0.0,0.0,0.0,0.0,0.0,0.0,0.0,0.0,0.0,0.0,0.0,0.0,0.0,0.0,0.0,0.0,0.0,0.0,0.0,0.0,0.0,0.0,0.0,0.0,0.0,0.0,0.0,0.0,0.0,0.0,0.0,0.0,0.0,0.0,0.0,0.0,0.0,0.0,0.0,0.0,0.0,0.0,0.0,0.0,0.0,0.0,0.0,0.0,0.0,0.0,0.0,0.0,0.0,0.0,0.0,0.0,0.0,0.0,0.0,0.0,0.0,0.0,0.0,0.0,0.0,0.0,0.0,0.0,0.0,0.0,0.0,0.0,0.0,0.0,0.0,0.0,0.0,0.0,0.0,0.0,0.0,0.0,0.0,0.0,0.0,0.0,0.0,0.0,0.0,0.0,0.0,0.0,0.0,0.0,0.0,0.0,0.0,0.0,0.0,0.0,0.0,0.0,0.0,0.0,0.0,0.0,0.0,0.0,0.0,0.0,0.0,0.0,0.0,0.0,0.0,0.0,0.0,0.0,0.0,0.0,0.0,0.0,0.0,0.0,0.0,0.0,0.0,0.0,0.0,0.0,0.0,0.0,0.0,0.0,0.0,0.0,0.0,0.0,0.0,0.0,0.0,0.0,0.0,0.0,0.0,0.0,0.0,0.0,0.0,0.0,0.0,0.0,0.0,0.0,0.0,0.0,0.0,0.0,0.0,0.0,0.0,0.0,0.0,0.0,0.0,0.0,0.0,0.0,0.0,0.0,0.0,0.0,0.0,0.0,0.0,0.0,0.0,0.0,0.0,0.0,0.0,0.0,0.0,0.0,0.0,0.0,0.0,0.0,0.0,0.0,0.0,0.0,0.0,0.0,0.0,0.0,0.0,0.0,0.0,0.0,0.0,0.0,0.0,0.0,0.0,0.0,0.0,0.0,0.0,0.0,0.0,0.0,0.0,0.0,0.0,0.0,0.0,0.0,0.0,0.0,0.0,0.0,0.0,0.0,0.0,0.0,0.0,0.0,0.0,0.0,0.0,0.0,0.0,0.0,0.0,0.0,0.0,0.0,0.0,0.0,0.0,0.0,0.0,0.0,0.0,0.0,0.0,0.0,0.0,0.0,0.0,0.0,0.0,0.0,0.0,0.0,0.0,0.0,0.0,0.0,0.0,0.0,0.0,0.0,0.0,0.0,0.0,0.0,0.0,0.0,0.0,0.0,0.0,0.0,0.0,0.0,0.0,0.0,0.0,0.0,0.0,0.0,0.0,0.0,0.0,0.0,0.0,0.0,0.0,0.0,0.0,0.0,0.0,0.0,0.0,0.0,0.0,0.0,0.0,0.0,0.0,0.0,0.0,0.0,0.0,0.0,0.0,0.0,0.0,0.0,0.0,0.0,0.0,0.0,0.0,0.0,0.0,0.0,0.0,0.0,0.0,0.0,0.0,0.0,0.0,0.0,0.0,0.0,0.0,0.0,0.0,0.0,0.0,0.0,0.0,0.0,0.0,0.0,0.0,0.0,0.0,0.0,0.0,0.0,0.0,0.0,0.0,0.0,0.0,0.0,0.0,0.0,0.0,0.0,0.0,0.0,0.0,0.0,0.0,0.0,0.0,0.0,0.0,0.0,0.0,0.0,0.0,0.0,0.0,0.0,0.0,0.0,0.0,0.0,0.0,0.0,0.0,0.0,0.0,0.0,0.0,0.0,0.0,0.0,0.0,0.0,0.0,0.0,0.0,0.0,0.0,0.0,0.0,0.0,0.0,0.0,0.0,0.0,0.0,-1.1416,0.0,0.0,0.0,-1.0481,0.0,0.0,0.0,0.0,0.0,0.0,0.0,0.0,0.0,0.0,0.0,0.0,0.0,0.0,0.0,0.0,0.0,0.0,0.0,0.0,0.0,0.0,0.0,0.0,0.0,0.0,0.0,0.0,0.0,0.0,0.0,0.0,0.0,0.0,0.0,0.0,0.0,0.0,0.0,0.0,0.0,0.0,0.0,0.0,0.0,0.0,0.0,0.0,0.0,0.0,0.0,0.0,0.0,0.0,0.0,0.0,0.0,0.0,0.0,0.0,0.0,0.0,0.0,0.0,0.0,0.0,0.0,0.0,0.0,0.0,0.0,0.0,0.0,0.0,0.0,0.0,0.0,0.0,0.0,0.0,0.0,0.0,0.0,0.0,0.0,0.0,0.0,0.0,0.0,0.0,0.0,0.0,0.0,0.0,0.0,0.0,0.0,0.0,0.0,0.0,0.0,0.0,0.0,0.0,0.0,0.0,0.0,0.0,0.0,0.0,-1.1477,-1.103,-1.0992,-1.0992,-1.0877,0.0,0.0,0.0,0.0,0.0,0.0,0.0,0.0,0.0,0.0,0.0,0.0,0.0,0.0,0.0,0.0,0.0,0.0,0.0,0.0,0.0,0.0,0.0,0.0,0.0,0.0,0.0,0.0,0.0,0.0,0.0,0.0,0.0,0.0,0.0,0.0,0.0,0.0,0.0,0.0,0.0,0.0,0.0,0.0,0.0,0.0,0.0,0.0,0.0,0.0,0.0,0.0,0.0,0.0,0.0,0.0,0.0,0.0,0.0,0.0,0.0,0.0,0.0,0.0,0.0,0.0,0.0,0.0,0.0,0.0,0.0,0.0,0.0,0.0,0.0,0.0,0.0,0.0,0.0,0.0,0.0,0.0,0.0,0.0,0.0,0.0,0.0,0.0,0.0,0.0,0.0,0.0,0.0,0.0,0.0,0.0,0.0,0.0,0.0,0.0,0.0,0.0,0.0,0.0,0.0,0.0,0.0,0.0,0.0,0.0,0.0,0.0,-1.1354,-1.1354,-1.1334,0.0,0.0,0.0,0.0,0.0,0.0,0.0,0.0,0.0,0.0,0.0,0.0,0.0,0.0,0.0,0.0,0.0,0.0,0.0,0.0,0.0,0.0,0.0,0.0,0.0,0.0,0.0,0.0,0.0,0.0,0.0,0.0,0.0,0.0,0.0,0.0,0.0,0.0,0.0,0.0,0.0,0.0,0.0,0.0,0.0,0.0,0.0,0.0,0.0,0.0,0.0,0.0,0.0,0.0,0.0,0.0,0.0,0.0,0.0,0.0,0.0,0.0,0.0,0.0,0.0,0.0,0.0,0.0,0.0,0.0,0.0,0.0,0.0,0.0,0.0,0.0,0.0,0.0,0.0,0.0,0.0,0.0,0.0,0.0,0.0,0.0,0.0,0.0,0.0,0.0,0.0,0.0,0.0,0.0,0.0,0.0,0.0,0.0,0.0,0.0,0.0,0.0,0.0,0.0,0.0,0.0,0.0,0.0,0.0,0.0,-1.1966,-1.176,-1.1797,0.0,-1.1772,0.0,0.0,0.0,0.0,0.0,0.0,0.0,0.0,0.0,0.0,0.0,0.0,0.0,0.0,0.0,0.0,0.0,0.0,0.0,0.0,0.0,0.0,0.0,0.0,0.0,0.0,0.0,0.0,0.0,0.0,0.0,0.0,0.0,0.0,0.0,0.0,0.0,0.0,0.0,0.0,0.0,0.0,0.0,0.0,0.0,0.0,0.0,0.0,0.0,0.0,0.0,0.0,0.0,0.0,0.0,0.0,0.0,0.0,0.0,0.0,0.0,0.0,0.0,0.0,0.0,0.0,0.0,0.0,0.0,0.0,0.0,0.0,0.0,0.0,0.0,0.0,0.0,0.0,0.0,0.0,0.0,0.0,0.0,0.0,0.0,0.0,0.0,0.0,0.0,0.0,0.0,0.0,0.0,0.0,0.0,0.0,0.0,0.0,0.0,0.0,0.0,0.0,0.0,0.0,0.0,0.0,0.0,0.0,0.0,0.0,-1.2312,-1.2282,-1.2316,-1.2395,0.0,0.0,0.0,0.0,0.0,0.0,0.0,0.0,0.0,0.0,0.0,0.0,0.0,0.0,0.0,0.0,0.0,0.0,0.0,0.0,0.0,0.0,0.0,0.0,0.0,0.0,0.0,0.0,0.0,0.0,0.0,0.0,0.0,0.0,0.0,0.0,0.0,0.0,0.0,0.0,0.0,0.0,0.0,0.0,0.0,0.0,0.0,0.0,0.0,0.0,0.0,0.0,0.0,0.0,0.0,0.0,0.0,0.0,0.0,0.0,0.0,0.0,0.0,0.0,0.0,0.0,0.0,0.0,0.0,0.0,0.0,0.0,0.0,0.0,0.0,0.0,0.0,0.0,0.0,0.0,0.0,0.0,0.0,0.0,0.0,0.0,0.0,0.0,0.0,0.0,0.0,0.0,0.0,0.0,0.0,0.0,0.0,0.0,0.0,0.0,0.0,0.0,0.0,0.0,0.0,0.0,0.0,0.0,0.0,0.0,-1.2465,-1.2687,-1.2809,-1.2734,-1.2843,-1.316,0.0,0.0,0.0,0.0,0.0,0.0,0.0,0.0,0.0,0.0,0.0,0.0,0.0,0.0,0.0,0.0,0.0,0.0,0.0,0.0,0.0,0.0,0.0,0.0,0.0,0.0,0.0,0.0,0.0,0.0,0.0,0.0,0.0,0.0,0.0,0.0,0.0,0.0,0.0,0.0,0.0,0.0,0.0,0.0,0.0,0.0,0.0,0.0,0.0,0.0,0.0,0.0,0.0,0.0,0.0,0.0,0.0,0.0,0.0,0.0,0.0,0.0,0.0,0.0,0.0,0.0,0.0,0.0,0.0,0.0,0.0,0.0,0.0,0.0,0.0,0.0,0.0,0.0,0.0,0.0,0.0,0.0,0.0,0.0,0.0,0.0,0.0,0.0,0.0,0.0,0.0,0.0,0.0,0.0,0.0,0.0,0.0,0.0,0.0,0.0,0.0,0.0,0.0,0.0,0.0,0.0,0.0,0.0,-1.2757,-1.2831,-1.3009,-1.3357,-1.3048,-1.2975,0.0,0.0,0.0,0.0,0.0,0.0,0.0,0.0,0.0,0.0,0.0,0.0,0.0,0.0,0.0,0.0,0.0,0.0,0.0,0.0,0.0,0.0,0.0,0.0,0.0,0.0,0.0,0.0,0.0,0.0,0.0,0.0,0.0,0.0,0.0,0.0,0.0,0.0,0.0,0.0,0.0,0.0,0.0,0.0,0.0,0.0,0.0,0.0,0.0,0.0,0.0,0.0,0.0,0.0,0.0,0.0,0.0,0.0,0.0,0.0,0.0,0.0,0.0,0.0,0.0,0.0,0.0,0.0,0.0,0.0,0.0,0.0,0.0,0.0,0.0,0.0,0.0,0.0,0.0,0.0,0.0,0.0,0.0,0.0,0.0,0.0,0.0,0.0,0.0,0.0,0.0,0.0,0.0,0.0,0.0,0.0,0.0,0.0,0.0,0.0,0.0,0.0,0.0,0.0,0.0,0.0,0.0,0.0,0.0,-1.2784,-1.3147,-1.3517,-1.3831,-1.3467,-1.3397,0.0,0.0,0.0,0.0,0.0,0.0,0.0,0.0,0.0,0.0,0.0,0.0,0.0,0.0,0.0,0.0,0.0,0.0,0.0,0.0,0.0,0.0,0.0,0.0,0.0,0.0,0.0,0.0,0.0,0.0,0.0,0.0,0.0,0.0,0.0,0.0,0.0,0.0,0.0,0.0,0.0,0.0,0.0,0.0,0.0,0.0,0.0,0.0,0.0,0.0,0.0,0.0,0.0,0.0,0.0,0.0,0.0,0.0,0.0,0.0,0.0,0.0,0.0,0.0,0.0,0.0,0.0,0.0,0.0,0.0,0.0,0.0,0.0,0.0,0.0,0.0,0.0,0.0,0.0,0.0,0.0,0.0,0.0,0.0,0.0,0.0,0.0,0.0,0.0,0.0,0.0,0.0,0.0,0.0,0.0,0.0,0.0,0.0,0.0,0.0,0.0,0.0,0.0,0.0,0.0,0.0,0.0,0.0,0.0,-1.3213,-1.3667,-1.3986,-1.4202,-1.394,-1.3773,0.0,0.0,0.0,0.0,0.0,0.0,0.0,0.0,0.0,0.0,0.0,0.0,0.0,0.0,0.0,0.0,0.0,0.0,0.0,0.0,0.0,0.0,0.0,0.0,0.0,0.0,0.0,0.0,0.0,0.0,0.0,0.0,0.0,0.0,0.0,0.0,0.0,0.0,0.0,0.0,0.0,0.0,0.0,0.0,0.0,0.0,0.0,0.0,0.0,0.0,0.0,0.0,0.0,0.0,0.0,0.0,0.0,0.0,0.0,0.0,0.0,0.0,0.0,0.0,0.0,0.0,0.0,0.0,0.0,0.0,0.0,0.0,0.0,0.0,0.0,0.0,0.0,0.0,0.0,0.0,0.0,0.0,0.0,0.0,0.0,0.0,0.0,0.0,0.0,0.0,0.0,0.0,0.0,0.0,0.0,0.0,0.0,0.0,0.0,0.0,0.0,0.0,0.0,0.0,0.0,0.0,0.0,0.0,-1.3226,-1.4041,-1.4362,-1.4466,-1.4522,-1.4414,-1.4227,0.0,0.0,0.0,0.0,0.0,0.0,0.0,0.0,0.0,0.0,0.0,0.0,0.0,0.0,0.0,0.0,0.0,0.0,0.0,0.0,0.0,0.0,0.0,0.0,0.0,0.0,0.0,0.0,0.0,0.0,0.0,0.0,0.0,0.0,0.0,0.0,0.0,0.0,0.0,0.0,0.0,0.0,0.0,0.0,0.0,0.0,0.0,0.0,0.0,0.0,0.0,0.0,0.0,0.0,0.0,0.0,0.0,0.0,0.0,0.0,0.0,0.0,0.0,0.0,0.0,0.0,0.0,0.0,0.0,0.0,0.0,0.0,0.0,0.0,0.0,0.0,0.0,0.0,0.0,0.0,0.0,0.0,0.0,0.0,0.0,0.0,0.0,0.0,0.0,0.0,0.0,0.0,0.0,0.0,0.0,0.0,0.0,0.0,0.0,0.0,0.0,0.0,0.0,0.0,0.0,0.0,0.0,0.0,0.0,-1.4082,-1.462,-1.483,-1.4861,-1.4665,-1.4559,0.0,0.0,0.0,0.0,0.0,0.0,0.0,0.0,0.0,0.0,0.0,0.0,0.0,0.0,0.0,0.0,0.0,0.0,0.0,0.0,0.0,0.0,0.0,0.0,0.0,0.0,0.0,0.0,0.0,0.0,0.0,0.0,0.0,0.0,0.0,0.0,0.0,0.0,0.0,0.0,0.0,0.0,0.0,0.0,0.0,0.0,0.0,0.0,0.0,0.0,0.0,0.0,0.0,0.0,0.0,0.0,0.0,0.0,0.0,0.0,0.0,0.0,0.0,0.0,0.0,0.0,0.0,0.0,0.0,0.0,0.0,0.0,0.0,0.0,0.0,0.0,0.0,0.0,0.0,0.0,0.0,0.0,0.0,0.0,0.0,0.0,0.0,0.0,0.0,0.0,0.0,0.0,0.0,0.0,0.0,0.0,0.0,0.0,0.0,0.0,0.0,0.0,0.0,0.0,0.0,0.0,0.0,0.0,0.0,-1.4941,-1.515,-1.5337,-1.5444,-1.5425,-1.5259,-1.4993,0.0,0.0,0.0,0.0,0.0,0.0,0.0,0.0,0.0,0.0,0.0,0.0,0.0,0.0,0.0,0.0,0.0,0.0,0.0,0.0,0.0,0.0,0.0,0.0,0.0,0.0,0.0,0.0,0.0,0.0,0.0,0.0,0.0,0.0,0.0,0.0,0.0,0.0,0.0,0.0,0.0,0.0,0.0,0.0,0.0,0.0,0.0,0.0,0.0,0.0,0.0,0.0,0.0,0.0,0.0,0.0,0.0,0.0,0.0,0.0,0.0,0.0,0.0,0.0,0.0,0.0,0.0,0.0,0.0,0.0,0.0,0.0,0.0,0.0,0.0,0.0,0.0,0.0,0.0,0.0,0.0,0.0,0.0,0.0,0.0,0.0,0.0,0.0,0.0,0.0,0.0,0.0,0.0,0.0,0.0,0.0,0.0,0.0,0.0,0.0,0.0,0.0,0.0,0.0,0.0,0.0,0.0,0.0,-1.6375,-1.6086,-1.6072,-1.6362,-1.6484,-1.6228,0.0,0.0,0.0,0.0,0.0,0.0,0.0,0.0,0.0,0.0,0.0,0.0,0.0,0.0,0.0,0.0,0.0,0.0,0.0,0.0,0.0,0.0,0.0,0.0,0.0,0.0,0.0,0.0,0.0,0.0,0.0,0.0,0.0,0.0,0.0,0.0,0.0,0.0,0.0,0.0,0.0,0.0,0.0,0.0,0.0,0.0,0.0,0.0,0.0,0.0,0.0,0.0,0.0,0.0,0.0,0.0,0.0,0.0,0.0,0.0,0.0,0.0,0.0,0.0,0.0,0.0,0.0,0.0,0.0,0.0,0.0,0.0,0.0,0.0,0.0,0.0,0.0,0.0,0.0,0.0,0.0,0.0,0.0,0.0,0.0,0.0,0.0,0.0,0.0,0.0,0.0,0.0,0.0,0.0,0.0,0.0,0.0,0.0,0.0,0.0,0.0,0.0,0.0,0.0,0.0,0.0,0.0,0.0,0.0,-1.7233,-1.7329,-1.7288,-1.6978,-1.6911,-1.6636,0.0,0.0,0.0,0.0,0.0,0.0,0.0,0.0,0.0,0.0,0.0,0.0,0.0,0.0,0.0,0.0,0.0,0.0,0.0,0.0,0.0,0.0,0.0,0.0,0.0,0.0,0.0,0.0,0.0,0.0,0.0,0.0,0.0,0.0,0.0,0.0,0.0,0.0,0.0,0.0,0.0,0.0,0.0,0.0,0.0,0.0,0.0,0.0,0.0,0.0,0.0,0.0,0.0,0.0,0.0,0.0,0.0,0.0,0.0,0.0,0.0,0.0,0.0,0.0,0.0,0.0,0.0,0.0,0.0,0.0,0.0,0.0,0.0,0.0,0.0,0.0,0.0,0.0,0.0,0.0,0.0,0.0,0.0,0.0,0.0,0.0,0.0,0.0,0.0,0.0,0.0,0.0,0.0,0.0,0.0,0.0,0.0,0.0,0.0,0.0,0.0,0.0,0.0,0.0,0.0,0.0,0.0,0.0,-1.7077,-1.7756,-1.8142,-1.825,-1.7903,-1.7709,-1.7429,0.0,0.0,0.0,0.0,0.0,0.0,0.0,0.0,0.0,0.0,0.0,0.0,0.0,0.0,0.0,0.0,0.0,0.0,0.0,0.0,0.0,0.0,0.0,0.0,0.0,0.0,0.0,0.0,0.0,0.0,0.0,0.0,0.0,0.0,0.0,0.0,0.0,0.0,0.0,0.0,0.0,0.0,0.0,0.0,0.0,0.0,0.0,0.0,0.0,0.0,0.0,0.0,0.0,0.0,0.0,0.0,0.0,0.0,0.0,0.0,0.0,0.0,0.0,0.0,0.0,0.0,0.0,0.0,0.0,0.0,0.0,0.0,0.0,0.0,0.0,0.0,0.0,0.0,0.0,0.0,0.0,0.0,0.0,0.0,0.0,0.0,0.0,0.0,0.0,0.0,0.0,0.0,0.0,0.0,0.0,0.0,0.0,0.0,0.0,0.0,0.0,0.0,0.0,0.0,0.0,0.0,0.0,0.0,-1.7736,-1.8116,-1.8718,-1.9011,-1.8985,-1.8658,-1.8325,0.0,0.0,0.0,0.0,0.0,0.0,0.0,0.0,0.0,0.0,0.0,0.0,0.0,0.0,0.0,0.0,0.0,0.0,0.0,0.0,0.0,0.0,0.0,0.0,0.0,0.0,0.0,0.0,0.0,0.0,0.0,0.0,0.0,0.0,0.0,0.0,0.0,0.0,0.0,0.0,0.0,0.0,0.0,0.0,0.0,0.0,0.0,0.0,0.0,0.0,0.0,0.0,0.0,0.0,0.0,0.0,0.0,0.0,0.0,0.0,0.0,0.0,0.0,0.0,0.0,0.0,0.0,0.0,0.0,0.0,0.0,0.0,0.0,0.0,0.0,0.0,0.0,0.0,0.0,0.0,0.0,0.0,0.0,0.0,0.0,0.0,0.0,0.0,0.0,0.0,0.0,0.0,0.0,0.0,0.0,0.0,0.0,0.0,0.0,0.0,0.0,0.0,0.0,0.0,0.0,0.0,0.0,0.0,-1.8384,-1.8984,-1.9421,-1.9613,-1.9613,-1.9016,-1.8485,0.0,0.0,0.0,0.0,0.0,0.0,0.0,0.0,0.0,0.0,0.0,0.0,0.0,0.0,0.0,0.0,0.0,0.0,0.0,0.0,0.0,0.0,0.0,0.0,0.0,0.0,0.0,0.0,0.0,0.0,0.0,0.0,0.0,0.0,0.0,0.0,0.0,0.0,0.0,0.0,0.0,0.0,0.0,0.0,0.0,0.0,0.0,0.0,-1.7015,0.0,0.0,0.0,0.0,0.0,0.0,0.0,0.0,0.0,0.0,0.0,0.0,0.0,0.0,0.0,0.0,0.0,0.0,0.0,0.0,0.0,0.0,0.0,0.0,0.0,0.0,0.0,0.0,0.0,0.0,0.0,0.0,0.0,0.0,0.0,0.0,0.0,0.0,0.0,0.0,0.0,0.0,0.0,0.0,0.0,0.0,0.0,0.0,0.0,0.0,0.0,0.0,0.0,0.0,0.0,0.0,0.0,0.0,0.0,-1.9302,-1.9777,-1.9969,-2.0045,-1.996,-1.9633,-1.9186,0.0,0.0,0.0,0.0,0.0,0.0,0.0,0.0,0.0,0.0,0.0,0.0,0.0,0.0,0.0,0.0,0.0,0.0,0.0,0.0,0.0,0.0,0.0,0.0,0.0,0.0,0.0,0.0,0.0,0.0,0.0,0.0,0.0,0.0,0.0,0.0,0.0,0.0,0.0,0.0,0.0,0.0,0.0,0.0,0.0,0.0,0.0,0.0,0.0,0.0,0.0,0.0,0.0,0.0,0.0,0.0,0.0,0.0,0.0,0.0,0.0,0.0,0.0,0.0,0.0,0.0,0.0,0.0,0.0,0.0,0.0,0.0,0.0,0.0,0.0,0.0,0.0,0.0,0.0,0.0,0.0,0.0,0.0,0.0,0.0,0.0,0.0,0.0,0.0,0.0,0.0,0.0,0.0,0.0,0.0,0.0,0.0,0.0,0.0,0.0,0.0,0.0,0.0,0.0,0.0,0.0,0.0,-1.9928,-2.0485,-2.0644,-2.0572,-2.0593,-2.0524,-2.0469,-2.016,-1.9447,0.0,0.0,0.0,0.0,0.0,0.0,0.0,0.0,0.0,0.0,0.0,0.0,0.0,0.0,0.0,0.0,0.0,0.0,0.0,0.0,0.0,0.0,0.0,0.0,0.0,0.0,0.0,0.0,0.0,0.0,0.0,0.0,0.0,0.0,0.0,0.0,0.0,0.0,-1.7641,-1.9076,0.0,0.0,0.0,0.0,0.0,0.0,0.0,0.0,-2.0063,0.0,0.0,0.0,0.0,0.0,0.0,0.0,0.0,0.0,0.0,0.0,0.0,0.0,0.0,0.0,0.0,0.0,0.0,0.0,0.0,0.0,0.0,0.0,0.0,0.0,0.0,0.0,0.0,0.0,0.0,0.0,0.0,0.0,0.0,0.0,0.0,0.0,0.0,0.0,0.0,0.0,0.0,0.0,0.0,0.0,0.0,0.0,0.0,0.0,0.0,0.0,0.0,0.0,0.0,0.0,0.0,-2.0296,-2.1147,-2.1821,-2.2193,-2.1989,-2.1897,-2.1878,-2.1838,-2.1451,-2.0686,0.0,0.0,0.0,0.0,0.0,0.0,0.0,0.0,0.0,0.0,0.0,0.0,0.0,0.0,0.0,0.0,0.0,0.0,0.0,0.0,0.0,0.0,0.0,0.0,0.0,0.0,0.0,0.0,0.0,0.0,0.0,0.0,0.0,0.0,0.0,0.0,0.0,0.0,0.0,-2.1353,-2.2405,0.0,0.0,0.0,0.0,0.0,0.0,0.0,0.0,-2.1437,0.0,0.0,0.0,0.0,0.0,0.0,0.0,0.0,0.0,0.0,0.0,0.0,0.0,0.0,0.0,0.0,0.0,0.0,0.0,0.0,0.0,0.0,0.0,0.0,0.0,0.0,0.0,0.0,0.0,0.0,0.0,0.0,0.0,0.0,0.0,0.0,0.0,0.0,0.0,0.0,0.0,0.0,0.0,0.0,0.0,0.0,0.0,0.0,0.0,0.0,0.0,0.0,0.0,0.0,0.0,-2.2233,-2.3161,-2.3888,-2.4343,-2.3774,-2.3429,-2.3458,-2.3067,-2.2543,0.0,0.0,0.0,0.0,0.0,0.0,0.0,0.0,0.0,0.0,0.0,0.0,0.0,0.0,0.0,0.0,0.0,0.0,0.0,0.0,0.0,0.0,0.0,0.0,0.0,0.0,0.0,0.0,0.0,0.0,0.0,0.0,0.0,0.0,0.0,0.0,0.0,0.0,0.0,0.0,-2.2455,-2.3541,-2.39,0.0,0.0,0.0,0.0,0.0,0.0,-2.3565,-2.3059,0.0,0.0,0.0,0.0,0.0,0.0,0.0,0.0,0.0,0.0,0.0,0.0,0.0,0.0,0.0,0.0,0.0,0.0,0.0,0.0,0.0,0.0,0.0,0.0,0.0,0.0,0.0,0.0,0.0,0.0,0.0,0.0,0.0,0.0,0.0,0.0,0.0,0.0,0.0,0.0,0.0,0.0,0.0,0.0,0.0,0.0,0.0,0.0,0.0,0.0,0.0,0.0,0.0,0.0,0.0,-2.419,-2.5148,-2.5957,-2.6431,-2.5731,-2.5307,-2.5212,-2.4499,-2.3799,0.0,0.0,0.0,0.0,0.0,0.0,0.0,0.0,0.0,0.0,0.0,0.0,0.0,0.0,0.0,0.0,0.0,0.0,0.0,0.0,0.0,0.0,0.0,0.0,0.0,0.0,0.0,0.0,0.0,0.0,0.0,0.0,0.0,0.0,0.0,0.0,0.0,0.0,0.0,0.0,0.0,-2.4519,-2.5264,-2.5463,0.0,0.0,0.0,0.0,-2.5858,-2.5462,0.0,0.0,0.0,0.0,0.0,0.0,0.0,0.0,0.0,0.0,0.0,0.0,0.0,0.0,0.0,0.0,0.0,0.0,0.0,0.0,0.0,0.0,0.0,0.0,0.0,0.0,0.0,0.0,0.0,0.0,0.0,0.0,0.0,0.0,0.0,0.0,0.0,0.0,0.0,0.0,0.0,0.0,0.0,0.0,0.0,0.0,0.0,0.0,0.0,0.0,0.0,0.0,0.0,0.0,0.0,0.0,-2.5521,-2.6444,-2.7332,-2.8253,-2.7887,-2.7589,-2.7316,-2.6602,-2.5625,0.0,0.0,0.0,0.0,0.0,0.0,0.0,0.0,0.0,0.0,0.0,0.0,0.0,0.0,0.0,0.0,0.0,0.0,0.0,0.0,0.0,0.0,0.0,0.0,0.0,0.0,0.0,0.0,0.0,0.0,0.0,0.0,0.0,0.0,0.0,0.0,0.0,0.0,0.0,0.0,0.0,-2.5837,-2.6777,-2.7487,-2.7743,0.0,0.0,-2.8139,-2.7646,-2.7545,0.0,0.0,0.0,0.0,0.0,0.0,0.0,0.0,0.0,0.0,0.0,0.0,0.0,0.0,0.0,0.0,0.0,0.0,0.0,0.0,0.0,0.0,0.0,0.0,0.0,0.0,0.0,0.0,0.0,0.0,0.0,0.0,0.0,0.0,0.0,0.0,0.0,0.0,0.0,0.0,0.0,0.0,0.0,0.0,0.0,0.0,0.0,0.0,0.0,0.0,0.0,0.0,0.0,0.0,0.0,-2.4737,-2.6806,-2.8009,-2.9067,-2.9927,-2.969,-2.9542,-2.94,-2.8445,-2.7311,0.0,0.0,0.0,0.0,0.0,0.0,0.0,0.0,0.0,0.0,0.0,0.0,0.0,0.0,0.0,0.0,0.0,0.0,0.0,0.0,0.0,0.0,0.0,0.0,0.0,0.0,0.0,0.0,0.0,0.0,0.0,0.0,0.0,0.0,0.0,0.0,0.0,0.0,0.0,0.0,0.0,0.0,-2.8249,-2.9005,0.0,0.0,0.0,-3.0353,-3.0284,0.0,0.0,0.0,0.0,0.0,0.0,0.0,0.0,0.0,0.0,0.0,0.0,0.0,0.0,0.0,0.0,0.0,0.0,0.0,0.0,0.0,0.0,0.0,0.0,0.0,0.0,0.0,0.0,0.0,0.0,0.0,0.0,0.0,0.0,0.0,0.0,0.0,0.0,0.0,0.0,0.0,0.0,0.0,0.0,0.0,0.0,0.0,0.0,0.0,0.0,0.0,0.0,0.0,0.0,0.0,0.0,0.0,-2.7949,-2.9346,-3.0509,-3.1416,-3.1275,-3.1219,-3.1076,-3.0069,0.0,0.0,0.0,0.0,0.0,0.0,0.0,0.0,0.0,0.0,0.0,0.0,0.0,0.0,0.0,0.0,0.0,0.0,0.0,0.0,0.0,0.0,0.0,0.0,0.0,0.0,0.0,-1.4566,0.0,0.0,0.0,0.0,0.0,0.0,0.0,0.0,0.0,0.0,0.0,0.0,0.0,0.0,-2.8224,-2.9787,-3.0612,-3.1291,0.0,0.0,-3.237,-3.2548,-3.1816,-3.0819,0.0,0.0,0.0,0.0,0.0,0.0,0.0,0.0,0.0,0.0,0.0,0.0,0.0,0.0,0.0,0.0,0.0,0.0,0.0,0.0,0.0,0.0,0.0,0.0,0.0,0.0,0.0,0.0,0.0,0.0,0.0,0.0,0.0,0.0,0.0,0.0,0.0,0.0,0.0,0.0,0.0,0.0,0.0,0.0,0.0,0.0,0.0,0.0,0.0,0.0,0.0,0.0,0.0,0.0,-2.6289,-2.8769,-3.0176,-3.1445,-3.2656,-3.2672,-3.2506,-3.2195,-3.137,-3.0197,0.0,0.0,0.0,0.0,0.0,0.0,0.0,0.0,0.0,0.0,0.0,0.0,0.0,0.0,0.0,0.0,0.0,0.0,0.0,0.0,0.0,0.0,0.0,0.0,0.0,0.0,0.0,0.0,0.0,0.0,0.0,0.0,0.0,0.0,0.0,0.0,0.0,0.0,0.0,0.0,0.0,-2.9814,-3.1336,-3.2668,-3.346,0.0,-3.3738,-3.385,-3.3896,-3.2985,-3.1927,-3.0844,0.0,0.0,0.0,0.0,0.0,0.0,0.0,0.0,0.0,0.0,0.0,0.0,0.0,0.0,0.0,0.0,0.0,0.0,0.0,0.0,0.0,0.0,0.0,0.0,0.0,0.0,0.0,0.0,0.0,0.0,0.0,0.0,0.0,0.0,0.0,0.0,0.0,0.0,0.0,0.0,0.0,0.0,0.0,0.0,0.0,0.0,0.0,0.0,0.0,0.0,0.0,0.0,0.0,-2.6621,-2.8887,-3.0469,-3.1777,-3.2754,-3.3047,-3.3121,-3.2995,-3.2432,-3.1459,0.0,0.0,0.0,0.0,0.0,0.0,0.0,0.0,0.0,0.0,0.0,0.0,0.0,0.0,0.0,0.0,0.0,0.0,0.0,0.0,0.0,0.0,0.0,0.0,0.0,0.0,0.0,0.0,-1.945,-2.01,-1.9913,0.0,0.0,0.0,0.0,0.0,0.0,0.0,0.0,0.0,0.0,-3.2247,-3.3675,-3.4878,0.0,0.0,-3.5861,-3.5806,-3.5949,-3.5027,-3.3956,-3.2903,-3.0882,0.0,0.0,0.0,0.0,0.0,0.0,0.0,0.0,0.0,0.0,0.0,0.0,0.0,0.0,0.0,0.0,0.0,0.0,0.0,0.0,0.0,0.0,0.0,0.0,0.0,0.0,0.0,0.0,0.0,0.0,0.0,0.0,0.0,0.0,0.0,0.0,0.0,0.0,0.0,0.0,0.0,0.0,0.0,0.0,0.0,0.0,0.0,0.0,0.0,0.0,0.0,0.0,-2.7051,-2.9297,-3.0898,-3.2129,-3.2949,-3.3262,-3.3418,-3.3398,-3.3027,-3.2266,0.0,0.0,0.0,0.0,0.0,0.0,0.0,0.0,0.0,0.0,0.0,0.0,0.0,0.0,0.0,0.0,0.0,0.0,0.0,0.0,0.0,0.0,0.0,0.0,0.0,0.0,0.0,0.0,-2.0687,-2.1112,-2.1034,0.0,0.0,0.0,0.0,0.0,0.0,0.0,0.0,0.0,0.0,-3.4616,-3.5852,-3.6787,-3.7441,-3.7692,-3.7418,-3.7167,-3.7211,-3.6408,-3.5382,-3.4324,0.0,0.0,0.0,0.0,0.0,0.0,0.0,0.0,0.0,0.0,0.0,0.0,0.0,0.0,0.0,0.0,0.0,0.0,0.0,0.0,0.0,0.0,0.0,0.0,0.0,0.0,0.0,-1.8072,0.0,0.0,-1.9299,0.0,0.0,0.0,0.0,0.0,0.0,0.0,0.0,0.0,0.0,0.0,0.0,0.0,0.0,0.0,0.0,0.0,0.0,0.0,0.0,0.0,0.0,-2.7617,-3.0137,-3.1465,-3.2559,-3.3359,-3.3418,-3.3418,-3.3418,-3.3027,-3.2383,-3.1504,0.0,0.0,0.0,0.0,0.0,0.0,0.0,0.0,0.0,0.0,0.0,0.0,0.0,0.0,0.0,0.0,0.0,0.0,0.0,0.0,0.0,0.0,0.0,0.0,0.0,0.0,-2.1228,-2.1796,-2.2026,0.0,0.0,0.0,0.0,0.0,0.0,0.0,0.0,0.0,-3.2281,-3.4758,-3.6667,-3.7749,-3.8174,-3.8287,-3.804,-3.8015,-3.7814,-3.7312,-3.6759,-3.6031,0.0,0.0,0.0,0.0,0.0,0.0,0.0,0.0,0.0,0.0,0.0,0.0,0.0,0.0,0.0,0.0,0.0,0.0,0.0,0.0,0.0,0.0,0.0,0.0,0.0,0.0,0.0,-1.9279,-1.918,0.0,0.0,0.0,0.0,0.0,0.0,0.0,0.0,0.0,0.0,0.0,-2.8069,-2.8255,0.0,0.0,0.0,0.0,0.0,0.0,0.0,0.0,0.0,0.0,0.0,0.0,-2.8223,-3.0156,-3.1504,-3.2578,-3.3379,-3.3418,-3.3418,-3.3418,-3.3281,-3.2676,-3.1543,0.0,0.0,0.0,0.0,0.0,0.0,0.0,0.0,0.0,0.0,0.0,0.0,0.0,0.0,0.0,0.0,0.0,0.0,0.0,0.0,0.0,0.0,0.0,0.0,0.0,-2.2187,0.0,0.0,0.0,0.0,0.0,0.0,0.0,0.0,0.0,0.0,0.0,-3.1914,-3.4315,-3.6864,-3.8618,-3.9002,-3.9469,-3.9626,0.0,0.0,0.0,0.0,0.0,0.0,0.0,0.0,0.0,0.0,0.0,0.0,0.0,0.0,-3.0508,-2.8201,-2.7767,-2.7767,-2.7767,0.0,0.0,0.0,0.0,0.0,0.0,0.0,0.0,0.0,0.0,0.0,0.0,0.0,0.0,-2.0662,0.0,-2.1468,0.0,0.0,0.0,0.0,0.0,0.0,0.0,0.0,-2.8937,-2.9678,-3.0176,-3.0371,-3.0277,0.0,-2.9848,-2.8758,0.0,0.0,0.0,0.0,0.0,0.0,0.0,0.0,-2.8945,-3.0625,-3.1797,-3.2715,-3.3379,-3.3418,-3.3418,-3.3418,-3.3281,-3.2812,-3.1992,-3.0723,-2.9293,0.0,0.0,0.0,0.0,0.0,0.0,0.0,0.0,0.0,0.0,0.0,0.0,0.0,0.0,0.0,0.0,0.0,0.0,0.0,0.0,0.0,0.0,0.0,-2.4003,0.0,0.0,0.0,0.0,0.0,0.0,0.0,0.0,0.0,-2.8519,-3.1345,-3.4208,-3.6365,-3.8316,-3.9656,-3.99,0.0,0.0,0.0,0.0,0.0,0.0,0.0,-3.8115,-3.7563,-3.7161,-3.6759,-3.6207,-3.5981,-3.5881,-3.5809,0.0,0.0,-3.1922,-3.1322,-3.1322,-3.1446,-3.1665,-3.1884,-3.2166,-3.2878,-3.358,0.0,0.0,0.0,0.0,0.0,0.0,0.0,0.0,-2.1498,-2.2047,0.0,-2.3001,0.0,0.0,0.0,0.0,-2.5979,-2.7555,0.0,0.0,-3.0306,-3.1073,-3.17,-3.178,-3.1689,-3.1582,-3.1523,-3.1309,-3.0762,-2.8863,0.0,0.0,0.0,0.0,0.0,0.0,-2.9805,-3.1484,-3.2344,-3.2988,-3.3398,-3.3418,-3.3418,-3.3398,-3.3047,-3.2832,-3.2773,-3.1621,-3.0547,-2.9704,-2.8117,0.0,0.0,0.0,0.0,0.0,0.0,0.0,0.0,0.0,0.0,0.0,0.0,0.0,0.0,0.0,0.0,0.0,0.0,0.0,0.0,-2.5322,0.0,0.0,0.0,0.0,0.0,0.0,0.0,0.0,0.0,0.0,-3.2204,-3.3778,-3.5881,-3.8444,0.0,0.0,0.0,0.0,-4.0057,-3.9774,-3.9697,-3.9496,-3.8994,-3.8894,-3.8768,-3.8165,0.0,0.0,-3.7412,-3.7764,-3.8115,-3.8115,-3.8944,-3.8718,-3.5554,-3.4926,-3.4967,-3.5167,-3.5302,-3.5545,-3.6139,-3.6332,-3.6691,-2.1951,0.0,0.0,0.0,0.0,-2.1047,-2.1289,-2.1568,-2.2641,-2.3093,-2.3119,-2.4329,0.0,0.0,0.0,0.0,0.0,0.0,-3.0568,-3.1382,-3.1924,-3.2409,-3.2859,-3.2941,-3.2727,-3.2441,-3.2422,-3.2207,-3.1797,-3.1172,-3.0174,-2.8672,0.0,0.0,0.0,0.0,-3.0547,-3.1914,-3.2519,-3.2988,-3.3418,-3.3418,-3.3418,-3.3418,-3.3301,-3.3242,-3.3242,-3.2598,-3.1855,-3.0976,-2.9992,0.0,0.0,0.0,0.0,0.0,0.0,0.0,0.0,0.0,0.0,0.0,0.0,0.0,0.0,0.0,0.0,0.0,0.0,0.0,-2.7698,-2.8119,-2.8166,0.0,0.0,0.0,0.0,0.0,0.0,0.0,0.0,0.0,-3.6063,-3.6902,-3.7802,0.0,0.0,-4.0798,-4.0745,-4.0718,-4.0563,-4.0275,-3.9948,0.0,-3.9496,-3.9446,-3.9396,-3.9245,-3.9521,-3.9873,-4.0124,-4.03,-4.0322,-4.0375,-4.0651,-4.0578,-3.9929,-3.907,-3.8613,-3.8686,-3.9128,-3.9485,-3.9359,-3.9653,-3.9994,-2.318,-2.2459,-2.1977,-2.1804,-2.183,-2.2124,-2.2352,-2.2606,-2.3638,-2.4074,-2.4146,-2.5565,-2.6212,-2.6386,-2.7796,0.0,0.0,0.0,-3.2299,-3.293,-3.3359,-3.3691,-3.3926,-3.3926,-3.3809,-3.3555,-3.3555,-3.332,-3.293,-3.293,-3.2226,-3.0879,0.0,-3.0078,-3.0351,-3.0762,-3.1445,-3.2383,-3.2832,-3.3164,-3.3418,-3.3418,-3.3418,-3.3418,-3.3418,-3.3418,-3.3418,-3.3184,-3.2734,-3.2051,-3.1482,-3.0362,0.0,0.0,0.0,0.0,0.0,0.0,0.0,0.0,0.0,0.0,0.0,-2.19,-2.274,0.0,0.0,0.0,-2.6617,-2.8391,-3.0578,-3.0433,0.0,0.0,0.0,0.0,0.0,0.0,0.0,-3.3388,-3.4898,-3.6441,-3.814,-3.8717,-3.907,-3.9424,-4.0311,-4.092,-4.0763,0.0,-4.091,-4.0551,-4.0249,-3.9948,-3.9722,-3.9873,-4.0074,-4.0325,-4.0626,-4.0874,-4.12,-4.1505,-4.1656,-4.1681,-4.1831,-4.2091,-4.2363,-4.2072,-4.1644,-4.1338,-4.1671,-4.1948,-4.1957,-4.2351,-4.2587,-2.4075,-2.3794,-2.3233,-2.3048,-2.2966,-2.3247,-2.3367,-2.349,-2.451,-2.4918,-2.5031,-2.6418,-2.7379,-2.7944,-2.9934,0.0,-3.1526,-3.2918,-3.3779,-3.4141,-3.4512,-3.4687,-3.4687,-3.4687,-3.4687,-3.4687,-3.4687,-3.4492,-3.4121,-3.4101,-3.373,-3.2949,-3.2168,-3.1738,-3.168,-3.209,-3.2519,-3.2949,-3.3301,-3.3457,-3.3418,-3.3418,-3.3418,-3.3418,-3.3418,-3.3418,-3.3418,-3.3418,-3.3242,-3.2832,-3.2634,-3.192,-3.0689,0.0,0.0,0.0,0.0,0.0,0.0,0.0,0.0,0.0,0.0,0.0,0.0,0.0,0.0,-2.807,-3.0067,0.0,-3.2818,-3.2394,0.0,0.0,0.0,-3.169,-3.266,-3.3424,-3.4479,-3.6048,0.0,0.0,-3.8868,-3.9371,-3.9722,-3.9747,-4.0199,-4.0526,-4.0576,-4.1028,-4.1125,-4.0777,-4.0626,-4.04,-4.0023,-4.03,-4.0752,-4.1254,-4.1351,-4.1376,-4.1476,-4.1882,-4.2263,-4.2263,-4.269,-4.3103,-4.3406,-4.3775,-4.4084,-4.3284,-4.3258,-4.3466,-4.4055,-4.4283,-4.433,-2.4489,-2.4422,-2.4275,-2.3968,-2.3567,-2.3634,-2.3794,-2.4067,-2.4925,-2.5226,-2.5283,-2.6508,-2.7734,-2.8998,-3.0611,-3.186,-3.2693,-3.3622,-3.4243,-3.4551,-3.4648,-3.4687,-3.4687,-3.4687,-3.4687,-3.4687,-3.4687,-3.4648,-3.4551,-3.4551,-3.4453,-3.4238,-3.4043,-3.3613,-3.3008,-3.3398,-3.3828,-3.4238,-3.4023,-3.375,-3.3437,-3.3418,-3.3418,-3.3418,-3.3418,-3.3418,-3.3418,-3.3418,-3.3379,-3.3262,-3.3391,-3.3031,-3.2102,-3.136,0.0,0.0,0.0,0.0,0.0,0.0,0.0,0.0,0.0,-2.7032,-2.8275,0.0,-3.1005,0.0,-3.2983,-3.4379,-3.5394,-3.506,0.0,0.0,-3.4961,-3.4733,-3.5136,-3.5752,-3.6495,-3.7415,-3.8241,-3.8868,-3.9421,-3.9622,-3.9848,-4.0249,-4.0425,-4.0676,-4.1078,-4.12,-4.1455,-4.1656,-4.1404,-4.105,-4.0924,-4.1,-4.1329,-4.1882,-4.1957,-4.2108,-4.2509,-4.2685,-4.2841,-4.2841,-4.3083,-4.3406,-4.3708,-4.4258,-4.4698,-4.4917,-4.5103,-4.518,-4.4987,-4.5086,-4.521,-2.4756,-2.4636,-2.4636,-2.4449,-2.4155,-2.4155,-2.4249,-2.4396,-2.5039,-2.5402,-2.5606,-2.6921,-2.8191,-2.9412,-3.0649,-3.1908,-3.2984,-3.3681,-3.4288,-3.4825,-3.4959,-3.5093,-3.5093,-3.5226,-3.5293,-3.5293,-3.5293,-3.5195,-3.5019,-3.5,-3.4902,-3.4707,-3.4902,-3.4766,-3.4316,-3.4336,-3.4473,-3.4687,-3.4297,-3.3945,-3.3711,-3.3516,-3.3418,-3.3418,-3.3418,-3.3481,-3.3607,-3.3607,-3.367,-3.3859,-3.4244,-3.4063,-3.3136,-3.3142,-3.2323,0.0,0.0,0.0,0.0,0.0,0.0,0.0,0.0,0.0,0.0,0.0,-3.3791,-3.4748,-3.5673,-3.6582,-3.7368,-3.7191,-3.7205,-3.7833,-3.7517,-3.7494,-3.7967,-3.8266,-3.8742,-3.937,-3.9772,-4.0099,-4.0375,-4.0425,-4.0526,-4.0852,-4.0877,-4.1078,-4.1605,-4.1907,-4.2108,-4.2187,-4.1907,-4.1706,-4.1706,-4.1706,-4.1907,-4.2384,-4.259,-4.269,-4.2992,-4.3073,-4.3184,-4.3184,-4.3406,-4.3764,-4.4148,-4.4585,-4.5126,-4.5662,-4.6034,-4.6057,-4.5787,-4.5863,-4.5858,-2.497,-2.469,-2.469,-2.4676,-2.4562,-2.4602,-2.4676,-2.4636,-2.5005,-2.5446,-2.5873,-2.726,-2.8346,-2.921,-3.0354,-3.1489,-3.2666,-3.3381,-3.4094,-3.4765,-3.5196,-3.5333,-3.5333,-3.5675,-3.5879,-3.5879,-3.5879,-3.5772,-3.5421,-3.5469,-3.5273,-3.4902,-3.5273,-3.5469,-3.5449,-3.5078,-3.4844,-3.4785,-3.4434,-3.418,-3.4062,-3.3691,-3.3476,-3.3418,-3.3418,-3.3607,-3.3859,-3.3985,-3.4173,-3.4485,-3.5108,-3.5041,-3.4106,-3.4601,-3.4029,0.0,-3.1556,0.0,0.0,0.0,0.0,0.0,0.0,0.0,0.0,-3.492,-3.6255,-3.7737,-3.8084,-3.8383,-3.8918,-3.8825,-3.9047,-3.9677,-3.9649,-3.9838,-4.0498,-4.0626,-4.0802,-4.125,-4.1275,-4.1275,-4.125,-4.1275,-4.13,-4.143,-4.1455,-4.1656,-4.2213,-4.2559,-4.2665,-4.2338,-4.2313,-4.2258,-4.2313,-4.2313,-4.2464,-4.2861,-4.2936,-4.3042,-4.3073,-4.324,-4.3462,-4.3517,-4.3819,-4.4148,-4.4668,-4.5072,-4.5448,-4.5901,-4.6245,-4.6455,-4.6455,-4.6428,-4.6535,-2.5264,-2.4997,-2.4997,-2.4863,-2.4663,-2.489,-2.4863,-2.4636,-2.5005,-2.5446,-2.5873,-2.6458,-2.7332,-2.8403,-2.9552,-3.0835,-3.2246,-3.2963,-3.359,-3.4024,-3.4439,-3.4577,-3.4665,-3.4921,-3.5127,-3.5127,-3.547,-3.5568,-3.5491,-3.5763,-3.5859,-3.5781,-3.5859,-3.5898,-3.5898,0.0,0.0,0.0,-3.5195,-3.4785,-3.4101,-3.3984,-3.3789,-3.3437,-3.367,0.0,-3.3922,-3.4423,-3.4735,-3.4797,-3.5418,0.0,0.0,0.0,0.0,0.0,0.0,0.0,0.0,0.0,0.0,0.0,-3.4594,-3.4962,-3.5159,-3.6582,-3.7983,-3.9086,-3.9248,-3.9454,-3.9746,-3.997,-4.0272,-4.0616,-4.081,-4.1025,-4.1125,-4.1125,-4.1175,-4.125,-4.1275,-4.13,-4.1326,-4.1275,-4.153,-4.1932,-4.2062,-4.2288,-4.2791,-4.2615,-4.2514,-4.2766,-4.2785,-4.2811,-4.2891,-4.2866,-4.2866,-4.2961,-4.2986,-4.3098,-4.3295,-4.3381,-4.3628,-4.4039,-4.4367,-4.4694,-4.5072,-4.5502,-4.5848,-4.5981,-4.6245,-4.6535,-4.6535,-4.6535,-4.6535,-2.5558,-2.5304,-2.5291,-2.5211,0.0,-2.5224,-2.5211,-2.5077,-2.5289,-2.5507,-2.5741,-2.6186,-2.6749,-2.7623,-2.8547,-2.9679,-3.0977,-3.1771,-3.2403,-3.2963,-3.3381,-3.3729,-3.4094,-3.4508,-3.4853,-3.5196,-3.5401,-3.5557,-3.5743,-3.5947,-3.6035,-3.6035,-3.6035,-3.6035,-3.6035,-3.6035,-3.5918,-3.5703,-3.5508,-3.5176,-3.4746,-3.4492,-3.418,-3.3769,-3.4068,0.0,0.0,0.0,0.0,0.0,0.0,0.0,0.0,0.0,0.0,-3.5666,-3.5298,-3.5037,-3.4814,-3.4768,-3.5183,-3.6086,-3.6891,-3.7334,-3.7384,-3.8436,-3.9393,-3.9866,-4.0042,-4.0209,-4.0355,-4.0884,-4.133,-4.1496,-4.1883,-4.2158,-4.2158,-4.2158,-4.2133,-4.2158,-4.2158,-4.2158,-4.2158,-4.2158,-4.2258,-4.2509,-4.2615,-4.2715,-4.2942,-4.2791,-4.2685,-4.2936,-4.2986,-4.2986,-4.2986,-4.2986,-4.3098,-4.3129,-4.3184,-4.3295,-4.3598,-4.3848,-4.4177,-4.4476,-4.4856,-4.5207,-4.5555,-4.5795,-4.606,-4.6245,-4.635,-4.6535,-4.6535,-4.6535,-4.6535,-2.5865,-2.5585,-2.5585,-2.5558,-2.5518,-2.5571,-2.5625,-2.5665,-2.5558,0.0,0.0,-2.5888,-2.6316,-2.6925,-2.768,-2.8604,-2.9712,-3.0567,-3.1206,-3.1824,-3.2316,-3.2893,-3.3521,-3.3955,-3.4577,-3.5284,-3.5352,-3.5557,-3.5879,-3.5947,-3.6035,-3.6035,-3.6035,-3.6035,-3.6035,-3.6035,-3.6035,-3.6016,-3.5684,-3.5469,-3.5391,-3.5019,-3.4609,-3.4199,-3.4507,-3.4799,-3.5002,-3.5397,-3.5911,-3.6545,-3.7132,-3.7341,-3.7088,-3.7686,-3.7723,-3.6929,-3.7051,-3.6989,-3.6576,-3.6749,-3.7145,-3.7734,-3.8433,-3.8951,-3.9213,-3.9818,-4.0177,-4.0248,-4.0507,-4.0735,-4.0735,-4.1541,-4.211,-4.211,-4.265,-4.2961,-4.2961,-4.2986,-4.2936,-4.2986,-4.2936,-4.2986,-4.2936,-4.2936,-4.2986,-4.2961,-4.2936,-4.3037,-4.3087,-4.3037,-4.2986,-4.3137,-4.3212,-4.3187,-4.3263,-4.345,-4.3431,-4.3731,-4.3817,-4.3934,-4.4292,-4.4733,-4.5036,-4.5358,-4.5713,-4.6009,-4.6222,-4.6328,-4.63,-4.6482,-4.6535,-4.6535,-4.6535,-4.6535,-4.6535,-2.6159,-2.597,-2.5892,-2.5745,-2.5531,-2.5785,-2.6039,-2.6226,-2.5732,-2.5358,-2.5152,-2.5227,-2.5722,-2.6546,-2.7245,-2.8202,-2.9369,-3.0157,-3.0584,-3.0655,-3.1418,-3.1982,-3.2386,-3.3121,-3.3817,-3.4508,-3.4853,-3.5196,-3.5557,-3.5899,-3.6035,-3.6035,-3.6035,-3.6035,-3.6035,-3.6035,-3.6035,-3.6016,-3.5957,-3.5762,-3.541,-3.5332,-3.5078,-3.4629,-3.4903,-3.5194,-3.5493,-3.6018,-3.6606,-3.7193,-3.7637,-3.7916,-3.8149,-3.8101,-3.804,-3.7882,-3.7759,-3.7655,-3.7586,-3.7642,-3.7963,-3.8733,-3.9078,-3.9306,-3.9373,-3.949,-3.9773,-4.0174,-4.049,-4.0735,-4.0792,-4.1541,-4.211,-4.2167,-4.265,-4.2986,-4.2986,-4.2986,-4.2986,-4.2986,-4.2986,-4.2986,-4.2986,-4.2986,-4.2986,-4.2986,-4.3037,-4.3162,-4.3514,-4.3288,-4.3212,-4.3564,-4.3689,-4.389,-4.4166,-4.4623,-4.4694,-4.4852,-4.5062,-4.5351,-4.5913,-4.6081,-4.6415,-4.7184,-4.7268,-4.7325,-4.7244,-4.7215,-4.6999,-4.6727,-4.6618,-4.6589,-4.6589,-4.6562,-4.6535,-2.6306,-2.6199,-2.6186,-2.6106,-2.5999,-2.6132,-2.6266,-2.636,-2.6106,-2.5825,-2.5648,-2.5635,-2.584,-2.6318,-2.7049,-2.7689,-2.8331,-2.9278,-2.9761,-2.9871,-3.0584,-3.1347,-3.2105,-3.2684,-3.3539,-3.4646,-3.4853,-3.5196,-3.5743,-3.5947,-3.6035,-3.6035,-3.6035,-3.6035,-3.6035,-3.6035,-3.6035,-3.6035,-3.6035,-3.5918,-3.5742,-3.5742,-3.5527,-3.5078,-3.552,-3.5828,-3.5869,-3.6477,-3.7047,-3.7637,-3.7998,-3.8298,-3.8574,-3.8667,-3.8729,-3.8788,-3.8699,-3.8596,-3.8619,-3.8619,-3.8769,-3.9093,-3.9314,-3.9372,-3.9349,-3.9546,-3.9721,-3.9931,-4.0246,-4.0479,-4.0711,-4.1516,-4.2142,-4.2312,-4.2762,-4.2986,-4.2986,-4.2986,-4.2986,-4.2986,-4.2986,-4.2986,-4.2986,-4.2986,-4.2986,-4.3011,-4.3212,-4.3614,-4.4166,-4.4041,-4.394,-4.4192,-4.4242,-4.4342,-4.4593,-4.4875,-4.5196,-4.5482,-4.585,-4.6304,-4.6866,-4.7089,-4.7367,-4.7698,-4.7945,-4.7974,-4.7866,-4.7839,-4.7703,-4.7541,-4.7134,-4.6998,-4.6997,-4.6779,-4.6535,-2.64,-2.64,-2.64,-2.64,-2.64,-2.64,-2.64,-2.64,-2.6386,-2.6266,-2.6144,-2.5985,-2.603,-2.6142,-2.6799,-2.7277,-2.7672,-2.8666,-2.9263,-2.9479,-3.0242,-3.1246,-3.2242,-3.2756,-3.3741,-3.5067,-3.5186,-3.5494,-3.6103,-3.6172,-3.6113,-3.6035,-3.6035,-3.6035,-3.6035,-3.6035,-3.6035,-3.6035,-3.6035,-3.6035,-3.6035,-3.6035,-3.5859,-3.5634,-3.6077,-3.64,-3.6389,-3.6855,-3.745,-3.8138,-3.8305,-3.8537,-3.893,-3.919,-3.9308,-3.9308,-3.9308,-3.9308,-3.9308,-3.9308,-3.9308,-3.9308,-3.9308,-3.9308,-3.9308,-3.9626,-3.9802,-3.9802,-4.0071,-4.0339,-4.0884,-4.1695,-4.2396,-4.268,-4.3119,-4.3413,-4.3363,-4.3237,-4.3162,-4.3162,-4.3062,-4.2986,-4.2986,-4.3087,-4.3263,-4.3438,-4.374,-4.4192,-4.4694,-4.4819,-4.4844,-4.4945,-4.4895,-4.4978,-4.5028,-4.5396,-4.5885,-4.6383,-4.6778,-4.731,-4.7817,-4.8099,-4.8238,-4.8403,-4.8542,-4.8598,-4.8463,-4.8408,-4.83,-4.811,-4.7812,-4.7568,-4.7541,-4.716,-4.6698,-2.64,-2.64,-2.64,-2.64,-2.64,-2.64,-2.64,-2.64,-2.64,-2.6386,-2.6319,-2.6079,-2.6044,-2.6156,-2.6586,-2.7179,-2.7815,-2.8702,-2.9269,-2.9774,-3.0827,-3.1856,-3.2681,-3.3458,-3.463,-3.5859,-3.6072,-3.6214,-3.6621,-3.6601,-3.6406,-3.6074,-3.6035,-3.6035,-3.6035,-3.6035,-3.6035,-3.6035,-3.6035,-3.6035,-3.6035,-3.6035,-3.5996,-3.5976,-3.6236,-3.6704,-3.7195,-3.7192,-3.7663,-3.8803,-3.8604,-3.8679,-3.919,-3.9308,-3.9308,-3.9308,-3.9308,-3.9308,-3.9308,-3.9308,-3.9308,-3.9308,-3.9308,-3.9308,-3.9308,-3.9626,-3.9802,-3.9942,-4.0095,-4.0561,-4.1139,-4.2184,-4.2996,-4.3333,-4.3944,-4.4468,-4.4342,-4.4041,-4.3714,-4.3714,-4.3363,-4.2986,-4.3137,-4.3463,-4.3915,-4.4342,-4.4468,-4.4769,-4.5296,-4.5422,-4.5547,-4.5874,-4.5748,-4.5766,-4.6281,-4.6815,-4.71,-4.7736,-4.8221,-4.8603,-4.9037,-4.9233,-4.9481,-4.9326,-4.9628,-4.9494,-4.9196,-4.8978,-4.8815,-4.8544,-4.83,-4.811,-4.8029,-4.7676,-4.7161,-2.64,-2.64,-2.64,-2.64,-2.64,-2.64,-2.64,-2.64,-2.64,-2.64,-2.6386,-2.6266,-2.6224,-2.6351,-2.6726,-2.7094,-2.754,-2.8593,-2.932,-2.9825,-3.0998,-3.203,-3.3037,-3.3854,-3.4937,-3.6152,-3.6366,-3.6714,-3.6961,-3.6797,-3.6445,-3.6074,-3.6035,-3.6035,-3.6035,-3.6035,-3.6035,-3.6035,-3.6035,-3.6035,-3.6035,-3.6035,-3.6035,-3.6084,-3.6515,-3.7009,-3.7381,-3.7508,-3.8049,-3.8953,-3.8627,-3.8656,-3.9249,-3.9308,-3.9308,-3.9308,-3.9308,-3.9308,-3.9308,-3.9308,-3.9308,-3.9308,-3.9308,-3.9367,-3.9544,-3.9743,-4.0153,-4.0963,-4.1186,-4.1455,-4.1943,-4.2986,-4.3796,-4.4086,-4.4435,-4.4618,-4.4618,-4.4418,-4.4292,-4.4267,-4.4091,-4.394,-4.3966,-4.4141,-4.4518,-4.4995,-4.5146,-4.5347,-4.5849,-4.5974,-4.6075,-4.6225,-4.622,-4.6374,-4.6755,-4.7257,-4.7703,-4.8347,-4.8868,-4.9412,-4.967,-4.984,-4.9897,-5.001,-5.001,-4.9956,-4.9711,-4.9657,-4.9549,-4.9196,-4.8842,-4.8625,-4.8246,-4.8056,-4.7758,-2.64,-2.64,-2.64,-2.64,-2.64,-2.64,-2.64,-2.64,-2.64,-2.64,-2.64,-2.64,-2.64,-2.6465,-2.6716,-2.6973,-2.7403,-2.8472,-2.9351,-3.0106,-3.129,-3.248,-3.3569,-3.4375,-3.532,-3.6421,-3.6871,-3.7222,-3.7351,-3.6914,-3.6504,-3.623,-3.6074,-3.6035,-3.6035,-3.6035,-3.6035,-3.6035,-3.6035,-3.6035,-3.6035,-3.6035,-3.6035,-3.6084,-3.6742,-3.7185,-3.7476,-3.7801,-3.8354,-3.9115,-3.8768,-3.8814,-3.9249,-3.9308,-3.9308,-3.9308,-3.9308,-3.9308,-3.9308,-3.9308,-3.9308,-3.9308,-3.9308,-3.9426,-3.9743,-3.9978,-4.0622,-4.1777,-4.2321,-4.271,-4.2968,-4.3844,-4.4494,-4.4811,-4.497,-4.507,-4.5095,-4.497,-4.4869,-4.4844,-4.4669,-4.4719,-4.4819,-4.4869,-4.507,-4.5573,-4.5723,-4.5799,-4.62,-4.6301,-4.6301,-4.6301,-4.6541,-4.678,-4.6959,-4.7409,-4.8055,-4.8637,-4.9213,-4.964,-4.9953,-4.9953,-5.001,-5.001,-5.001,-4.9983,-4.9901,-4.9956,-4.9983,-4.9901,-4.963,-4.9223,-4.8896,-4.8598,-4.8463,-2.64,-2.64,-2.64,-2.64,-2.64,-2.64,-2.64,-2.64,-2.64,-2.64,-2.64,-2.64,-2.64,-2.6386,-2.6465,-2.6847,-2.7605,-2.853,-2.9604,-3.0792,-3.1972,-3.3205,-3.4354,-3.5178,-3.6127,-3.7251,-3.769,-3.788,-3.7832,-3.709,-3.666,-3.6621,-3.623,-3.6035,-3.6035,-3.6035,-3.6035,-3.6035,-3.6035,-3.6035,-3.6035,-3.6035,-3.6016,-3.6084,-3.6742,-3.726,-3.7647,-3.8199,-3.8679,-3.9294,-3.9154,-3.913,-3.9318,-3.9308,-3.9308,-3.9308,-3.9308,-3.9308,-3.9308,-3.9308,-3.9308,-3.9308,-3.9308,-3.9426,-3.9861,-4.041,-4.1136,-4.2,-4.3296,-4.4036,-4.4193,-4.4674,-4.5151,-4.5413,-4.5899,-4.61,-4.6175,-4.5698,-4.5472,-4.5372,-4.507,-4.502,-4.5397,-4.5447,-4.5673,-4.605,-4.625,-4.625,-4.6276,-4.6326,-4.6326,-4.6386,-4.6541,-4.69,-4.7172,-4.7762,-4.8347,-4.8868,-4.9328,-4.9697,-4.984,-5.001,-5.001,-5.001,-5.001,-5.001,-5.001,-5.001,-5.001,-4.9983,-4.9956,-4.9711,-4.9494,-4.9331,-4.9169,-2.64,-2.64,-2.64,-2.64,-2.64,-2.64,-2.64,-2.64,-2.64,-2.64,-2.64,-2.64,-2.64,-2.6386,-2.6702,-2.7254,-2.8118,-2.89,-3.0129,-3.1533,-3.2299,-3.3348,-3.4782,-3.5605,-3.6442,-3.7402,-3.8082,-3.8214,-3.7838,-3.7344,-3.6934,-3.6621,-3.623,-3.6035,-3.6035,-3.6035,-3.6035,-3.6035,-3.6035,-3.6035,-3.6016,-3.6035,-3.6084,-3.6336,-3.6809,-3.7482,-3.8283,-3.8437,-3.8872,-3.9588,-3.9282,-3.9153,-3.9259,-3.9308,-3.9308,-3.9308,-3.9308,-3.9308,-3.9308,-3.9308,-3.9308,-3.9308,-3.9485,-3.9743,-4.0118,-4.0938,-4.1952,-4.2988,-4.4023,-4.4883,-4.5435,-4.572,-4.5905,-4.599,-4.62,-4.6326,-4.6276,-4.6125,-4.6024,-4.5999,-4.5799,-4.5824,-4.5874,-4.5999,-4.61,-4.625,-4.6326,-4.6326,-4.6326,-4.6326,-4.6351,-4.6386,-4.6566,-4.7027,-4.7709,-4.812,-4.8637,-4.9041,-4.9469,-4.9837,-5.0064,-5.0146,-5.02,-5.0281,-5.02,-5.0227,-5.0308,-5.0281,-5.0227,-5.02,-5.0173,-5.0281,-4.9983,-4.9874,-4.9766,-2.64,-2.64,-2.64,-2.64,-2.64,-2.64,-2.64,-2.64,-2.64,-2.64,-2.64,-2.64,-2.6465,-2.6637,-2.7018,-2.7726,-2.8666,-2.929,-3.0376,-3.1916,-3.2452,-3.3424,-3.4932,-3.5829,-3.6664,-3.7402,-3.8209,-3.8418,-3.8125,-3.7695,-3.7285,-3.6875,-3.6445,-3.6152,-3.6055,-3.6035,-3.6035,-3.6035,-3.6035,-3.6016,-3.6132,-3.6152,-3.6471,-3.7011,-3.7348,-3.775,-3.8549,-3.8781,-3.9087,-3.9508,-3.9439,-3.9333,-3.9341,-3.9308,-3.9308,-3.9308,-3.9308,-3.9308,-3.9308,-3.9308,-3.9367,-3.9426,-3.9684,-4.0001,-4.0692,-4.1633,-4.2666,-4.389,-4.4749,-4.546,-4.609,-4.6301,-4.6326,-4.6326,-4.6326,-4.6326,-4.6326,-4.6301,-4.6301,-4.6276,-4.625,-4.6276,-4.6326,-4.6301,-4.6301,-4.6326,-4.6326,-4.6351,-4.6527,-4.6577,-4.6677,-4.6803,-4.7147,-4.7663,-4.8256,-4.8789,-4.937,-4.9813,-5.017,-5.0381,-5.0471,-5.0498,-5.0498,-5.0553,-5.058,-5.058,-5.058,-5.058,-5.058,-5.0553,-5.0743,-5.096,-5.0688,-5.0471,-5.0363,-2.64,-2.64,-2.64,-2.64,-2.64,-2.64,-2.64,-2.64,-2.64,-2.64,-2.64,-2.64,-2.6637,-2.7032,-2.7412,-2.8275,-2.929,-2.9601,-3.0531,-3.1993,-3.2452,-3.35,-3.4989,-3.5829,-3.6664,-3.7549,-3.8209,-3.8574,-3.8496,-3.7994,-3.7585,-3.7195,-3.6747,-3.6318,-3.5967,-3.5967,-3.6016,-3.6016,-3.6084,-3.62,-3.6451,-3.6519,-3.7011,-3.7971,-3.8104,-3.8237,-3.837,-3.921,-3.9584,-3.9449,-3.9668,-3.965,-3.935,-3.9308,-3.9308,-3.9308,-3.9308,-3.9308,-3.9308,-3.9308,-3.9426,-3.9708,-3.9825,-4.047,-4.1564,-4.2248,-4.3262,-4.4522,-4.526,-4.5748,-4.62,-4.6326,-4.6326,-4.6326,-4.6326,-4.6326,-4.6326,-4.6326,-4.6326,-4.6326,-4.6326,-4.6326,-4.6326,-4.6401,-4.6426,-4.6426,-4.6502,-4.6677,-4.7029,-4.7129,-4.7294,-4.7657,-4.7842,-4.8125,-4.8769,-4.9473,-5.0138,-5.0711,-5.1084,-5.1359,-5.1281,-5.1281,-5.1227,-5.1227,-5.12,-5.1227,-5.12,-5.12,-5.1309,-5.1336,-5.1525,-5.1498,-5.1339,-5.1095,-5.096,-2.64,-2.64,-2.64,-2.64,-2.64,-2.64,-2.64,-2.64,-2.64,-2.64,-2.64,-2.64,-2.6637,-2.711,-2.7726,-2.8588,-2.9523,-3.0376,-3.1379,-3.2299,-3.2816,-3.3727,-3.4914,-3.5829,-3.6886,-3.8063,-3.8428,-3.8428,-3.8151,-3.7784,-3.7215,-3.6649,-3.6386,-3.61,-3.5713,-3.5879,-3.6084,-3.6336,-3.6316,-3.6519,-3.6876,-3.6944,-3.7368,-3.8125,-3.8437,-3.888,-3.9625,-3.9953,-3.9927,-3.9672,-3.9938,-3.9916,-3.9419,-3.9308,-3.9308,-3.9308,-3.9308,-3.9308,-3.9308,-3.9308,-3.9426,-3.9813,-4.0281,-4.0987,-4.1979,-4.3149,-4.4136,-4.5022,-4.562,-4.615,-4.6276,-4.6326,-4.6326,-4.6326,-4.6326,-4.6326,-4.6326,-4.6326,-4.6326,-4.6326,-4.6326,-4.6326,-4.6401,-4.6577,-4.6828,-4.6903,-4.7129,-4.7456,-4.7606,-4.7682,-4.7682,-4.7883,-4.8119,-4.8559,-4.926,-4.9909,-5.0577,-5.1194,-5.1663,-5.2031,-5.2067,-5.204,-5.1986,-5.1959,-5.1932,-5.1932,-5.1905,-5.1905,-5.1954,-5.1905,-5.1851,-5.1796,-5.1769,-5.1661,-5.1584,-2.64,-2.64,-2.64,-2.64,-2.64,-2.64,-2.64,-2.64,-2.64,-2.64,-2.64,-2.64,-2.6702,-2.7254,-2.7976,-2.8822,-2.9834,-3.1071,-3.1993,-3.2588,-3.3044,-3.3878,-3.5082,-3.6126,-3.7329,-3.8355,-3.8428,-3.8228,-3.799,-3.7575,-3.7009,-3.6333,-3.631,-3.6028,-3.5615,-3.5947,-3.6336,-3.6519,-3.6789,-3.7146,-3.7482,-3.7616,-3.8017,-3.8702,-3.9078,-3.967,-4.0453,-4.0712,-4.059,-4.0073,-3.9991,-3.9748,-3.9354,-3.9308,-3.9308,-3.9308,-3.9308,-3.9308,-3.9308,-3.9426,-3.9718,-4.0258,-4.0952,-4.1863,-4.2815,-4.414,-4.4819,-4.5465,-4.5955,-4.6326,-4.6301,-4.6326,-4.6326,-4.6326,-4.6326,-4.6326,-4.6326,-4.6326,-4.6326,-4.6326,-4.6326,-4.6401,-4.6652,-4.6853,-4.723,-4.7405,-4.7682,-4.8058,-4.8134,-4.8234,-4.8284,-4.841,-4.8724,-4.9204,-4.9773,-5.0404,-5.0981,-5.1558,-5.2184,-5.25,-5.2718,-5.2718,-5.275,-5.2778,-5.2778,-5.2805,-5.2778,-5.2544,-5.2425,-5.2269,-5.2133,-5.235,-5.2458,-5.2284,-5.2154,-2.64,-2.64,-2.64,-2.64,-2.64,-2.64,-2.64,-2.64,-2.64,-2.64,-2.64,-2.64,-2.686,-2.7555,-2.8118,-2.8978,-3.0129,-3.1456,-3.2222,-3.2681,-3.312,-3.3954,-3.5231,-3.6664,-3.7696,-3.8428,-3.8228,-3.8009,-3.7789,-3.7364,-3.6913,-3.6161,-3.6204,-3.6246,-3.5701,-3.6171,-3.6451,-3.6654,-3.728,-3.777,-3.8171,-3.8482,-3.9012,-3.9625,-4.0018,-4.0388,-4.0906,-4.1264,-4.1153,-4.0393,-3.9748,-3.9364,-3.9308,-3.9308,-3.9308,-3.9308,-3.9308,-3.9308,-3.9367,-3.9718,-4.0176,-4.0822,-4.1697,-4.2718,-4.4081,-4.4759,-4.5356,-4.603,-4.6215,-4.6326,-4.6326,-4.6326,-4.6326,-4.6326,-4.6326,-4.6326,-4.6326,-4.6326,-4.6326,-4.6326,-4.6351,-4.6527,-4.7029,-4.7205,-4.7556,-4.7857,-4.8058,-4.8435,-4.8661,-4.8862,-4.9088,-4.9188,-4.9238,-4.9544,-4.9977,-5.0358,-5.0913,-5.1574,-5.2261,-5.2749,-5.3119,-5.3179,-5.3266,-5.332,-5.3287,-5.3396,-5.3335,-5.2904,-5.2756,-5.2641,-5.2722,-5.3017,-5.2951,-5.2701,-5.2691,-2.64,-2.64,-2.64,-2.64,-2.64,-2.64,-2.64,-2.64,-2.64,-2.64,-2.64,-2.64,-2.686,-2.7633,-2.8417,-2.9275,-3.0284,-3.1747,-3.2452,-3.2664,-3.3289,-3.4499,-3.5829,-3.6886,-3.7843,-3.8428,-3.8155,-3.7715,-3.7107,-3.6738,-3.6165,-3.5321,-3.5515,-3.5552,-3.5553,-3.5967,-3.6403,-3.6944,-3.7703,-3.8237,-3.8549,-3.8946,-3.9428,-4.0084,-4.0279,-4.0712,-4.1396,-4.1206,-4.0959,-4.0678,-3.9776,-3.9308,-3.9331,-3.9331,-3.9377,-3.94,-3.9354,-3.9331,-3.9459,-4.0032,-4.0585,-4.1046,-4.2425,-4.3542,-4.4361,-4.519,-4.5739,-4.618,-4.6326,-4.6326,-4.6326,-4.6326,-4.6326,-4.6326,-4.6326,-4.6326,-4.6326,-4.6326,-4.6326,-4.6351,-4.6677,-4.6954,-4.728,-4.7807,-4.8309,-4.8535,-4.8812,-4.9088,-4.9213,-4.9289,-4.9389,-4.9464,-4.949,-4.9733,-5.0014,-5.0397,-5.0879,-5.157,-5.2227,-5.2868,-5.3207,-5.3483,-5.351,-5.3537,-5.3241,-5.3234,-5.3139,-5.2815,-5.2861,-5.2615,-5.2677,-5.2677,-5.2983,-5.2924,-5.3079,-2.64,-2.64,-2.64,-2.64,-2.64,-2.64,-2.64,-2.64,-2.64,-2.64,-2.64,-2.64,-2.686,-2.7633,-2.8495,-2.9353,-3.0284,-3.1824,-3.2588,-3.2833,-3.382,-3.5025,-3.6145,-3.7034,-3.777,-3.8228,-3.7936,-3.7329,-3.6664,-3.6145,-3.5611,-3.5193,-3.5176,-3.5349,-3.5527,-3.615,-3.6649,-3.7186,-3.8037,-3.8702,-3.8946,-3.9538,-4.0062,-4.0517,-4.0777,-4.1293,-4.182,-4.1227,-4.0823,-4.0617,-3.9905,-3.94,-3.9607,-3.9607,-3.9721,-3.9905,-4.0071,-4.0131,-4.0273,-4.0911,-4.1505,-4.2161,-4.3325,-4.4243,-4.4995,-4.5643,-4.612,-4.624,-4.6326,-4.6326,-4.6326,-4.6326,-4.6326,-4.6326,-4.6326,-4.6326,-4.6326,-4.6326,-4.6451,-4.6652,-4.6928,-4.7355,-4.7707,-4.841,-4.8786,-4.9088,-4.9314,-4.9464,-4.9565,-4.9615,-4.9665,-4.9741,-4.9791,-4.9945,-5.0226,-5.06,-5.1332,-5.1918,-5.2586,-5.3157,-5.3409,-5.366,-5.3545,-5.3484,-5.3247,-5.3037,-5.2871,-5.2563,-5.2094,-5.197,-5.2094,-5.2245,-5.2545,-5.3117,-5.3301,-2.64,-2.64,-2.64,-2.64,-2.64,-2.64,-2.64,-2.64,-2.64,-2.64,-2.64,-2.64,-2.6847,-2.7633,-2.8495,-2.9353,-3.0206,-3.1824,-3.2512,-3.3196,-3.418,-3.5381,-3.6052,-3.6886,-3.7568,-3.7862,-3.7568,-3.6886,-3.6201,-3.5754,-3.5368,-3.5172,-3.5358,-3.5571,-3.5774,-3.6521,-3.7023,-3.7274,-3.8217,-3.8967,-3.9276,-3.9997,-4.0582,-4.0906,-4.1421,-4.1806,-4.1919,-4.1489,-4.0961,-4.0915,-3.9928,-3.9744,-4.0103,-4.0135,-4.0379,-4.0716,-4.0944,-4.115,-4.1448,-4.1932,-4.2699,-4.3421,-4.417,-4.4946,-4.5583,-4.6035,-4.624,-4.6326,-4.6326,-4.6326,-4.6326,-4.6326,-4.6326,-4.6326,-4.6326,-4.6326,-4.6326,-4.6351,-4.6602,-4.7079,-4.7179,-4.7832,-4.841,-4.8862,-4.9038,-4.9314,-4.9565,-4.9665,-4.9791,-4.9891,-4.9992,-5.0092,-5.0092,-5.0092,-5.0424,-5.0847,-5.1728,-5.2505,-5.3121,-5.3625,-5.3707,-5.3793,-5.357,-5.342,-5.3379,-5.3094,-5.2711,-5.2266,-5.1758,-5.1799,-5.2123,-5.2014,-5.1904,-5.2873,-5.3332,-2.64,-2.64,-2.64,-2.64,-2.64,-2.64,-2.64,-2.64,-2.64,-2.64,-2.6386,-2.6386,-2.686,-2.7633,-2.8495,-2.9353,-3.0284,-3.1824,-3.2909,-3.3685,-3.4481,-3.5231,-3.5829,-3.659,-3.7255,-3.7568,-3.6886,-3.6201,-3.5754,-3.5438,-3.5121,-3.5163,-3.5467,-3.5738,-3.6096,-3.6487,-3.6838,-3.7227,-3.7971,-3.8702,-3.9276,-3.9997,-4.0712,-4.1251,-4.1829,-4.2148,-4.2161,-4.1742,-4.142,-4.1168,-4.0609,-4.0241,-4.0609,-4.0663,-4.0877,-4.1237,-4.1359,-4.164,-4.2087,-4.2866,-4.353,-4.4062,-4.4888,-4.5633,-4.5768,-4.6145,-4.6266,-4.6326,-4.6326,-4.6426,-4.6376,-4.6326,-4.6326,-4.6326,-4.6326,-4.6326,-4.6376,-4.6617,-4.6918,-4.7255,-4.7857,-4.851,-4.8761,-4.9188,-4.9389,-4.9565,-4.969,-4.9816,-4.9967,-5.0142,-5.0318,-5.0469,-5.0594,-5.0645,-5.1078,-5.1437,-5.2221,-5.2902,-5.3492,-5.3856,-5.3933,-5.3957,-5.3768,-5.3668,-5.3609,-5.3159,-5.2616,-5.2323,-5.191,-5.2078,-5.2117,-5.2142,-5.2253,-5.2985,-5.3468,-2.64,-2.64,-2.64,-2.64,-2.64,-2.64,-2.64,-2.64,-2.64,-2.64,-2.6465,-2.6623,-2.7018,-2.7712,-2.8651,-2.9523,-3.0361,-3.1824,-3.3061,-3.382,-3.4632,-3.5231,-3.5605,-3.6201,-3.6812,-3.7255,-3.6812,-3.6201,-3.568,-3.5456,-3.5456,-3.553,-3.5759,-3.6217,-3.6599,-3.6797,-3.7085,-3.7441,-3.794,-3.8503,-3.921,-4.0062,-4.0971,-4.1637,-4.2084,-4.2275,-4.2293,-4.1834,-4.1742,-4.1736,-4.1376,-4.1114,-4.1345,-4.1415,-4.163,-4.2148,-4.2602,-4.2786,-4.3333,-4.3904,-4.4524,-4.4888,-4.5487,-4.5768,-4.6099,-4.6406,-4.6642,-4.6753,-4.6903,-4.7004,-4.6702,-4.6401,-4.6351,-4.6326,-4.6326,-4.6426,-4.6677,-4.6892,-4.7193,-4.7556,-4.8209,-4.8761,-4.9163,-4.9439,-4.9515,-4.959,-4.964,-4.9791,-5.0167,-5.0368,-5.067,-5.087,-5.1096,-5.1364,-5.1666,-5.2144,-5.28,-5.3263,-5.3623,-5.3864,-5.4013,-5.4027,-5.4053,-5.3831,-5.3569,-5.2997,-5.2466,-5.2305,-5.2078,-5.1834,-5.1864,-5.2179,-5.2582,-5.2993,-5.3488,-2.64,-2.64,-2.64,-2.64,-2.64,-2.64,-2.64,-2.64,-2.64,-2.6479,-2.6544,-2.686,-2.7254,-2.7947,-2.8978,-2.9756,-3.0824,-3.19,-3.3137,-3.3837,-3.4499,-3.5007,-3.5456,-3.5903,-3.6367,-3.6664,-3.6516,-3.6126,-3.5754,-3.568,-3.5829,-3.6126,-3.6497,-3.6807,-3.7244,-3.7268,-3.7361,-3.7682,-3.7887,-3.8437,-3.921,-4.0192,-4.1229,-4.1998,-4.2275,-4.2275,-4.227,-4.1994,-4.1903,-4.227,-4.2217,-4.2281,-4.2358,-4.2382,-4.2623,-4.338,-4.3845,-4.4192,-4.4475,-4.4988,-4.544,-4.5817,-4.5878,-4.6074,-4.6466,-4.6767,-4.7018,-4.733,-4.7506,-4.7606,-4.7218,-4.6979,-4.6702,-4.6627,-4.6577,-4.6717,-4.7007,-4.7207,-4.7583,-4.8008,-4.8611,-4.9138,-4.9364,-4.9565,-4.959,-4.9615,-4.9665,-4.9891,-5.0293,-5.0745,-5.1147,-5.1548,-5.1825,-5.195,-5.2269,-5.2345,-5.3029,-5.3377,-5.3682,-5.3817,-5.3952,-5.4041,-5.3956,-5.3685,-5.336,-5.2888,-5.2583,-5.2495,-5.2202,-5.1682,-5.1883,-5.2568,-5.2862,-5.3075,-5.3529,-2.64,-2.64,-2.64,-2.64,-2.64,-2.64,-2.64,-2.64,-2.6386,-2.6637,-2.6874,-2.7018,-2.7726,-2.8573,-2.9212,-3.0454,-3.19,-3.2816,-3.3289,-3.3837,-3.4348,-3.4724,-3.5157,-3.5605,-3.5978,-3.6126,-3.6126,-3.5903,-3.5829,-3.5903,-3.6293,-3.6442,-3.7181,-3.7632,-3.7465,-3.7378,-3.744,-3.7734,-3.7834,-3.8237,-3.921,-4.0257,-4.1293,-4.2212,-4.2275,-4.2275,-4.2275,-4.227,-4.2247,-4.2316,-4.2563,-4.2934,-4.3325,-4.3426,-4.3745,-4.4065,-4.4546,-4.4915,-4.5367,-4.5574,-4.5878,-4.612,-4.623,-4.6456,-4.6792,-4.7093,-4.7506,-4.7757,-4.7883,-4.7883,-4.7807,-4.7581,-4.7606,-4.7606,-4.7469,-4.7482,-4.7458,-4.7694,-4.8094,-4.8446,-4.9024,-4.9414,-4.945,-4.9576,-4.969,-4.9816,-4.9992,-5.0419,-5.0996,-5.1473,-5.195,-5.2327,-5.2678,-5.2729,-5.2804,-5.2754,-5.3035,-5.3351,-5.3538,-5.3581,-5.3742,-5.3945,-5.3875,-5.35,-5.3407,-5.3241,-5.3021,-5.2725,-5.2563,-5.2277,-5.2691,-5.3038,-5.3187,-5.3329,-5.3713,-2.64,-2.64,-2.64,-2.64,-2.64,-2.64,-2.64,-2.6386,-2.6623,-2.6795,-2.7175,-2.7647,-2.8261,-2.9042,-3.0144,-3.1456,-3.2588,-3.3137,-3.3441,-3.3837,-3.4215,-3.4574,-3.5007,-3.5381,-3.5978,-3.6275,-3.6275,-3.6201,-3.6275,-3.6664,-3.6886,-3.7255,-3.7789,-3.7966,-3.7875,-3.7546,-3.7667,-3.7846,-3.78,-3.815,-3.921,-4.0388,-4.1486,-4.2084,-4.2275,-4.2275,-4.2275,-4.2275,-4.2379,-4.2593,-4.2886,-4.3389,-4.3927,-4.4385,-4.4631,-4.4816,-4.5123,-4.5428,-4.5817,-4.5939,-4.612,-4.6291,-4.6527,-4.6828,-4.723,-4.7631,-4.8159,-4.8535,-4.8435,-4.836,-4.8335,-4.8134,-4.7933,-4.7845,-4.7771,-4.7757,-4.7791,-4.7962,-4.8184,-4.86,-4.8913,-4.9127,-4.9282,-4.9471,-4.9701,-4.9992,-5.0268,-5.087,-5.1574,-5.2,-5.2402,-5.2722,-5.2973,-5.311,-5.311,-5.311,-5.3136,-5.3341,-5.341,-5.3478,-5.3384,-5.3521,-5.3452,-5.3258,-5.3316,-5.3341,-5.3128,-5.2772,-5.2829,-5.2861,-5.2941,-5.3063,-5.3326,-5.3644,-5.397,-2.64,-2.64,-2.64,-2.64,-2.64,-2.64,-2.6479,-2.6544,-2.6874,-2.7189,-2.749,-2.8431,-2.9042,-2.9741,-3.0978,-3.2375,-3.3348,-3.3441,-3.3744,-3.4122,-3.4423,-3.4799,-3.5157,-3.553,-3.6052,-3.6664,-3.7034,-3.696,-3.696,-3.7255,-3.7642,-3.7862,-3.8009,-3.8228,-3.8306,-3.7832,-3.7995,-3.8046,-3.8092,-3.8428,-3.9625,-4.0712,-4.1637,-4.2212,-4.2275,-4.2275,-4.2275,-4.2402,-4.2529,-4.2822,-4.3263,-4.3802,-4.436,-4.5,-4.5392,-4.5514,-4.5757,-4.5878,-4.5999,-4.612,-4.624,-4.6326,-4.6828,-4.7104,-4.7556,-4.8234,-4.9063,-4.9414,-4.9238,-4.8937,-4.8862,-4.8497,-4.8234,-4.8146,-4.7943,-4.7764,-4.7829,-4.7905,-4.7833,-4.8159,-4.8592,-4.8967,-4.9097,-4.9566,-4.9871,-5.0393,-5.0695,-5.1222,-5.1875,-5.2201,-5.2553,-5.2916,-5.3136,-5.3316,-5.3384,-5.3384,-5.341,-5.341,-5.341,-5.3341,-5.3136,-5.2998,-5.2998,-5.3067,-5.2998,-5.2998,-5.2861,-5.2792,-5.2723,-5.2723,-5.2861,-5.3085,-5.3504,-5.3817,-5.4118,-2.64,-2.64,-2.64,-2.64,-2.6386,-2.6386,-2.6623,-2.6939,-2.7032,-2.7647,-2.8573,-2.8964,-2.9819,-3.1148,-3.2359,-3.3196,-3.3744,-3.4122,-3.4348,-3.4707,-3.4857,-3.5082,-3.553,-3.5978,-3.6367,-3.696,-3.7495,-3.7568,-3.7549,-3.7789,-3.7936,-3.8082,-3.8355,-3.8574,-3.8516,-3.8027,-3.8031,-3.8357,-3.8541,-3.9414,-4.0713,-4.1187,-4.1637,-4.2148,-4.2275,-4.2275,-4.2339,-4.2529,-4.2759,-4.2886,-4.3678,-4.4299,-4.4792,-4.5392,-4.5817,-4.6059,-4.624,-4.624,-4.6266,-4.624,-4.6326,-4.6426,-4.6792,-4.733,-4.7946,-4.8736,-4.9464,-4.954,-4.949,-4.9439,-4.9325,-4.9107,-4.8953,-4.8685,-4.8327,-4.7947,-4.7749,-4.7448,-4.7395,-4.7575,-4.796,-4.8535,-4.8976,-4.952,-4.9999,-5.0613,-5.1172,-5.1699,-5.2126,-5.2477,-5.279,-5.3128,-5.3341,-5.3478,-5.3725,-5.3725,-5.3657,-5.3614,-5.341,-5.3273,-5.2998,-5.2861,-5.2861,-5.2929,-5.2792,-5.2723,-5.2654,-5.2585,-5.2515,-5.2585,-5.2792,-5.3247,-5.3835,-5.4064,-5.4293,-2.64,-2.64,-2.64,-2.64,-2.6386,-2.6623,-2.6939,-2.7412,-2.7883,-2.851,-2.929,-3.0067,-3.1148,-3.2359,-3.3272,-3.3727,-3.4197,-3.4574,-3.4799,-3.5007,-3.5157,-3.5381,-3.5829,-3.6126,-3.6571,-3.7402,-3.7789,-3.8082,-3.8082,-3.8209,-3.8375,-3.8375,-3.8501,-3.8574,-3.8555,-3.8144,-3.83,-3.8718,-3.9247,-4.0032,-4.0974,-4.1293,-4.1614,-4.2252,-4.2275,-4.2339,-4.2402,-4.2633,-4.2886,-4.3137,-4.3864,-4.4546,-4.5159,-4.576,-4.6412,-4.6742,-4.7079,-4.6928,-4.6451,-4.6351,-4.6316,-4.6456,-4.692,-4.7645,-4.8457,-4.911,-4.959,-4.959,-4.959,-4.9525,-4.9396,-4.9202,-4.8877,-4.8551,-4.8158,-4.7762,-4.7298,-4.7032,-4.6874,-4.7032,-4.7388,-4.8148,-4.8977,-4.9653,-5.0273,-5.0989,-5.1548,-5.2051,-5.2427,-5.2703,-5.306,-5.3384,-5.3546,-5.3682,-5.3929,-5.4039,-5.3929,-5.3793,-5.3546,-5.3341,-5.2998,-5.2861,-5.2861,-5.2792,-5.2629,-5.2585,-5.2446,-5.2446,-5.2446,-5.2654,-5.2792,-5.3374,-5.3861,-5.4048,-5.4319,-2.64,-2.64,-2.64,-2.6465,-2.6623,-2.6939,-2.749,-2.8026,-2.8808,-2.9508,-3.0222,-3.1379,-3.2512,-3.3272,-3.3878,-3.4423,-3.4875,-3.5157,-3.5456,-3.553,-3.568,-3.6052,-3.6442,-3.6664,-3.7181,-3.8009,-3.8155,-3.8302,-3.8428,-3.8574,-3.8574,-3.8574,-3.8574,-3.8574,-3.8496,-3.8373,-3.8497,-3.9353,-3.9678,-4.0384,-4.1237,-4.1383,-4.1723,-4.2084,-4.2339,-4.2339,-4.2466,-4.2759,-4.3075,-4.3639,-4.4429,-4.5207,-4.5712,-4.6476,-4.7034,-4.7319,-4.7606,-4.7444,-4.6932,-4.667,-4.6606,-4.6759,-4.7072,-4.7877,-4.8839,-4.9332,-4.9525,-4.959,-4.9461,-4.9332,-4.9137,-4.8877,-4.8355,-4.7894,-4.7497,-4.7165,-4.6831,-4.663,-4.663,-4.6831,-4.7237,-4.8209,-4.8935,-4.9743,-5.0522,-5.1381,-5.1925,-5.2427,-5.2678,-5.2904,-5.3273,-5.3614,-5.3861,-5.3997,-5.4335,-5.4469,-5.4267,-5.3929,-5.3725,-5.341,-5.3067,-5.2929,-5.2861,-5.2792,-5.2654,-5.2734,-5.2859,-5.2665,-5.2565,-5.2809,-5.3098,-5.3495,-5.3909,-5.4074,-5.437,-2.64,-2.64,-2.6386,-2.6637,-2.7032,-2.7412,-2.8026,-2.8886,-2.9664,-3.0531,-3.1456,-3.2816,-3.3575,-3.3954,-3.4632,-3.5306,-3.607,-3.6052,-3.6423,-3.6886,-3.7274,-3.7107,-3.7255,-3.7495,-3.7862,-3.8082,-3.8302,-3.8501,-3.8574,-3.8574,-3.8574,-3.8574,-3.8574,-3.8574,-3.8627,-3.8602,-3.9066,-3.9716,-4.0098,-4.0731,-4.144,-4.1651,-4.1704,-4.2194,-4.2362,-4.2466,-4.2783,-4.3137,-4.3647,-4.4209,-4.5229,-4.5957,-4.6452,-4.7271,-4.777,-4.7908,-4.7996,-4.7846,-4.7571,-4.7246,-4.7259,-4.7356,-4.7576,-4.7902,-4.8713,-4.9072,-4.9267,-4.9461,-4.9332,-4.9202,-4.8812,-4.8289,-4.7828,-4.7364,-4.6965,-4.663,-4.6429,-4.6429,-4.6429,-4.654,-4.7265,-4.8355,-4.9418,-5.0322,-5.0913,-5.1682,-5.2251,-5.2729,-5.2847,-5.3067,-5.3452,-5.3861,-5.4174,-5.4443,-5.4831,-5.4738,-5.4402,-5.4064,-5.3725,-5.341,-5.2998,-5.2929,-5.2861,-5.2842,-5.2823,-5.3048,-5.3343,-5.3178,-5.3133,-5.3258,-5.3498,-5.3948,-5.4417,-5.485,-5.497,-2.6544,-2.6781,-2.6795,-2.7018,-2.7412,-2.8104,-2.9042,-2.9974,-3.0686,-3.167,-3.2892,-3.3802,-3.4481,-3.4932,-3.5456,-3.6052,-3.659,-3.6886,-3.7181,-3.7255,-3.7421,-3.7568,-3.7715,-3.7936,-3.8082,-3.8302,-3.8574,-3.8574,-3.8574,-3.8574,-3.8574,-3.8574,-3.8574,-3.8574,-3.8647,-3.8991,-3.9596,-4.003,-4.061,-4.1337,-4.2082,-4.2055,-4.2088,-4.2734,-4.2662,-4.2679,-4.2886,-4.3553,-4.418,-4.4967,-4.5919,-4.6563,-4.7222,-4.8033,-4.841,-4.8422,-4.8471,-4.843,-4.8139,-4.7778,-4.7266,-4.7036,-4.7191,-4.7662,-4.8216,-4.8682,-4.9072,-4.9202,-4.9202,-4.9007,-4.8706,-4.8026,-4.7364,-4.6874,-4.6496,-4.6092,-4.6092,-4.6227,-4.6563,-4.6898,-4.7815,-4.8938,-4.9963,-5.1021,-5.1522,-5.2076,-5.2484,-5.2929,-5.2998,-5.3136,-5.3478,-5.3793,-5.4106,-5.4309,-5.4671,-5.4604,-5.4469,-5.4183,-5.3827,-5.3587,-5.325,-5.2929,-5.2886,-5.2936,-5.3161,-5.3487,-5.3713,-5.3743,-5.3869,-5.3973,-5.419,-5.4451,-5.4969,-5.5509,-5.5538,-2.6623,-2.7032,-2.7097,-2.749,-2.8026,-2.8886,-2.9897,-3.0901,-3.1747,-3.2892,-3.4331,-3.4782,-3.5306,-3.5903,-3.6349,-3.6812,-3.7181,-3.7421,-3.7642,-3.7789,-3.7862,-3.7936,-3.8082,-3.8228,-3.8355,-3.8574,-3.8574,-3.8574,-3.8574,-3.8574,-3.8574,-3.8574,-3.8574,-3.8574,-3.8793,-3.9333,-3.9891,-4.0518,-4.1107,-4.2037,-4.275,-4.268,-4.2673,-4.328,-4.3327,-4.3531,-4.385,-4.4507,-4.517,-4.5963,-4.671,-4.7333,-4.7983,-4.8509,-4.8899,-4.8971,-4.9017,-4.8983,-4.846,-4.7945,-4.7142,-4.6765,-4.6968,-4.725,-4.7641,-4.8355,-4.8902,-4.9137,-4.9007,-4.8837,-4.8445,-4.763,-4.6898,-4.6362,-4.6025,-4.5754,-4.6025,-4.6227,-4.6831,-4.7322,-4.8379,-4.951,-5.0419,-5.1412,-5.1997,-5.2359,-5.2585,-5.2929,-5.2929,-5.3136,-5.341,-5.3657,-5.3929,-5.4132,-5.4309,-5.4473,-5.4569,-5.4398,-5.4105,-5.4024,-5.3747,-5.3426,-5.3381,-5.3683,-5.3909,-5.4009,-5.426,-5.4491,-5.4616,-5.4787,-5.4984,-5.5182,-5.5239,-5.5733,-5.5802,-2.6623,-2.7032,-2.7398,-2.8104,-2.8886,-2.9741,-3.0608,-3.1686,-3.3044,-3.4331,-3.5456,-3.5903,-3.6293,-3.6812,-3.7181,-3.7476,-3.777,-3.7936,-3.8155,-3.8355,-3.8355,-3.8501,-3.8501,-3.8501,-3.8501,-3.8574,-3.8574,-3.8574,-3.8574,-3.8574,-3.8574,-3.8574,-3.8574,-3.8647,-3.8647,-3.9353,-4.0269,-4.1226,-4.1689,-4.2507,-4.3218,-4.3286,-4.3458,-4.3828,-4.4082,-4.4355,-4.4951,-4.5398,-4.6154,-4.7093,-4.7692,-4.8219,-4.8723,-4.9124,-4.9311,-4.9127,-4.9087,-4.8616,-4.7672,-4.7491,-4.7046,-4.6532,-4.6708,-4.7003,-4.7473,-4.8182,-4.8772,-4.8942,-4.8837,-4.851,-4.7894,-4.7165,-4.6563,-4.616,-4.5822,-4.5754,-4.6092,-4.6563,-4.7098,-4.7962,-4.9124,-5.0141,-5.0953,-5.1804,-5.2441,-5.2785,-5.2836,-5.2929,-5.2929,-5.3067,-5.3273,-5.3622,-5.3895,-5.4117,-5.4355,-5.4663,-5.473,-5.4555,-5.4379,-5.4315,-5.43,-5.418,-5.421,-5.4411,-5.4653,-5.4799,-5.5035,-5.534,-5.5365,-5.5415,-5.5742,-5.5889,-5.5901,-5.5908,-5.6034,-2.6623,-2.7032,-2.749,-2.8275,-2.9368,-3.0206,-3.1286,-3.274,-3.4255,-3.5381,-3.5978,-3.6423,-3.7034,-3.7476,-3.7696,-3.8009,-3.8282,-3.8428,-3.8574,-3.8574,-3.8574,-3.8574,-3.8574,-3.8574,-3.8574,-3.8574,-3.8574,-3.8574,-3.8574,-3.8574,-3.8574,-3.8574,-3.8647,-3.8812,-3.9083,-3.9734,-4.0596,-4.1431,-4.222,-4.3108,-4.3891,-4.3872,-4.4047,-4.4645,-4.472,-4.519,-4.5813,-4.6351,-4.7135,-4.7929,-4.8469,-4.881,-4.9188,-4.9565,-4.9396,-4.9072,-4.8877,-4.8092,-4.7098,-4.6583,-4.6338,-4.6227,-4.6429,-4.6697,-4.6898,-4.7984,-4.851,-4.878,-4.8879,-4.8657,-4.8313,-4.7189,-4.652,-4.6294,-4.6092,-4.6025,-4.6294,-4.6965,-4.766,-4.8743,-4.9825,-5.0996,-5.1947,-5.2067,-5.2585,-5.2923,-5.2948,-5.2867,-5.2886,-5.2929,-5.3136,-5.3587,-5.3894,-5.4072,-5.437,-5.4683,-5.4867,-5.4688,-5.4572,-5.4527,-5.4582,-5.4762,-5.4783,-5.4808,-5.5177,-5.5547,-5.5631,-5.5739,-5.5867,-5.6043,-5.6022,-5.612,-5.6088,-5.6175,-5.6315,-2.6637,-2.7018,-2.749,-2.8353,-2.9601,-3.0608,-3.2053,-3.3802,-3.5082,-3.5978,-3.6571,-3.6886,-3.7476,-3.8009,-3.8228,-3.8302,-3.8574,-3.8574,-3.8574,-3.8574,-3.8574,-3.8574,-3.8574,-3.8574,-3.8574,-3.8574,-3.8574,-3.8574,-3.8574,-3.8574,-3.8574,-3.8574,-3.8647,-3.8938,-3.9373,-4.0022,-4.074,-4.1664,-4.2656,-4.3584,-4.4138,-4.4437,-4.4797,-4.5242,-4.5611,-4.6014,-4.6593,-4.7286,-4.7962,-4.8618,-4.896,-4.9213,-4.949,-4.9525,-4.9332,-4.8967,-4.8092,-4.7364,-4.6473,-4.5957,-4.589,-4.5957,-4.6227,-4.6456,-4.6887,-4.8101,-4.8869,-4.9207,-4.9092,-4.8927,-4.8565,-4.7408,-4.7032,-4.6896,-4.662,-4.6643,-4.7238,-4.7959,-4.8494,-4.9583,-5.067,-5.1829,-5.2616,-5.2659,-5.2795,-5.2939,-5.3034,-5.2953,-5.2942,-5.308,-5.3199,-5.3608,-5.3948,-5.4151,-5.4505,-5.489,-5.495,-5.4909,-5.4888,-5.4963,-5.5189,-5.5465,-5.5336,-5.5329,-5.58,-5.6125,-5.6031,-5.6063,-5.597,-5.5826,-5.5656,-5.5852,-5.6146,-5.6264,-5.6381,-2.6623,-2.7032,-2.7412,-2.8339,-2.9601,-3.0917,-3.2816,-3.4932,-3.5381,-3.6275,-3.7329,-3.7329,-3.777,-3.8428,-3.8574,-3.8574,-3.8574,-3.8574,-3.8574,-3.8574,-3.8574,-3.8574,-3.8574,-3.8574,-3.8574,-3.8574,-3.8574,-3.8574,-3.8574,-3.8574,-3.8574,-3.8647,-3.872,-3.9156,-3.9662,-4.031,-4.1025,-4.1947,-4.3071,-4.3858,-4.4274,-4.4892,-4.5344,-4.5838,-4.6328,-4.7035,-4.7693,-4.8435,-4.8963,-4.9361,-4.954,-4.9565,-4.959,-4.959,-4.9162,-4.842,-4.7298,-4.654,-4.6025,-4.5686,-4.5779,-4.6029,-4.6412,-4.6758,-4.7468,-4.8579,-4.9401,-4.9889,-4.9963,-4.9499,-4.895,-4.8488,-4.8062,-4.7782,-4.7433,-4.7848,-4.8588,-4.9112,-4.9579,-5.0486,-5.1537,-5.2484,-5.2892,-5.3053,-5.3197,-5.3247,-5.3367,-5.3362,-5.3328,-5.3362,-5.3532,-5.3783,-5.4099,-5.4205,-5.4607,-5.5182,-5.5433,-5.5415,-5.5666,-5.5792,-5.5993,-5.5993,-5.5889,-5.5959,-5.6454,-5.658,-5.6261,-5.6068,-5.5851,-5.5681,-5.5312,-5.5632,-5.5852,-5.5999,-5.6143,-2.6465,-2.6623,-2.7319,-2.8182,-2.9353,-3.167,-3.3575,-3.4932,-3.5456,-3.6275,-3.7402,-3.7402,-3.7843,-3.8574,-3.8574,-3.8574,-3.8574,-3.8574,-3.8574,-3.8574,-3.8574,-3.8574,-3.8574,-3.8574,-3.8574,-3.8574,-3.8574,-3.8594,-3.8613,-3.8594,-3.8633,-3.8647,-3.8944,-3.9433,-4.0135,-4.074,-4.1381,-4.2229,-4.3419,-4.3997,-4.448,-4.5028,-4.5619,-4.6227,-4.6764,-4.7497,-4.8313,-4.8812,-4.9267,-4.9525,-4.959,-4.959,-4.959,-4.9525,-4.9202,-4.8158,-4.7141,-4.6271,-4.5957,-4.5642,-4.5735,-4.6514,-4.7061,-4.7559,-4.8204,-4.915,-5.0185,-5.0567,-5.069,-5.029,-4.9897,-4.9519,-4.9064,-4.8714,-4.8502,-4.892,-4.9616,-5.0025,-5.0542,-5.1408,-5.2441,-5.2961,-5.3412,-5.3607,-5.3768,-5.3793,-5.3818,-5.3793,-5.3736,-5.3773,-5.4009,-5.426,-5.4486,-5.4712,-5.5089,-5.5663,-5.5817,-5.6018,-5.607,-5.6146,-5.6095,-5.607,-5.6267,-5.6438,-5.6656,-5.6583,-5.634,-5.5974,-5.5607,-5.5164,-5.4868,-5.5238,-5.5558,-5.5705,-5.5926,-2.64,-2.6465,-2.724,-2.8339,-2.9897,-3.1977,-3.3575,-3.4556,-3.5306,-3.6201,-3.7107,-3.7329,-3.7843,-3.8501,-3.8574,-3.8574,-3.8574,-3.8574,-3.8574,-3.8574,-3.8574,-3.8574,-3.8574,-3.8574,-3.8574,-3.8574,-3.8613,-3.8672,-3.8789,-3.9043,-3.9121,-3.9214,-3.9425,-3.9871,-4.0483,-4.1078,-4.1735,-4.2651,-4.3489,-4.4135,-4.4617,-4.5028,-4.5686,-4.6338,-4.6898,-4.772,-4.851,-4.8942,-4.9396,-4.959,-4.959,-4.959,-4.9536,-4.9506,-4.9133,-4.8149,-4.7583,-4.6882,-4.6472,-4.638,-4.6657,-4.7257,-4.8088,-4.8872,-4.949,-5.0302,-5.0913,-5.1365,-5.134,-5.1197,-5.0783,-5.0392,-5.0044,-4.9604,-4.979,-5.0044,-5.0411,-5.082,-5.1514,-5.236,-5.3067,-5.3588,-5.3969,-5.416,-5.4365,-5.4414,-5.4588,-5.4737,-5.4583,-5.4398,-5.4566,-5.4838,-5.5089,-5.5315,-5.5691,-5.5917,-5.597,-5.5972,-5.5876,-5.5926,-5.5999,-5.5999,-5.6072,-5.6365,-5.6656,-5.6438,-5.612,-5.5607,-5.5164,-5.4645,-5.4122,-5.4272,-5.4719,-5.5386,-5.5607,-2.64,-2.6465,-2.7319,-2.8886,-3.0747,-3.2053,-3.3044,-3.3802,-3.5007,-3.6052,-3.6812,-3.7255,-3.7843,-3.8501,-3.8574,-3.8574,-3.8574,-3.8574,-3.8574,-3.8574,-3.8574,-3.8574,-3.8574,-3.8574,-3.8652,-3.8633,-3.8711,-3.8926,-3.9277,-3.9492,-3.9668,-3.9938,-4.0068,-4.0512,-4.1275,-4.1913,-4.2685,-4.3485,-4.4191,-4.475,-4.4662,-4.5097,-4.5754,-4.6429,-4.7098,-4.7852,-4.8576,-4.9097,-4.959,-4.959,-4.959,-4.959,-4.9671,-4.9413,-4.8883,-4.8479,-4.7969,-4.7398,-4.7028,-4.6959,-4.7446,-4.8191,-4.9149,-4.9987,-5.0587,-5.1166,-5.1687,-5.2042,-5.2086,-5.1899,-5.155,-5.1368,-5.1068,-5.0832,-5.0876,-5.1088,-5.1437,-5.1855,-5.2385,-5.3167,-5.3788,-5.431,-5.4566,-5.4802,-5.5079,-5.5131,-5.5183,-5.5432,-5.5355,-5.5121,-5.5168,-5.5365,-5.5685,-5.5886,-5.5845,-5.6045,-5.5997,-5.5974,-5.5779,-5.5632,-5.5558,-5.5705,-5.5852,-5.5999,-5.6146,-5.612,-5.5827,-5.5238,-5.4472,-5.3723,-5.3295,-5.3219,-5.3747,-5.4645,-5.5312,-2.64,-2.6544,-2.7947,-2.9275,-3.0438,-3.1977,-3.2664,-3.3044,-3.4481,-3.5754,-3.6738,-3.7255,-3.7843,-3.8501,-3.8574,-3.8574,-3.8574,-3.8574,-3.8574,-3.8574,-3.8574,-3.8574,-3.8594,-3.8633,-3.875,-3.8965,-3.9121,-3.9316,-3.9687,-3.9863,-4.0148,-4.0429,-4.0827,-4.1547,-4.2261,-4.2997,-4.3888,-4.4485,-4.5099,-4.5296,-4.5027,-4.5211,-4.5754,-4.6452,-4.7237,-4.7973,-4.8698,-4.9302,-4.9511,-4.959,-4.959,-4.9816,-5.0127,-4.9644,-4.9249,-4.882,-4.8396,-4.7773,-4.7375,-4.7421,-4.7959,-4.8708,-4.9669,-5.0631,-5.1358,-5.1897,-5.2341,-5.2604,-5.2673,-5.246,-5.2341,-5.2208,-5.2189,-5.1995,-5.1852,-5.209,-5.2421,-5.2784,-5.3217,-5.3839,-5.4415,-5.4817,-5.5117,-5.5371,-5.5747,-5.5897,-5.5922,-5.6022,-5.5924,-5.5769,-5.5622,-5.5867,-5.6233,-5.641,-5.6219,-5.5926,-5.5779,-5.5533,-5.5263,-5.5189,-5.5115,-5.5164,-5.5312,-5.5411,-5.5485,-5.5386,-5.509,-5.4421,-5.3672,-5.2916,-5.2688,-5.2612,-5.2992,-5.3747,-5.4645,-2.64,-2.6623,-2.8182,-2.9353,-3.0361,-3.19,-3.2588,-3.2892,-3.4331,-3.5605,-3.6516,-3.7181,-3.7843,-3.8501,-3.8574,-3.8574,-3.8574,-3.8574,-3.8574,-3.8574,-3.8574,-3.8574,-3.8613,-3.875,-3.8945,-3.9199,-3.9668,-3.9961,-4.0156,-4.0639,-4.0946,-4.1207,-4.1861,-4.2518,-4.3236,-4.4155,-4.4986,-4.5422,-4.6059,-4.6073,-4.5666,-4.6059,-4.6518,-4.7179,-4.7901,-4.8664,-4.9288,-4.9949,-5.0278,-5.0368,-5.0419,-5.0494,-5.0647,-5.0362,-4.9908,-4.9421,-4.8942,-4.8309,-4.7932,-4.7955,-4.845,-4.9227,-5.0355,-5.139,-5.1648,-5.2139,-5.2554,-5.2861,-5.2861,-5.2648,-5.2648,-5.256,-5.256,-5.2416,-5.2391,-5.2535,-5.264,-5.2795,-5.3193,-5.3502,-5.4144,-5.4665,-5.489,-5.5113,-5.5385,-5.5385,-5.5607,-5.5852,-5.5852,-5.5999,-5.5999,-5.5926,-5.612,-5.6194,-5.5926,-5.5558,-5.5238,-5.5016,-5.4719,-5.457,-5.4421,-5.457,-5.4719,-5.4794,-5.4794,-5.4645,-5.4197,-5.3596,-5.3068,-5.2459,-5.223,-5.2154,-5.2612,-5.3143,-5.3972,-2.6465,-2.6781,-2.8261,-2.9353,-3.0284,-3.19,-3.2588,-3.2968,-3.4331,-3.553,-3.6349,-3.7107,-3.7843,-3.8355,-3.8574,-3.8574,-3.8574,-3.8574,-3.8574,-3.8574,-3.8574,-3.8672,-3.8828,-3.9004,-3.9258,-3.9687,-4.0195,-4.043,-4.0605,-4.1148,-4.1651,-4.2039,-4.2698,-4.3294,-4.3838,-4.4625,-4.5489,-4.611,-4.6634,-4.6877,-4.7023,-4.7259,-4.7493,-4.8118,-4.8947,-4.9699,-5.0173,-5.0645,-5.1047,-5.0997,-5.083,-5.0955,-5.0904,-5.0703,-5.0356,-4.9835,-4.944,-4.8916,-4.8601,-4.8771,-4.9176,-4.9747,-5.1025,-5.1656,-5.182,-5.2169,-5.2585,-5.2723,-5.2723,-5.2861,-5.2861,-5.2861,-5.2861,-5.2792,-5.2723,-5.2684,-5.2745,-5.2833,-5.3069,-5.3395,-5.3838,-5.4378,-5.4598,-5.4769,-5.4818,-5.4892,-5.4967,-5.5164,-5.5312,-5.546,-5.5533,-5.5312,-5.5238,-5.5312,-5.5386,-5.5016,-5.4645,-5.4272,-5.3972,-5.3747,-5.3672,-5.3897,-5.4047,-5.4272,-5.4197,-5.3972,-5.3521,-5.2992,-5.2383,-5.1947,-5.187,-5.187,-5.2459,-5.2992,-5.3521,-2.6781,-2.7476,-2.8495,-2.9353,-3.0284,-3.19,-3.274,-3.3272,-3.4406,-3.5605,-3.659,-3.7181,-3.7843,-3.8574,-3.8574,-3.8574,-3.8574,-3.8594,-3.8574,-3.8574,-3.8652,-3.8828,-3.9062,-3.9355,-3.9687,-4.0195,-4.0703,-4.0957,-4.1072,-4.1596,-4.2159,-4.2734,-4.3497,-4.441,-4.5435,-4.6095,-4.6687,-4.7101,-4.7485,-4.7846,-4.7806,-4.7815,-4.7633,-4.8189,-4.8741,-4.929,-4.9767,-5.0106,-5.0216,-5.0308,-5.0475,-5.0789,-5.0832,-5.0803,-5.0374,-4.9959,-4.9581,-4.9054,-4.8812,-4.898,-4.9173,-4.9509,-5.0435,-5.1025,-5.1306,-5.1656,-5.1935,-5.2074,-5.2213,-5.2654,-5.2723,-5.2723,-5.2723,-5.261,-5.254,-5.2466,-5.2456,-5.2664,-5.2937,-5.3205,-5.3542,-5.3856,-5.3927,-5.4047,-5.4047,-5.4122,-5.4272,-5.4421,-5.457,-5.4794,-5.5016,-5.4719,-5.4421,-5.4496,-5.457,-5.4272,-5.3897,-5.3521,-5.3143,-5.2992,-5.2992,-5.3219,-5.337,-5.3596,-5.3446,-5.3143,-5.2688,-5.2383,-5.2024,-5.1716,-5.1562,-5.1639,-5.223,-5.2664,-5.3143]}]]